<?xml version="1.0" encoding="UTF-8" standalone="no" ?>
<gpx xmlns="http://www.topografix.com/GPX/1/1" xmlns:xsi="http://www.w3.org/2001/XMLSchema-instance" xsi:schemaLocation="http://www.topografix.com/GPX/1/1 http://www.topografix.com/GPX/1/1/gpx.xsd" version="1.1" creator="VisuGPX - https://www.visugpx.com">
  <metadata>
    <name>parmelan</name>
    <desc><![CDATA[circuit en boucle 
départ de blonnière]]></desc>
  </metadata>
  <trk>
    <name><![CDATA[2015-11-08 14:47:50]]></name>
    <trkseg>
      <trkpt lat="45.93525" lon="6.23319">
        <ele>1081.14</ele>
        <time>2015-11-08T07:54:08Z</time>
      </trkpt>
      <trkpt lat="45.93525" lon="6.23319">
        <ele>1081.14</ele>
        <time>2015-11-08T07:54:09Z</time>
      </trkpt>
      <trkpt lat="45.93523" lon="6.2332">
        <ele>1052.78</ele>
        <time>2015-11-08T07:54:13Z</time>
      </trkpt>
      <trkpt lat="45.93523" lon="6.23321">
        <ele>1051.82</ele>
        <time>2015-11-08T07:54:17Z</time>
      </trkpt>
      <trkpt lat="45.93522" lon="6.23321">
        <ele>1051.34</ele>
        <time>2015-11-08T07:54:23Z</time>
      </trkpt>
      <trkpt lat="45.93523" lon="6.23323">
        <ele>1050.86</ele>
        <time>2015-11-08T07:54:41Z</time>
      </trkpt>
      <trkpt lat="45.93524" lon="6.23323">
        <ele>1050.38</ele>
        <time>2015-11-08T07:55:03Z</time>
      </trkpt>
      <trkpt lat="45.93522" lon="6.23324">
        <ele>1050.38</ele>
        <time>2015-11-08T07:55:34Z</time>
      </trkpt>
      <trkpt lat="45.93523" lon="6.23322">
        <ele>1049.9</ele>
        <time>2015-11-08T07:55:53Z</time>
      </trkpt>
      <trkpt lat="45.93521" lon="6.23322">
        <ele>1050.86</ele>
        <time>2015-11-08T07:56:19Z</time>
      </trkpt>
      <trkpt lat="45.93521" lon="6.23321">
        <ele>1050.86</ele>
        <time>2015-11-08T07:56:28Z</time>
      </trkpt>
      <trkpt lat="45.93522" lon="6.23321">
        <ele>1050.38</ele>
        <time>2015-11-08T07:56:56Z</time>
      </trkpt>
      <trkpt lat="45.93523" lon="6.23322">
        <ele>1050.86</ele>
        <time>2015-11-08T07:57:06Z</time>
      </trkpt>
      <trkpt lat="45.93522" lon="6.2332">
        <ele>1050.86</ele>
        <time>2015-11-08T07:57:21Z</time>
      </trkpt>
      <trkpt lat="45.9352" lon="6.23321">
        <ele>1050.86</ele>
        <time>2015-11-08T07:57:24Z</time>
      </trkpt>
      <trkpt lat="45.93518" lon="6.23337">
        <ele>1050.86</ele>
        <time>2015-11-08T07:57:40Z</time>
      </trkpt>
      <trkpt lat="45.93518" lon="6.23341">
        <ele>1052.3</ele>
        <time>2015-11-08T07:57:45Z</time>
      </trkpt>
      <trkpt lat="45.93514" lon="6.2334">
        <ele>1052.3</ele>
        <time>2015-11-08T07:57:57Z</time>
      </trkpt>
      <trkpt lat="45.93515" lon="6.2334">
        <ele>1051.82</ele>
        <time>2015-11-08T07:58:25Z</time>
      </trkpt>
      <trkpt lat="45.93515" lon="6.23343">
        <ele>1051.82</ele>
        <time>2015-11-08T07:58:52Z</time>
      </trkpt>
      <trkpt lat="45.93515" lon="6.23345">
        <ele>1051.82</ele>
        <time>2015-11-08T07:59:30Z</time>
      </trkpt>
      <trkpt lat="45.9352" lon="6.23342">
        <ele>1051.82</ele>
        <time>2015-11-08T07:59:45Z</time>
      </trkpt>
      <trkpt lat="45.93525" lon="6.23344">
        <ele>1052.3</ele>
        <time>2015-11-08T07:59:56Z</time>
      </trkpt>
      <trkpt lat="45.93528" lon="6.23349">
        <ele>1052.78</ele>
        <time>2015-11-08T08:00:10Z</time>
      </trkpt>
      <trkpt lat="45.9353" lon="6.23349">
        <ele>1053.74</ele>
        <time>2015-11-08T08:00:24Z</time>
      </trkpt>
      <trkpt lat="45.93534" lon="6.23351">
        <ele>1055.67</ele>
        <time>2015-11-08T08:00:36Z</time>
      </trkpt>
      <trkpt lat="45.9354" lon="6.23354">
        <ele>1057.11</ele>
        <time>2015-11-08T08:00:50Z</time>
      </trkpt>
      <trkpt lat="45.93545" lon="6.23357">
        <ele>1059.99</ele>
        <time>2015-11-08T08:01:03Z</time>
      </trkpt>
      <trkpt lat="45.93553" lon="6.23361">
        <ele>1061.91</ele>
        <time>2015-11-08T08:01:18Z</time>
      </trkpt>
      <trkpt lat="45.93562" lon="6.23359">
        <ele>1064.32</ele>
        <time>2015-11-08T08:01:34Z</time>
      </trkpt>
      <trkpt lat="45.93567" lon="6.23357">
        <ele>1066.24</ele>
        <time>2015-11-08T08:01:45Z</time>
      </trkpt>
      <trkpt lat="45.93578" lon="6.23354">
        <ele>1069.12</ele>
        <time>2015-11-08T08:02:00Z</time>
      </trkpt>
      <trkpt lat="45.93586" lon="6.23351">
        <ele>1070.57</ele>
        <time>2015-11-08T08:02:13Z</time>
      </trkpt>
      <trkpt lat="45.93597" lon="6.2335">
        <ele>1072.49</ele>
        <time>2015-11-08T08:02:28Z</time>
      </trkpt>
      <trkpt lat="45.93608" lon="6.23349">
        <ele>1074.41</ele>
        <time>2015-11-08T08:02:43Z</time>
      </trkpt>
      <trkpt lat="45.93619" lon="6.23349">
        <ele>1076.33</ele>
        <time>2015-11-08T08:02:56Z</time>
      </trkpt>
      <trkpt lat="45.93633" lon="6.23346">
        <ele>1078.74</ele>
        <time>2015-11-08T08:03:14Z</time>
      </trkpt>
      <trkpt lat="45.93642" lon="6.23342">
        <ele>1081.14</ele>
        <time>2015-11-08T08:03:27Z</time>
      </trkpt>
      <trkpt lat="45.93653" lon="6.2334">
        <ele>1083.06</ele>
        <time>2015-11-08T08:03:42Z</time>
      </trkpt>
      <trkpt lat="45.93665" lon="6.23336">
        <ele>1085.47</ele>
        <time>2015-11-08T08:03:56Z</time>
      </trkpt>
      <trkpt lat="45.93678" lon="6.23336">
        <ele>1088.35</ele>
        <time>2015-11-08T08:04:10Z</time>
      </trkpt>
      <trkpt lat="45.9369" lon="6.23333">
        <ele>1090.75</ele>
        <time>2015-11-08T08:04:25Z</time>
      </trkpt>
      <trkpt lat="45.937" lon="6.23331">
        <ele>1094.12</ele>
        <time>2015-11-08T08:04:39Z</time>
      </trkpt>
      <trkpt lat="45.93711" lon="6.23332">
        <ele>1096.52</ele>
        <time>2015-11-08T08:04:54Z</time>
      </trkpt>
      <trkpt lat="45.93721" lon="6.23334">
        <ele>1098.44</ele>
        <time>2015-11-08T08:05:06Z</time>
      </trkpt>
      <trkpt lat="45.93732" lon="6.23342">
        <ele>1100.85</ele>
        <time>2015-11-08T08:05:22Z</time>
      </trkpt>
      <trkpt lat="45.93743" lon="6.23351">
        <ele>1103.25</ele>
        <time>2015-11-08T08:05:38Z</time>
      </trkpt>
      <trkpt lat="45.93755" lon="6.23357">
        <ele>1105.65</ele>
        <time>2015-11-08T08:05:53Z</time>
      </trkpt>
      <trkpt lat="45.93765" lon="6.23358">
        <ele>1107.58</ele>
        <time>2015-11-08T08:06:07Z</time>
      </trkpt>
      <trkpt lat="45.93774" lon="6.23358">
        <ele>1109.98</ele>
        <time>2015-11-08T08:06:23Z</time>
      </trkpt>
      <trkpt lat="45.93782" lon="6.23357">
        <ele>1112.38</ele>
        <time>2015-11-08T08:06:34Z</time>
      </trkpt>
      <trkpt lat="45.93796" lon="6.23349">
        <ele>1115.27</ele>
        <time>2015-11-08T08:06:52Z</time>
      </trkpt>
      <trkpt lat="45.93807" lon="6.23342">
        <ele>1116.71</ele>
        <time>2015-11-08T08:07:06Z</time>
      </trkpt>
      <trkpt lat="45.93818" lon="6.23338">
        <ele>1118.63</ele>
        <time>2015-11-08T08:07:19Z</time>
      </trkpt>
      <trkpt lat="45.93829" lon="6.23336">
        <ele>1121.03</ele>
        <time>2015-11-08T08:07:33Z</time>
      </trkpt>
      <trkpt lat="45.9384" lon="6.23332">
        <ele>1123.44</ele>
        <time>2015-11-08T08:07:47Z</time>
      </trkpt>
      <trkpt lat="45.93856" lon="6.23325">
        <ele>1125.84</ele>
        <time>2015-11-08T08:08:02Z</time>
      </trkpt>
      <trkpt lat="45.93861" lon="6.23325">
        <ele>1126.8</ele>
        <time>2015-11-08T08:08:09Z</time>
      </trkpt>
      <trkpt lat="45.93873" lon="6.23326">
        <ele>1129.69</ele>
        <time>2015-11-08T08:08:25Z</time>
      </trkpt>
      <trkpt lat="45.93887" lon="6.23324">
        <ele>1131.61</ele>
        <time>2015-11-08T08:08:40Z</time>
      </trkpt>
      <trkpt lat="45.939" lon="6.23316">
        <ele>1134.01</ele>
        <time>2015-11-08T08:08:55Z</time>
      </trkpt>
      <trkpt lat="45.93909" lon="6.23312">
        <ele>1136.42</ele>
        <time>2015-11-08T08:09:09Z</time>
      </trkpt>
      <trkpt lat="45.93918" lon="6.2331">
        <ele>1138.34</ele>
        <time>2015-11-08T08:09:21Z</time>
      </trkpt>
      <trkpt lat="45.93927" lon="6.23306">
        <ele>1140.26</ele>
        <time>2015-11-08T08:09:34Z</time>
      </trkpt>
      <trkpt lat="45.93936" lon="6.233">
        <ele>1141.22</ele>
        <time>2015-11-08T08:09:46Z</time>
      </trkpt>
      <trkpt lat="45.93948" lon="6.23295">
        <ele>1143.14</ele>
        <time>2015-11-08T08:09:59Z</time>
      </trkpt>
      <trkpt lat="45.93962" lon="6.23292">
        <ele>1145.55</ele>
        <time>2015-11-08T08:10:14Z</time>
      </trkpt>
      <trkpt lat="45.93972" lon="6.23287">
        <ele>1147.95</ele>
        <time>2015-11-08T08:10:28Z</time>
      </trkpt>
      <trkpt lat="45.93988" lon="6.23288">
        <ele>1149.87</ele>
        <time>2015-11-08T08:10:44Z</time>
      </trkpt>
      <trkpt lat="45.94001" lon="6.23294">
        <ele>1152.76</ele>
        <time>2015-11-08T08:11:00Z</time>
      </trkpt>
      <trkpt lat="45.94014" lon="6.23302">
        <ele>1155.16</ele>
        <time>2015-11-08T08:11:16Z</time>
      </trkpt>
      <trkpt lat="45.94015" lon="6.23301">
        <ele>1155.16</ele>
        <time>2015-11-08T08:11:17Z</time>
      </trkpt>
      <trkpt lat="45.9402" lon="6.23294">
        <ele>1156.6</ele>
        <time>2015-11-08T08:11:33Z</time>
      </trkpt>
      <trkpt lat="45.94022" lon="6.23288">
        <ele>1159.49</ele>
        <time>2015-11-08T08:11:45Z</time>
      </trkpt>
      <trkpt lat="45.9403" lon="6.23284">
        <ele>1161.89</ele>
        <time>2015-11-08T08:12:00Z</time>
      </trkpt>
      <trkpt lat="45.94036" lon="6.23289">
        <ele>1164.77</ele>
        <time>2015-11-08T08:12:15Z</time>
      </trkpt>
      <trkpt lat="45.94043" lon="6.23293">
        <ele>1167.18</ele>
        <time>2015-11-08T08:12:31Z</time>
      </trkpt>
      <trkpt lat="45.94049" lon="6.23295">
        <ele>1170.06</ele>
        <time>2015-11-08T08:12:46Z</time>
      </trkpt>
      <trkpt lat="45.94055" lon="6.23293">
        <ele>1172.47</ele>
        <time>2015-11-08T08:13:02Z</time>
      </trkpt>
      <trkpt lat="45.94061" lon="6.23292">
        <ele>1175.83</ele>
        <time>2015-11-08T08:13:19Z</time>
      </trkpt>
      <trkpt lat="45.94067" lon="6.23292">
        <ele>1177.75</ele>
        <time>2015-11-08T08:13:31Z</time>
      </trkpt>
      <trkpt lat="45.94073" lon="6.2329">
        <ele>1180.64</ele>
        <time>2015-11-08T08:13:47Z</time>
      </trkpt>
      <trkpt lat="45.9408" lon="6.23288">
        <ele>1183.04</ele>
        <time>2015-11-08T08:14:02Z</time>
      </trkpt>
      <trkpt lat="45.94086" lon="6.23287">
        <ele>1185.44</ele>
        <time>2015-11-08T08:14:17Z</time>
      </trkpt>
      <trkpt lat="45.94093" lon="6.23286">
        <ele>1187.85</ele>
        <time>2015-11-08T08:14:32Z</time>
      </trkpt>
      <trkpt lat="45.941" lon="6.23285">
        <ele>1189.77</ele>
        <time>2015-11-08T08:14:44Z</time>
      </trkpt>
      <trkpt lat="45.94108" lon="6.23284">
        <ele>1192.17</ele>
        <time>2015-11-08T08:15:00Z</time>
      </trkpt>
      <trkpt lat="45.94116" lon="6.23285">
        <ele>1195.06</ele>
        <time>2015-11-08T08:15:15Z</time>
      </trkpt>
      <trkpt lat="45.94124" lon="6.23281">
        <ele>1197.46</ele>
        <time>2015-11-08T08:15:30Z</time>
      </trkpt>
      <trkpt lat="45.94128" lon="6.23282">
        <ele>1199.38</ele>
        <time>2015-11-08T08:15:40Z</time>
      </trkpt>
      <trkpt lat="45.94136" lon="6.23277">
        <ele>1201.3</ele>
        <time>2015-11-08T08:15:54Z</time>
      </trkpt>
      <trkpt lat="45.94145" lon="6.23273">
        <ele>1203.23</ele>
        <time>2015-11-08T08:16:11Z</time>
      </trkpt>
      <trkpt lat="45.94155" lon="6.23271">
        <ele>1206.11</ele>
        <time>2015-11-08T08:16:28Z</time>
      </trkpt>
      <trkpt lat="45.94165" lon="6.23269">
        <ele>1209</ele>
        <time>2015-11-08T08:16:44Z</time>
      </trkpt>
      <trkpt lat="45.94172" lon="6.23261">
        <ele>1210.44</ele>
        <time>2015-11-08T08:16:59Z</time>
      </trkpt>
      <trkpt lat="45.94176" lon="6.2326">
        <ele>1211.4</ele>
        <time>2015-11-08T08:17:06Z</time>
      </trkpt>
      <trkpt lat="45.94186" lon="6.23258">
        <ele>1213.8</ele>
        <time>2015-11-08T08:17:21Z</time>
      </trkpt>
      <trkpt lat="45.94194" lon="6.23258">
        <ele>1216.21</ele>
        <time>2015-11-08T08:17:36Z</time>
      </trkpt>
      <trkpt lat="45.94201" lon="6.23256">
        <ele>1218.61</ele>
        <time>2015-11-08T08:17:50Z</time>
      </trkpt>
      <trkpt lat="45.94211" lon="6.23252">
        <ele>1221.49</ele>
        <time>2015-11-08T08:18:06Z</time>
      </trkpt>
      <trkpt lat="45.94218" lon="6.23256">
        <ele>1223.9</ele>
        <time>2015-11-08T08:18:23Z</time>
      </trkpt>
      <trkpt lat="45.94224" lon="6.23258">
        <ele>1226.78</ele>
        <time>2015-11-08T08:18:38Z</time>
      </trkpt>
      <trkpt lat="45.9423" lon="6.23259">
        <ele>1229.66</ele>
        <time>2015-11-08T08:18:53Z</time>
      </trkpt>
      <trkpt lat="45.94237" lon="6.23265">
        <ele>1232.07</ele>
        <time>2015-11-08T08:19:07Z</time>
      </trkpt>
      <trkpt lat="45.94243" lon="6.23267">
        <ele>1234.95</ele>
        <time>2015-11-08T08:19:23Z</time>
      </trkpt>
      <trkpt lat="45.9425" lon="6.23269">
        <ele>1237.83</ele>
        <time>2015-11-08T08:19:37Z</time>
      </trkpt>
      <trkpt lat="45.94258" lon="6.23271">
        <ele>1240.72</ele>
        <time>2015-11-08T08:19:53Z</time>
      </trkpt>
      <trkpt lat="45.94258" lon="6.23272">
        <ele>1239.28</ele>
        <time>2015-11-08T08:19:57Z</time>
      </trkpt>
      <trkpt lat="45.94258" lon="6.23274">
        <ele>1239.28</ele>
        <time>2015-11-08T08:20:16Z</time>
      </trkpt>
      <trkpt lat="45.94258" lon="6.23272">
        <ele>1241.2</ele>
        <time>2015-11-08T08:20:32Z</time>
      </trkpt>
      <trkpt lat="45.9426" lon="6.23269">
        <ele>1240.72</ele>
        <time>2015-11-08T08:20:46Z</time>
      </trkpt>
      <trkpt lat="45.94266" lon="6.2327">
        <ele>1242.16</ele>
        <time>2015-11-08T08:20:58Z</time>
      </trkpt>
      <trkpt lat="45.94275" lon="6.23276">
        <ele>1244.08</ele>
        <time>2015-11-08T08:21:12Z</time>
      </trkpt>
      <trkpt lat="45.94283" lon="6.23279">
        <ele>1246.01</ele>
        <time>2015-11-08T08:21:24Z</time>
      </trkpt>
      <trkpt lat="45.94292" lon="6.23278">
        <ele>1248.41</ele>
        <time>2015-11-08T08:21:37Z</time>
      </trkpt>
      <trkpt lat="45.94295" lon="6.2327">
        <ele>1249.85</ele>
        <time>2015-11-08T08:21:49Z</time>
      </trkpt>
      <trkpt lat="45.94299" lon="6.23263">
        <ele>1251.77</ele>
        <time>2015-11-08T08:22:01Z</time>
      </trkpt>
      <trkpt lat="45.94302" lon="6.23252">
        <ele>1254.18</ele>
        <time>2015-11-08T08:22:16Z</time>
      </trkpt>
      <trkpt lat="45.94305" lon="6.23244">
        <ele>1256.1</ele>
        <time>2015-11-08T08:22:30Z</time>
      </trkpt>
      <trkpt lat="45.9431" lon="6.23234">
        <ele>1258.5</ele>
        <time>2015-11-08T08:22:46Z</time>
      </trkpt>
      <trkpt lat="45.94316" lon="6.23225">
        <ele>1260.91</ele>
        <time>2015-11-08T08:23:03Z</time>
      </trkpt>
      <trkpt lat="45.94324" lon="6.23217">
        <ele>1262.83</ele>
        <time>2015-11-08T08:23:20Z</time>
      </trkpt>
      <trkpt lat="45.9433" lon="6.23209">
        <ele>1265.71</ele>
        <time>2015-11-08T08:23:35Z</time>
      </trkpt>
      <trkpt lat="45.94335" lon="6.23203">
        <ele>1267.16</ele>
        <time>2015-11-08T08:23:49Z</time>
      </trkpt>
      <trkpt lat="45.94338" lon="6.23204">
        <ele>1267.16</ele>
        <time>2015-11-08T08:24:12Z</time>
      </trkpt>
      <trkpt lat="45.94335" lon="6.23202">
        <ele>1267.16</ele>
        <time>2015-11-08T08:24:35Z</time>
      </trkpt>
      <trkpt lat="45.94334" lon="6.23201">
        <ele>1267.16</ele>
        <time>2015-11-08T08:25:01Z</time>
      </trkpt>
      <trkpt lat="45.94336" lon="6.23196">
        <ele>1266.67</ele>
        <time>2015-11-08T08:25:19Z</time>
      </trkpt>
      <trkpt lat="45.94339" lon="6.23199">
        <ele>1266.67</ele>
        <time>2015-11-08T08:25:50Z</time>
      </trkpt>
      <trkpt lat="45.94347" lon="6.23196">
        <ele>1268.12</ele>
        <time>2015-11-08T08:26:03Z</time>
      </trkpt>
      <trkpt lat="45.94357" lon="6.23194">
        <ele>1269.56</ele>
        <time>2015-11-08T08:26:17Z</time>
      </trkpt>
      <trkpt lat="45.94365" lon="6.23189">
        <ele>1272.92</ele>
        <time>2015-11-08T08:26:33Z</time>
      </trkpt>
      <trkpt lat="45.94374" lon="6.23183">
        <ele>1274.36</ele>
        <time>2015-11-08T08:26:47Z</time>
      </trkpt>
      <trkpt lat="45.94385" lon="6.23184">
        <ele>1277.73</ele>
        <time>2015-11-08T08:27:03Z</time>
      </trkpt>
      <trkpt lat="45.94392" lon="6.23187">
        <ele>1278.21</ele>
        <time>2015-11-08T08:27:13Z</time>
      </trkpt>
      <trkpt lat="45.94397" lon="6.23187">
        <ele>1279.17</ele>
        <time>2015-11-08T08:27:20Z</time>
      </trkpt>
      <trkpt lat="45.94409" lon="6.23184">
        <ele>1281.09</ele>
        <time>2015-11-08T08:27:36Z</time>
      </trkpt>
      <trkpt lat="45.94419" lon="6.23184">
        <ele>1283.5</ele>
        <time>2015-11-08T08:27:51Z</time>
      </trkpt>
      <trkpt lat="45.9443" lon="6.2319">
        <ele>1285.9</ele>
        <time>2015-11-08T08:28:06Z</time>
      </trkpt>
      <trkpt lat="45.94432" lon="6.23191">
        <ele>1285.9</ele>
        <time>2015-11-08T08:28:10Z</time>
      </trkpt>
      <trkpt lat="45.94441" lon="6.23194">
        <ele>1287.34</ele>
        <time>2015-11-08T08:28:24Z</time>
      </trkpt>
      <trkpt lat="45.94442" lon="6.23194">
        <ele>1287.82</ele>
        <time>2015-11-08T08:28:25Z</time>
      </trkpt>
      <trkpt lat="45.94449" lon="6.23187">
        <ele>1288.78</ele>
        <time>2015-11-08T08:28:38Z</time>
      </trkpt>
      <trkpt lat="45.94451" lon="6.23182">
        <ele>1289.75</ele>
        <time>2015-11-08T08:28:52Z</time>
      </trkpt>
      <trkpt lat="45.94452" lon="6.23184">
        <ele>1290.23</ele>
        <time>2015-11-08T08:29:11Z</time>
      </trkpt>
      <trkpt lat="45.94456" lon="6.23182">
        <ele>1290.23</ele>
        <time>2015-11-08T08:29:14Z</time>
      </trkpt>
      <trkpt lat="45.94464" lon="6.23174">
        <ele>1292.15</ele>
        <time>2015-11-08T08:29:28Z</time>
      </trkpt>
      <trkpt lat="45.94468" lon="6.23171">
        <ele>1292.63</ele>
        <time>2015-11-08T08:29:31Z</time>
      </trkpt>
      <trkpt lat="45.9447" lon="6.2317">
        <ele>1292.63</ele>
        <time>2015-11-08T08:29:32Z</time>
      </trkpt>
      <trkpt lat="45.94471" lon="6.23169">
        <ele>1293.11</ele>
        <time>2015-11-08T08:29:33Z</time>
      </trkpt>
      <trkpt lat="45.94472" lon="6.23168">
        <ele>1293.11</ele>
        <time>2015-11-08T08:29:40Z</time>
      </trkpt>
      <trkpt lat="45.94473" lon="6.23168">
        <ele>1293.11</ele>
        <time>2015-11-08T08:29:41Z</time>
      </trkpt>
      <trkpt lat="45.94478" lon="6.23168">
        <ele>1293.59</ele>
        <time>2015-11-08T08:29:43Z</time>
      </trkpt>
      <trkpt lat="45.94481" lon="6.23168">
        <ele>1294.07</ele>
        <time>2015-11-08T08:29:44Z</time>
      </trkpt>
      <trkpt lat="45.94483" lon="6.23169">
        <ele>1295.03</ele>
        <time>2015-11-08T08:29:45Z</time>
      </trkpt>
      <trkpt lat="45.94486" lon="6.23171">
        <ele>1295.03</ele>
        <time>2015-11-08T08:29:46Z</time>
      </trkpt>
      <trkpt lat="45.94488" lon="6.23172">
        <ele>1295.99</ele>
        <time>2015-11-08T08:29:47Z</time>
      </trkpt>
      <trkpt lat="45.94491" lon="6.23173">
        <ele>1295.99</ele>
        <time>2015-11-08T08:29:48Z</time>
      </trkpt>
      <trkpt lat="45.94493" lon="6.23174">
        <ele>1295.99</ele>
        <time>2015-11-08T08:29:49Z</time>
      </trkpt>
      <trkpt lat="45.94495" lon="6.23174">
        <ele>1296.48</ele>
        <time>2015-11-08T08:29:50Z</time>
      </trkpt>
      <trkpt lat="45.945" lon="6.23175">
        <ele>1297.44</ele>
        <time>2015-11-08T08:29:56Z</time>
      </trkpt>
      <trkpt lat="45.945" lon="6.23178">
        <ele>1297.92</ele>
        <time>2015-11-08T08:30:12Z</time>
      </trkpt>
      <trkpt lat="45.94507" lon="6.23177">
        <ele>1297.92</ele>
        <time>2015-11-08T08:30:20Z</time>
      </trkpt>
      <trkpt lat="45.94509" lon="6.23177">
        <ele>1298.4</ele>
        <time>2015-11-08T08:30:22Z</time>
      </trkpt>
      <trkpt lat="45.9451" lon="6.23178">
        <ele>1298.4</ele>
        <time>2015-11-08T08:30:23Z</time>
      </trkpt>
      <trkpt lat="45.94512" lon="6.23178">
        <ele>1298.88</ele>
        <time>2015-11-08T08:30:24Z</time>
      </trkpt>
      <trkpt lat="45.94531" lon="6.23182">
        <ele>1301.76</ele>
        <time>2015-11-08T08:30:39Z</time>
      </trkpt>
      <trkpt lat="45.94545" lon="6.23164">
        <ele>1302.24</ele>
        <time>2015-11-08T08:30:54Z</time>
      </trkpt>
      <trkpt lat="45.9454" lon="6.23139">
        <ele>1303.69</ele>
        <time>2015-11-08T08:31:09Z</time>
      </trkpt>
      <trkpt lat="45.94546" lon="6.23122">
        <ele>1306.09</ele>
        <time>2015-11-08T08:31:25Z</time>
      </trkpt>
      <trkpt lat="45.94547" lon="6.23121">
        <ele>1306.09</ele>
        <time>2015-11-08T08:31:27Z</time>
      </trkpt>
      <trkpt lat="45.94548" lon="6.23121">
        <ele>1306.09</ele>
        <time>2015-11-08T08:31:28Z</time>
      </trkpt>
      <trkpt lat="45.9455" lon="6.2312">
        <ele>1306.57</ele>
        <time>2015-11-08T08:31:29Z</time>
      </trkpt>
      <trkpt lat="45.94561" lon="6.23124">
        <ele>1308.01</ele>
        <time>2015-11-08T08:31:40Z</time>
      </trkpt>
      <trkpt lat="45.94563" lon="6.23125">
        <ele>1308.01</ele>
        <time>2015-11-08T08:31:42Z</time>
      </trkpt>
      <trkpt lat="45.94569" lon="6.23124">
        <ele>1308.01</ele>
        <time>2015-11-08T08:31:55Z</time>
      </trkpt>
      <trkpt lat="45.94571" lon="6.23121">
        <ele>1308.49</ele>
        <time>2015-11-08T08:31:58Z</time>
      </trkpt>
      <trkpt lat="45.94581" lon="6.23119">
        <ele>1310.9</ele>
        <time>2015-11-08T08:32:11Z</time>
      </trkpt>
      <trkpt lat="45.94585" lon="6.23108">
        <ele>1312.34</ele>
        <time>2015-11-08T08:32:24Z</time>
      </trkpt>
      <trkpt lat="45.94585" lon="6.23107">
        <ele>1312.34</ele>
        <time>2015-11-08T08:32:25Z</time>
      </trkpt>
      <trkpt lat="45.9459" lon="6.23095">
        <ele>1314.74</ele>
        <time>2015-11-08T08:32:36Z</time>
      </trkpt>
      <trkpt lat="45.94593" lon="6.23086">
        <ele>1315.22</ele>
        <time>2015-11-08T08:32:47Z</time>
      </trkpt>
      <trkpt lat="45.94593" lon="6.23084">
        <ele>1316.18</ele>
        <time>2015-11-08T08:32:49Z</time>
      </trkpt>
      <trkpt lat="45.94591" lon="6.2308">
        <ele>1317.14</ele>
        <time>2015-11-08T08:32:53Z</time>
      </trkpt>
      <trkpt lat="45.94587" lon="6.23077">
        <ele>1317.14</ele>
        <time>2015-11-08T08:32:59Z</time>
      </trkpt>
      <trkpt lat="45.94588" lon="6.23074">
        <ele>1317.14</ele>
        <time>2015-11-08T08:33:01Z</time>
      </trkpt>
      <trkpt lat="45.94589" lon="6.23073">
        <ele>1317.14</ele>
        <time>2015-11-08T08:33:02Z</time>
      </trkpt>
      <trkpt lat="45.94592" lon="6.2306">
        <ele>1317.62</ele>
        <time>2015-11-08T08:33:12Z</time>
      </trkpt>
      <trkpt lat="45.94592" lon="6.23058">
        <ele>1317.62</ele>
        <time>2015-11-08T08:33:13Z</time>
      </trkpt>
      <trkpt lat="45.94592" lon="6.23052">
        <ele>1317.62</ele>
        <time>2015-11-08T08:33:17Z</time>
      </trkpt>
      <trkpt lat="45.9459" lon="6.23049">
        <ele>1317.62</ele>
        <time>2015-11-08T08:33:21Z</time>
      </trkpt>
      <trkpt lat="45.94589" lon="6.23048">
        <ele>1317.62</ele>
        <time>2015-11-08T08:33:22Z</time>
      </trkpt>
      <trkpt lat="45.94587" lon="6.23047">
        <ele>1317.62</ele>
        <time>2015-11-08T08:33:26Z</time>
      </trkpt>
      <trkpt lat="45.94586" lon="6.23045">
        <ele>1317.62</ele>
        <time>2015-11-08T08:33:27Z</time>
      </trkpt>
      <trkpt lat="45.94586" lon="6.23042">
        <ele>1318.1</ele>
        <time>2015-11-08T08:33:29Z</time>
      </trkpt>
      <trkpt lat="45.94586" lon="6.23039">
        <ele>1318.1</ele>
        <time>2015-11-08T08:33:31Z</time>
      </trkpt>
      <trkpt lat="45.94583" lon="6.23033">
        <ele>1318.1</ele>
        <time>2015-11-08T08:33:38Z</time>
      </trkpt>
      <trkpt lat="45.94583" lon="6.23032">
        <ele>1318.1</ele>
        <time>2015-11-08T08:33:39Z</time>
      </trkpt>
      <trkpt lat="45.94584" lon="6.23022">
        <ele>1319.07</ele>
        <time>2015-11-08T08:33:51Z</time>
      </trkpt>
      <trkpt lat="45.94583" lon="6.2302">
        <ele>1319.07</ele>
        <time>2015-11-08T08:34:04Z</time>
      </trkpt>
      <trkpt lat="45.94584" lon="6.23018">
        <ele>1319.07</ele>
        <time>2015-11-08T08:34:05Z</time>
      </trkpt>
      <trkpt lat="45.94585" lon="6.23016">
        <ele>1319.07</ele>
        <time>2015-11-08T08:34:06Z</time>
      </trkpt>
      <trkpt lat="45.94586" lon="6.23014">
        <ele>1319.07</ele>
        <time>2015-11-08T08:34:07Z</time>
      </trkpt>
      <trkpt lat="45.94586" lon="6.23012">
        <ele>1320.03</ele>
        <time>2015-11-08T08:34:08Z</time>
      </trkpt>
      <trkpt lat="45.94586" lon="6.2301">
        <ele>1320.03</ele>
        <time>2015-11-08T08:34:09Z</time>
      </trkpt>
      <trkpt lat="45.94587" lon="6.23008">
        <ele>1320.03</ele>
        <time>2015-11-08T08:34:10Z</time>
      </trkpt>
      <trkpt lat="45.94587" lon="6.23006">
        <ele>1320.99</ele>
        <time>2015-11-08T08:34:11Z</time>
      </trkpt>
      <trkpt lat="45.94586" lon="6.23004">
        <ele>1320.99</ele>
        <time>2015-11-08T08:34:12Z</time>
      </trkpt>
      <trkpt lat="45.94586" lon="6.23002">
        <ele>1320.99</ele>
        <time>2015-11-08T08:34:13Z</time>
      </trkpt>
      <trkpt lat="45.94585" lon="6.23001">
        <ele>1320.99</ele>
        <time>2015-11-08T08:34:14Z</time>
      </trkpt>
      <trkpt lat="45.94582" lon="6.22979">
        <ele>1323.87</ele>
        <time>2015-11-08T08:34:26Z</time>
      </trkpt>
      <trkpt lat="45.9458" lon="6.22963">
        <ele>1327.24</ele>
        <time>2015-11-08T08:34:38Z</time>
      </trkpt>
      <trkpt lat="45.94579" lon="6.22946">
        <ele>1329.64</ele>
        <time>2015-11-08T08:34:52Z</time>
      </trkpt>
      <trkpt lat="45.94582" lon="6.22934">
        <ele>1332.52</ele>
        <time>2015-11-08T08:35:07Z</time>
      </trkpt>
      <trkpt lat="45.94584" lon="6.22918">
        <ele>1334.45</ele>
        <time>2015-11-08T08:35:21Z</time>
      </trkpt>
      <trkpt lat="45.94586" lon="6.229">
        <ele>1337.33</ele>
        <time>2015-11-08T08:35:36Z</time>
      </trkpt>
      <trkpt lat="45.94586" lon="6.22887">
        <ele>1339.25</ele>
        <time>2015-11-08T08:35:51Z</time>
      </trkpt>
      <trkpt lat="45.9459" lon="6.22874">
        <ele>1341.66</ele>
        <time>2015-11-08T08:36:05Z</time>
      </trkpt>
      <trkpt lat="45.94592" lon="6.22857">
        <ele>1344.54</ele>
        <time>2015-11-08T08:36:20Z</time>
      </trkpt>
      <trkpt lat="45.94595" lon="6.2284">
        <ele>1346.46</ele>
        <time>2015-11-08T08:36:35Z</time>
      </trkpt>
      <trkpt lat="45.94597" lon="6.22829">
        <ele>1349.35</ele>
        <time>2015-11-08T08:36:49Z</time>
      </trkpt>
      <trkpt lat="45.946" lon="6.2281">
        <ele>1350.79</ele>
        <time>2015-11-08T08:37:06Z</time>
      </trkpt>
      <trkpt lat="45.94603" lon="6.22803">
        <ele>1351.27</ele>
        <time>2015-11-08T08:37:13Z</time>
      </trkpt>
      <trkpt lat="45.94604" lon="6.22801">
        <ele>1351.27</ele>
        <time>2015-11-08T08:37:14Z</time>
      </trkpt>
      <trkpt lat="45.94604" lon="6.228">
        <ele>1351.27</ele>
        <time>2015-11-08T08:37:15Z</time>
      </trkpt>
      <trkpt lat="45.94613" lon="6.22783">
        <ele>1352.71</ele>
        <time>2015-11-08T08:37:31Z</time>
      </trkpt>
      <trkpt lat="45.94623" lon="6.22785">
        <ele>1355.12</ele>
        <time>2015-11-08T08:37:43Z</time>
      </trkpt>
      <trkpt lat="45.94623" lon="6.22795">
        <ele>1358.48</ele>
        <time>2015-11-08T08:37:55Z</time>
      </trkpt>
      <trkpt lat="45.94623" lon="6.22796">
        <ele>1358.48</ele>
        <time>2015-11-08T08:38:01Z</time>
      </trkpt>
      <trkpt lat="45.94622" lon="6.22798">
        <ele>1358.48</ele>
        <time>2015-11-08T08:38:13Z</time>
      </trkpt>
      <trkpt lat="45.94621" lon="6.22799">
        <ele>1358.48</ele>
        <time>2015-11-08T08:38:31Z</time>
      </trkpt>
      <trkpt lat="45.94621" lon="6.22804">
        <ele>1358.48</ele>
        <time>2015-11-08T08:38:56Z</time>
      </trkpt>
      <trkpt lat="45.94627" lon="6.2281">
        <ele>1359.92</ele>
        <time>2015-11-08T08:39:09Z</time>
      </trkpt>
      <trkpt lat="45.94635" lon="6.22818">
        <ele>1363.29</ele>
        <time>2015-11-08T08:39:23Z</time>
      </trkpt>
      <trkpt lat="45.94644" lon="6.22825">
        <ele>1365.69</ele>
        <time>2015-11-08T08:39:38Z</time>
      </trkpt>
      <trkpt lat="45.94651" lon="6.22833">
        <ele>1369.05</ele>
        <time>2015-11-08T08:39:53Z</time>
      </trkpt>
      <trkpt lat="45.94661" lon="6.22837">
        <ele>1371.46</ele>
        <time>2015-11-08T08:40:09Z</time>
      </trkpt>
      <trkpt lat="45.9467" lon="6.22841">
        <ele>1374.82</ele>
        <time>2015-11-08T08:40:23Z</time>
      </trkpt>
      <trkpt lat="45.94676" lon="6.22855">
        <ele>1377.23</ele>
        <time>2015-11-08T08:40:41Z</time>
      </trkpt>
      <trkpt lat="45.94683" lon="6.2287">
        <ele>1380.59</ele>
        <time>2015-11-08T08:40:57Z</time>
      </trkpt>
      <trkpt lat="45.94685" lon="6.22872">
        <ele>1380.59</ele>
        <time>2015-11-08T08:40:59Z</time>
      </trkpt>
      <trkpt lat="45.94694" lon="6.22882">
        <ele>1382.99</ele>
        <time>2015-11-08T08:41:13Z</time>
      </trkpt>
      <trkpt lat="45.94699" lon="6.22888">
        <ele>1384.44</ele>
        <time>2015-11-08T08:41:23Z</time>
      </trkpt>
      <trkpt lat="45.9471" lon="6.22896">
        <ele>1386.36</ele>
        <time>2015-11-08T08:41:38Z</time>
      </trkpt>
      <trkpt lat="45.94718" lon="6.22908">
        <ele>1388.76</ele>
        <time>2015-11-08T08:41:52Z</time>
      </trkpt>
      <trkpt lat="45.94727" lon="6.22917">
        <ele>1390.2</ele>
        <time>2015-11-08T08:42:05Z</time>
      </trkpt>
      <trkpt lat="45.94738" lon="6.22927">
        <ele>1392.61</ele>
        <time>2015-11-08T08:42:20Z</time>
      </trkpt>
      <trkpt lat="45.94749" lon="6.22933">
        <ele>1395.01</ele>
        <time>2015-11-08T08:42:36Z</time>
      </trkpt>
      <trkpt lat="45.94758" lon="6.22938">
        <ele>1396.93</ele>
        <time>2015-11-08T08:42:49Z</time>
      </trkpt>
      <trkpt lat="45.94771" lon="6.22959">
        <ele>1400.3</ele>
        <time>2015-11-08T08:43:05Z</time>
      </trkpt>
      <trkpt lat="45.94777" lon="6.22972">
        <ele>1402.22</ele>
        <time>2015-11-08T08:43:20Z</time>
      </trkpt>
      <trkpt lat="45.94779" lon="6.22991">
        <ele>1403.66</ele>
        <time>2015-11-08T08:43:33Z</time>
      </trkpt>
      <trkpt lat="45.94778" lon="6.2301">
        <ele>1406.07</ele>
        <time>2015-11-08T08:43:48Z</time>
      </trkpt>
      <trkpt lat="45.94775" lon="6.23027">
        <ele>1407.51</ele>
        <time>2015-11-08T08:44:02Z</time>
      </trkpt>
      <trkpt lat="45.94767" lon="6.23046">
        <ele>1410.87</ele>
        <time>2015-11-08T08:44:20Z</time>
      </trkpt>
      <trkpt lat="45.94767" lon="6.23047">
        <ele>1410.87</ele>
        <time>2015-11-08T08:44:21Z</time>
      </trkpt>
      <trkpt lat="45.94762" lon="6.23052">
        <ele>1411.35</ele>
        <time>2015-11-08T08:44:27Z</time>
      </trkpt>
      <trkpt lat="45.94749" lon="6.23057">
        <ele>1413.28</ele>
        <time>2015-11-08T08:44:41Z</time>
      </trkpt>
      <trkpt lat="45.94738" lon="6.23058">
        <ele>1415.68</ele>
        <time>2015-11-08T08:44:57Z</time>
      </trkpt>
      <trkpt lat="45.94728" lon="6.23059">
        <ele>1418.56</ele>
        <time>2015-11-08T08:45:10Z</time>
      </trkpt>
      <trkpt lat="45.94719" lon="6.23058">
        <ele>1420.49</ele>
        <time>2015-11-08T08:45:24Z</time>
      </trkpt>
      <trkpt lat="45.94721" lon="6.23058">
        <ele>1420</ele>
        <time>2015-11-08T08:45:38Z</time>
      </trkpt>
      <trkpt lat="45.9472" lon="6.23061">
        <ele>1420.97</ele>
        <time>2015-11-08T08:45:42Z</time>
      </trkpt>
      <trkpt lat="45.94721" lon="6.23066">
        <ele>1421.93</ele>
        <time>2015-11-08T08:45:45Z</time>
      </trkpt>
      <trkpt lat="45.94721" lon="6.23074">
        <ele>1424.33</ele>
        <time>2015-11-08T08:45:51Z</time>
      </trkpt>
      <trkpt lat="45.94721" lon="6.23084">
        <ele>1427.21</ele>
        <time>2015-11-08T08:46:00Z</time>
      </trkpt>
      <trkpt lat="45.9472" lon="6.23088">
        <ele>1427.7</ele>
        <time>2015-11-08T08:46:19Z</time>
      </trkpt>
      <trkpt lat="45.94718" lon="6.23081">
        <ele>1424.33</ele>
        <time>2015-11-08T08:46:36Z</time>
      </trkpt>
      <trkpt lat="45.94719" lon="6.23078">
        <ele>1423.85</ele>
        <time>2015-11-08T08:46:39Z</time>
      </trkpt>
      <trkpt lat="45.94726" lon="6.23069">
        <ele>1419.52</ele>
        <time>2015-11-08T08:46:49Z</time>
      </trkpt>
      <trkpt lat="45.94728" lon="6.23067">
        <ele>1418.56</ele>
        <time>2015-11-08T08:46:52Z</time>
      </trkpt>
      <trkpt lat="45.9473" lon="6.23067">
        <ele>1418.08</ele>
        <time>2015-11-08T08:46:54Z</time>
      </trkpt>
      <trkpt lat="45.9474" lon="6.23083">
        <ele>1417.12</ele>
        <time>2015-11-08T08:47:06Z</time>
      </trkpt>
      <trkpt lat="45.94743" lon="6.23093">
        <ele>1419.04</ele>
        <time>2015-11-08T08:47:13Z</time>
      </trkpt>
      <trkpt lat="45.94746" lon="6.231">
        <ele>1419.04</ele>
        <time>2015-11-08T08:47:17Z</time>
      </trkpt>
      <trkpt lat="45.94749" lon="6.23108">
        <ele>1419.52</ele>
        <time>2015-11-08T08:47:21Z</time>
      </trkpt>
      <trkpt lat="45.94754" lon="6.2313">
        <ele>1420</ele>
        <time>2015-11-08T08:47:32Z</time>
      </trkpt>
      <trkpt lat="45.94753" lon="6.23157">
        <ele>1420</ele>
        <time>2015-11-08T08:47:47Z</time>
      </trkpt>
      <trkpt lat="45.94753" lon="6.23165">
        <ele>1420</ele>
        <time>2015-11-08T08:47:51Z</time>
      </trkpt>
      <trkpt lat="45.94756" lon="6.23183">
        <ele>1420</ele>
        <time>2015-11-08T08:48:00Z</time>
      </trkpt>
      <trkpt lat="45.94764" lon="6.23213">
        <ele>1420.49</ele>
        <time>2015-11-08T08:48:17Z</time>
      </trkpt>
      <trkpt lat="45.94774" lon="6.23231">
        <ele>1422.89</ele>
        <time>2015-11-08T08:48:31Z</time>
      </trkpt>
      <trkpt lat="45.94784" lon="6.23257">
        <ele>1425.29</ele>
        <time>2015-11-08T08:48:48Z</time>
      </trkpt>
      <trkpt lat="45.94788" lon="6.23273">
        <ele>1427.21</ele>
        <time>2015-11-08T08:48:59Z</time>
      </trkpt>
      <trkpt lat="45.94791" lon="6.23296">
        <ele>1429.14</ele>
        <time>2015-11-08T08:49:16Z</time>
      </trkpt>
      <trkpt lat="45.94797" lon="6.23313">
        <ele>1430.58</ele>
        <time>2015-11-08T08:49:29Z</time>
      </trkpt>
      <trkpt lat="45.94802" lon="6.23324">
        <ele>1432.02</ele>
        <time>2015-11-08T08:49:41Z</time>
      </trkpt>
      <trkpt lat="45.94806" lon="6.23335">
        <ele>1433.46</ele>
        <time>2015-11-08T08:49:55Z</time>
      </trkpt>
      <trkpt lat="45.94811" lon="6.23347">
        <ele>1435.87</ele>
        <time>2015-11-08T08:50:08Z</time>
      </trkpt>
      <trkpt lat="45.94817" lon="6.23359">
        <ele>1438.27</ele>
        <time>2015-11-08T08:50:23Z</time>
      </trkpt>
      <trkpt lat="45.94826" lon="6.2337">
        <ele>1440.19</ele>
        <time>2015-11-08T08:50:39Z</time>
      </trkpt>
      <trkpt lat="45.94835" lon="6.23381">
        <ele>1442.6</ele>
        <time>2015-11-08T08:50:53Z</time>
      </trkpt>
      <trkpt lat="45.94842" lon="6.2339">
        <ele>1444.52</ele>
        <time>2015-11-08T08:51:06Z</time>
      </trkpt>
      <trkpt lat="45.94843" lon="6.23392">
        <ele>1445</ele>
        <time>2015-11-08T08:51:08Z</time>
      </trkpt>
      <trkpt lat="45.94853" lon="6.23405">
        <ele>1446.92</ele>
        <time>2015-11-08T08:51:21Z</time>
      </trkpt>
      <trkpt lat="45.94867" lon="6.23418">
        <ele>1448.36</ele>
        <time>2015-11-08T08:51:37Z</time>
      </trkpt>
      <trkpt lat="45.94875" lon="6.23425">
        <ele>1450.77</ele>
        <time>2015-11-08T08:51:51Z</time>
      </trkpt>
      <trkpt lat="45.94881" lon="6.23435">
        <ele>1453.17</ele>
        <time>2015-11-08T08:52:06Z</time>
      </trkpt>
      <trkpt lat="45.94883" lon="6.23442">
        <ele>1455.57</ele>
        <time>2015-11-08T08:52:22Z</time>
      </trkpt>
      <trkpt lat="45.94889" lon="6.23451">
        <ele>1457.5</ele>
        <time>2015-11-08T08:52:37Z</time>
      </trkpt>
      <trkpt lat="45.94898" lon="6.23454">
        <ele>1458.46</ele>
        <time>2015-11-08T08:52:50Z</time>
      </trkpt>
      <trkpt lat="45.94907" lon="6.23463">
        <ele>1461.34</ele>
        <time>2015-11-08T08:53:03Z</time>
      </trkpt>
      <trkpt lat="45.94916" lon="6.2347">
        <ele>1464.23</ele>
        <time>2015-11-08T08:53:20Z</time>
      </trkpt>
      <trkpt lat="45.9492" lon="6.23478">
        <ele>1466.63</ele>
        <time>2015-11-08T08:53:35Z</time>
      </trkpt>
      <trkpt lat="45.94928" lon="6.23484">
        <ele>1468.55</ele>
        <time>2015-11-08T08:53:48Z</time>
      </trkpt>
      <trkpt lat="45.94934" lon="6.23492">
        <ele>1471.44</ele>
        <time>2015-11-08T08:54:02Z</time>
      </trkpt>
      <trkpt lat="45.9494" lon="6.23495">
        <ele>1473.36</ele>
        <time>2015-11-08T08:54:16Z</time>
      </trkpt>
      <trkpt lat="45.94949" lon="6.23503">
        <ele>1475.76</ele>
        <time>2015-11-08T08:54:31Z</time>
      </trkpt>
      <trkpt lat="45.94951" lon="6.23509">
        <ele>1478.16</ele>
        <time>2015-11-08T08:54:44Z</time>
      </trkpt>
      <trkpt lat="45.94962" lon="6.23512">
        <ele>1480.09</ele>
        <time>2015-11-08T08:54:59Z</time>
      </trkpt>
      <trkpt lat="45.94969" lon="6.2352">
        <ele>1482.01</ele>
        <time>2015-11-08T08:55:12Z</time>
      </trkpt>
      <trkpt lat="45.94978" lon="6.23532">
        <ele>1483.45</ele>
        <time>2015-11-08T08:55:25Z</time>
      </trkpt>
      <trkpt lat="45.94983" lon="6.23539">
        <ele>1485.37</ele>
        <time>2015-11-08T08:55:37Z</time>
      </trkpt>
      <trkpt lat="45.94991" lon="6.23546">
        <ele>1486.82</ele>
        <time>2015-11-08T08:55:49Z</time>
      </trkpt>
      <trkpt lat="45.94999" lon="6.23554">
        <ele>1489.7</ele>
        <time>2015-11-08T08:56:06Z</time>
      </trkpt>
      <trkpt lat="45.9501" lon="6.2356">
        <ele>1491.62</ele>
        <time>2015-11-08T08:56:21Z</time>
      </trkpt>
      <trkpt lat="45.95016" lon="6.23566">
        <ele>1493.55</ele>
        <time>2015-11-08T08:56:35Z</time>
      </trkpt>
      <trkpt lat="45.95021" lon="6.23573">
        <ele>1495.95</ele>
        <time>2015-11-08T08:56:47Z</time>
      </trkpt>
      <trkpt lat="45.95025" lon="6.23583">
        <ele>1498.83</ele>
        <time>2015-11-08T08:57:05Z</time>
      </trkpt>
      <trkpt lat="45.95031" lon="6.23588">
        <ele>1500.76</ele>
        <time>2015-11-08T08:57:18Z</time>
      </trkpt>
      <trkpt lat="45.9504" lon="6.23591">
        <ele>1503.16</ele>
        <time>2015-11-08T08:57:32Z</time>
      </trkpt>
      <trkpt lat="45.95046" lon="6.236">
        <ele>1506.04</ele>
        <time>2015-11-08T08:57:48Z</time>
      </trkpt>
      <trkpt lat="45.9505" lon="6.23608">
        <ele>1507.48</ele>
        <time>2015-11-08T08:58:01Z</time>
      </trkpt>
      <trkpt lat="45.95055" lon="6.23612">
        <ele>1509.89</ele>
        <time>2015-11-08T08:58:14Z</time>
      </trkpt>
      <trkpt lat="45.95062" lon="6.23618">
        <ele>1511.81</ele>
        <time>2015-11-08T08:58:30Z</time>
      </trkpt>
      <trkpt lat="45.95069" lon="6.23626">
        <ele>1514.21</ele>
        <time>2015-11-08T08:58:43Z</time>
      </trkpt>
      <trkpt lat="45.95076" lon="6.23637">
        <ele>1515.66</ele>
        <time>2015-11-08T08:58:57Z</time>
      </trkpt>
      <trkpt lat="45.95079" lon="6.23645">
        <ele>1517.58</ele>
        <time>2015-11-08T08:59:11Z</time>
      </trkpt>
      <trkpt lat="45.95084" lon="6.23656">
        <ele>1519.98</ele>
        <time>2015-11-08T08:59:25Z</time>
      </trkpt>
      <trkpt lat="45.9509" lon="6.23663">
        <ele>1521.42</ele>
        <time>2015-11-08T08:59:38Z</time>
      </trkpt>
      <trkpt lat="45.95098" lon="6.23668">
        <ele>1522.87</ele>
        <time>2015-11-08T08:59:52Z</time>
      </trkpt>
      <trkpt lat="45.951" lon="6.23669">
        <ele>1523.83</ele>
        <time>2015-11-08T09:00:10Z</time>
      </trkpt>
      <trkpt lat="45.951" lon="6.23668">
        <ele>1523.83</ele>
        <time>2015-11-08T09:00:20Z</time>
      </trkpt>
      <trkpt lat="45.95102" lon="6.23673">
        <ele>1524.79</ele>
        <time>2015-11-08T09:00:40Z</time>
      </trkpt>
      <trkpt lat="45.95104" lon="6.23676">
        <ele>1525.27</ele>
        <time>2015-11-08T09:00:53Z</time>
      </trkpt>
      <trkpt lat="45.95105" lon="6.23676">
        <ele>1525.27</ele>
        <time>2015-11-08T09:01:11Z</time>
      </trkpt>
      <trkpt lat="45.951" lon="6.23672">
        <ele>1523.35</ele>
        <time>2015-11-08T09:01:22Z</time>
      </trkpt>
      <trkpt lat="45.95096" lon="6.23675">
        <ele>1523.35</ele>
        <time>2015-11-08T09:01:53Z</time>
      </trkpt>
      <trkpt lat="45.95098" lon="6.23677">
        <ele>1524.79</ele>
        <time>2015-11-08T09:02:10Z</time>
      </trkpt>
      <trkpt lat="45.95105" lon="6.23678">
        <ele>1525.27</ele>
        <time>2015-11-08T09:02:24Z</time>
      </trkpt>
      <trkpt lat="45.9511" lon="6.23684">
        <ele>1526.23</ele>
        <time>2015-11-08T09:02:48Z</time>
      </trkpt>
      <trkpt lat="45.95104" lon="6.23685">
        <ele>1527.67</ele>
        <time>2015-11-08T09:02:58Z</time>
      </trkpt>
      <trkpt lat="45.95097" lon="6.23685">
        <ele>1530.08</ele>
        <time>2015-11-08T09:03:14Z</time>
      </trkpt>
      <trkpt lat="45.95087" lon="6.23684">
        <ele>1531.52</ele>
        <time>2015-11-08T09:03:27Z</time>
      </trkpt>
      <trkpt lat="45.95084" lon="6.23686">
        <ele>1533.44</ele>
        <time>2015-11-08T09:03:38Z</time>
      </trkpt>
      <trkpt lat="45.95089" lon="6.23694">
        <ele>1536.8</ele>
        <time>2015-11-08T09:03:52Z</time>
      </trkpt>
      <trkpt lat="45.95097" lon="6.23703">
        <ele>1539.21</ele>
        <time>2015-11-08T09:04:06Z</time>
      </trkpt>
      <trkpt lat="45.95097" lon="6.23715">
        <ele>1542.09</ele>
        <time>2015-11-08T09:04:20Z</time>
      </trkpt>
      <trkpt lat="45.95091" lon="6.23716">
        <ele>1544.01</ele>
        <time>2015-11-08T09:04:33Z</time>
      </trkpt>
      <trkpt lat="45.95089" lon="6.23718">
        <ele>1545.46</ele>
        <time>2015-11-08T09:04:42Z</time>
      </trkpt>
      <trkpt lat="45.95082" lon="6.23717">
        <ele>1546.9</ele>
        <time>2015-11-08T09:04:55Z</time>
      </trkpt>
      <trkpt lat="45.95085" lon="6.23722">
        <ele>1548.82</ele>
        <time>2015-11-08T09:05:08Z</time>
      </trkpt>
      <trkpt lat="45.95092" lon="6.2373">
        <ele>1551.71</ele>
        <time>2015-11-08T09:05:23Z</time>
      </trkpt>
      <trkpt lat="45.95085" lon="6.23732">
        <ele>1553.15</ele>
        <time>2015-11-08T09:05:33Z</time>
      </trkpt>
      <trkpt lat="45.9508" lon="6.23731">
        <ele>1553.63</ele>
        <time>2015-11-08T09:05:39Z</time>
      </trkpt>
      <trkpt lat="45.95074" lon="6.23734">
        <ele>1556.51</ele>
        <time>2015-11-08T09:05:55Z</time>
      </trkpt>
      <trkpt lat="45.95079" lon="6.23741">
        <ele>1558.92</ele>
        <time>2015-11-08T09:06:09Z</time>
      </trkpt>
      <trkpt lat="45.95081" lon="6.23747">
        <ele>1561.32</ele>
        <time>2015-11-08T09:06:24Z</time>
      </trkpt>
      <trkpt lat="45.95081" lon="6.23748">
        <ele>1561.32</ele>
        <time>2015-11-08T09:06:26Z</time>
      </trkpt>
      <trkpt lat="45.95083" lon="6.23759">
        <ele>1564.68</ele>
        <time>2015-11-08T09:06:41Z</time>
      </trkpt>
      <trkpt lat="45.95082" lon="6.23769">
        <ele>1567.09</ele>
        <time>2015-11-08T09:06:55Z</time>
      </trkpt>
      <trkpt lat="45.95081" lon="6.23778">
        <ele>1569.01</ele>
        <time>2015-11-08T09:07:08Z</time>
      </trkpt>
      <trkpt lat="45.95082" lon="6.2378">
        <ele>1570.45</ele>
        <time>2015-11-08T09:07:13Z</time>
      </trkpt>
      <trkpt lat="45.95085" lon="6.23797">
        <ele>1570.93</ele>
        <time>2015-11-08T09:07:26Z</time>
      </trkpt>
      <trkpt lat="45.95085" lon="6.23812">
        <ele>1572.37</ele>
        <time>2015-11-08T09:07:37Z</time>
      </trkpt>
      <trkpt lat="45.95086" lon="6.23814">
        <ele>1572.85</ele>
        <time>2015-11-08T09:07:38Z</time>
      </trkpt>
      <trkpt lat="45.95088" lon="6.23818">
        <ele>1572.85</ele>
        <time>2015-11-08T09:07:41Z</time>
      </trkpt>
      <trkpt lat="45.95088" lon="6.23821">
        <ele>1572.85</ele>
        <time>2015-11-08T09:07:43Z</time>
      </trkpt>
      <trkpt lat="45.95089" lon="6.23823">
        <ele>1573.33</ele>
        <time>2015-11-08T09:07:45Z</time>
      </trkpt>
      <trkpt lat="45.95094" lon="6.2384">
        <ele>1575.74</ele>
        <time>2015-11-08T09:07:59Z</time>
      </trkpt>
      <trkpt lat="45.95098" lon="6.23844">
        <ele>1575.74</ele>
        <time>2015-11-08T09:08:03Z</time>
      </trkpt>
      <trkpt lat="45.95103" lon="6.23853">
        <ele>1576.22</ele>
        <time>2015-11-08T09:08:17Z</time>
      </trkpt>
      <trkpt lat="45.95106" lon="6.23853">
        <ele>1576.22</ele>
        <time>2015-11-08T09:08:35Z</time>
      </trkpt>
      <trkpt lat="45.9511" lon="6.23873">
        <ele>1574.78</ele>
        <time>2015-11-08T09:08:47Z</time>
      </trkpt>
      <trkpt lat="45.95111" lon="6.23873">
        <ele>1574.78</ele>
        <time>2015-11-08T09:08:49Z</time>
      </trkpt>
      <trkpt lat="45.95115" lon="6.23875">
        <ele>1575.74</ele>
        <time>2015-11-08T09:08:52Z</time>
      </trkpt>
      <trkpt lat="45.95128" lon="6.23878">
        <ele>1576.7</ele>
        <time>2015-11-08T09:09:06Z</time>
      </trkpt>
      <trkpt lat="45.95137" lon="6.23883">
        <ele>1576.7</ele>
        <time>2015-11-08T09:09:17Z</time>
      </trkpt>
      <trkpt lat="45.95138" lon="6.23884">
        <ele>1576.7</ele>
        <time>2015-11-08T09:09:18Z</time>
      </trkpt>
      <trkpt lat="45.95145" lon="6.23893">
        <ele>1577.66</ele>
        <time>2015-11-08T09:09:30Z</time>
      </trkpt>
      <trkpt lat="45.95146" lon="6.23898">
        <ele>1579.58</ele>
        <time>2015-11-08T09:09:40Z</time>
      </trkpt>
      <trkpt lat="45.95146" lon="6.23903">
        <ele>1580.06</ele>
        <time>2015-11-08T09:09:58Z</time>
      </trkpt>
      <trkpt lat="45.95146" lon="6.23906">
        <ele>1582.95</ele>
        <time>2015-11-08T09:10:09Z</time>
      </trkpt>
      <trkpt lat="45.95146" lon="6.23913">
        <ele>1585.35</ele>
        <time>2015-11-08T09:10:22Z</time>
      </trkpt>
      <trkpt lat="45.95145" lon="6.23915">
        <ele>1587.75</ele>
        <time>2015-11-08T09:10:35Z</time>
      </trkpt>
      <trkpt lat="45.9514" lon="6.23911">
        <ele>1590.64</ele>
        <time>2015-11-08T09:10:51Z</time>
      </trkpt>
      <trkpt lat="45.95135" lon="6.23911">
        <ele>1593.04</ele>
        <time>2015-11-08T09:11:06Z</time>
      </trkpt>
      <trkpt lat="45.95131" lon="6.2391">
        <ele>1594.96</ele>
        <time>2015-11-08T09:11:19Z</time>
      </trkpt>
      <trkpt lat="45.95127" lon="6.23909">
        <ele>1597.85</ele>
        <time>2015-11-08T09:11:35Z</time>
      </trkpt>
      <trkpt lat="45.95127" lon="6.23915">
        <ele>1599.77</ele>
        <time>2015-11-08T09:11:48Z</time>
      </trkpt>
      <trkpt lat="45.95129" lon="6.23921">
        <ele>1601.69</ele>
        <time>2015-11-08T09:12:00Z</time>
      </trkpt>
      <trkpt lat="45.95133" lon="6.23929">
        <ele>1604.1</ele>
        <time>2015-11-08T09:12:14Z</time>
      </trkpt>
      <trkpt lat="45.95135" lon="6.23936">
        <ele>1605.06</ele>
        <time>2015-11-08T09:12:25Z</time>
      </trkpt>
      <trkpt lat="45.95132" lon="6.23936">
        <ele>1606.98</ele>
        <time>2015-11-08T09:12:36Z</time>
      </trkpt>
      <trkpt lat="45.95132" lon="6.23932">
        <ele>1607.46</ele>
        <time>2015-11-08T09:12:56Z</time>
      </trkpt>
      <trkpt lat="45.9513" lon="6.23928">
        <ele>1610.35</ele>
        <time>2015-11-08T09:13:06Z</time>
      </trkpt>
      <trkpt lat="45.95124" lon="6.23924">
        <ele>1612.75</ele>
        <time>2015-11-08T09:13:18Z</time>
      </trkpt>
      <trkpt lat="45.95119" lon="6.2392">
        <ele>1613.71</ele>
        <time>2015-11-08T09:13:36Z</time>
      </trkpt>
      <trkpt lat="45.95116" lon="6.23922">
        <ele>1616.11</ele>
        <time>2015-11-08T09:13:47Z</time>
      </trkpt>
      <trkpt lat="45.95114" lon="6.23923">
        <ele>1617.56</ele>
        <time>2015-11-08T09:13:59Z</time>
      </trkpt>
      <trkpt lat="45.95111" lon="6.23927">
        <ele>1619.48</ele>
        <time>2015-11-08T09:14:15Z</time>
      </trkpt>
      <trkpt lat="45.95105" lon="6.23925">
        <ele>1622.36</ele>
        <time>2015-11-08T09:14:28Z</time>
      </trkpt>
      <trkpt lat="45.951" lon="6.23921">
        <ele>1623.8</ele>
        <time>2015-11-08T09:14:40Z</time>
      </trkpt>
      <trkpt lat="45.95097" lon="6.23923">
        <ele>1624.77</ele>
        <time>2015-11-08T09:14:54Z</time>
      </trkpt>
      <trkpt lat="45.95094" lon="6.23924">
        <ele>1627.17</ele>
        <time>2015-11-08T09:15:07Z</time>
      </trkpt>
      <trkpt lat="45.95092" lon="6.23928">
        <ele>1629.57</ele>
        <time>2015-11-08T09:15:21Z</time>
      </trkpt>
      <trkpt lat="45.95097" lon="6.23929">
        <ele>1631.98</ele>
        <time>2015-11-08T09:15:34Z</time>
      </trkpt>
      <trkpt lat="45.951" lon="6.23926">
        <ele>1633.9</ele>
        <time>2015-11-08T09:15:48Z</time>
      </trkpt>
      <trkpt lat="45.95101" lon="6.23922">
        <ele>1635.82</ele>
        <time>2015-11-08T09:16:00Z</time>
      </trkpt>
      <trkpt lat="45.95102" lon="6.23923">
        <ele>1637.26</ele>
        <time>2015-11-08T09:16:12Z</time>
      </trkpt>
      <trkpt lat="45.95103" lon="6.23925">
        <ele>1637.74</ele>
        <time>2015-11-08T09:16:30Z</time>
      </trkpt>
      <trkpt lat="45.95102" lon="6.23926">
        <ele>1638.22</ele>
        <time>2015-11-08T09:16:32Z</time>
      </trkpt>
      <trkpt lat="45.95104" lon="6.23927">
        <ele>1639.67</ele>
        <time>2015-11-08T09:16:34Z</time>
      </trkpt>
      <trkpt lat="45.95107" lon="6.23927">
        <ele>1641.11</ele>
        <time>2015-11-08T09:16:39Z</time>
      </trkpt>
      <trkpt lat="45.95102" lon="6.23931">
        <ele>1643.03</ele>
        <time>2015-11-08T09:16:52Z</time>
      </trkpt>
      <trkpt lat="45.95107" lon="6.23934">
        <ele>1645.43</ele>
        <time>2015-11-08T09:17:04Z</time>
      </trkpt>
      <trkpt lat="45.95104" lon="6.23935">
        <ele>1647.84</ele>
        <time>2015-11-08T09:17:17Z</time>
      </trkpt>
      <trkpt lat="45.95099" lon="6.23936">
        <ele>1649.28</ele>
        <time>2015-11-08T09:17:27Z</time>
      </trkpt>
      <trkpt lat="45.95094" lon="6.2394">
        <ele>1650.72</ele>
        <time>2015-11-08T09:17:41Z</time>
      </trkpt>
      <trkpt lat="45.9509" lon="6.23943">
        <ele>1651.2</ele>
        <time>2015-11-08T09:17:54Z</time>
      </trkpt>
      <trkpt lat="45.9509" lon="6.23943">
        <ele>1651.2</ele>
        <time>2015-11-08T09:17:59Z</time>
      </trkpt>
      <trkpt lat="45.95088" lon="6.2395">
        <ele>1654.09</ele>
        <time>2015-11-08T09:18:12Z</time>
      </trkpt>
      <trkpt lat="45.95082" lon="6.23953">
        <ele>1656.49</ele>
        <time>2015-11-08T09:18:23Z</time>
      </trkpt>
      <trkpt lat="45.95082" lon="6.23954">
        <ele>1658.41</ele>
        <time>2015-11-08T09:18:35Z</time>
      </trkpt>
      <trkpt lat="45.95081" lon="6.23953">
        <ele>1658.41</ele>
        <time>2015-11-08T09:18:49Z</time>
      </trkpt>
      <trkpt lat="45.9508" lon="6.23952">
        <ele>1656.97</ele>
        <time>2015-11-08T09:19:00Z</time>
      </trkpt>
      <trkpt lat="45.95081" lon="6.23952">
        <ele>1656.97</ele>
        <time>2015-11-08T09:19:09Z</time>
      </trkpt>
      <trkpt lat="45.95083" lon="6.23955">
        <ele>1658.41</ele>
        <time>2015-11-08T09:19:11Z</time>
      </trkpt>
      <trkpt lat="45.95089" lon="6.23958">
        <ele>1662.74</ele>
        <time>2015-11-08T09:19:20Z</time>
      </trkpt>
      <trkpt lat="45.95089" lon="6.23958">
        <ele>1662.74</ele>
        <time>2015-11-08T09:19:21Z</time>
      </trkpt>
      <trkpt lat="45.95091" lon="6.23961">
        <ele>1664.66</ele>
        <time>2015-11-08T09:19:32Z</time>
      </trkpt>
      <trkpt lat="45.95094" lon="6.23952">
        <ele>1668.51</ele>
        <time>2015-11-08T09:19:44Z</time>
      </trkpt>
      <trkpt lat="45.951" lon="6.23956">
        <ele>1670.43</ele>
        <time>2015-11-08T09:19:56Z</time>
      </trkpt>
      <trkpt lat="45.95105" lon="6.2396">
        <ele>1672.35</ele>
        <time>2015-11-08T09:20:11Z</time>
      </trkpt>
      <trkpt lat="45.95113" lon="6.23966">
        <ele>1674.27</ele>
        <time>2015-11-08T09:20:25Z</time>
      </trkpt>
      <trkpt lat="45.95115" lon="6.23966">
        <ele>1675.23</ele>
        <time>2015-11-08T09:20:27Z</time>
      </trkpt>
      <trkpt lat="45.95122" lon="6.23969">
        <ele>1676.68</ele>
        <time>2015-11-08T09:20:42Z</time>
      </trkpt>
      <trkpt lat="45.95126" lon="6.2397">
        <ele>1678.12</ele>
        <time>2015-11-08T09:20:55Z</time>
      </trkpt>
      <trkpt lat="45.95132" lon="6.23969">
        <ele>1680.52</ele>
        <time>2015-11-08T09:21:08Z</time>
      </trkpt>
      <trkpt lat="45.95139" lon="6.23973">
        <ele>1682.93</ele>
        <time>2015-11-08T09:21:21Z</time>
      </trkpt>
      <trkpt lat="45.95146" lon="6.23979">
        <ele>1681</ele>
        <time>2015-11-08T09:21:31Z</time>
      </trkpt>
      <trkpt lat="45.95152" lon="6.2398">
        <ele>1679.56</ele>
        <time>2015-11-08T09:21:38Z</time>
      </trkpt>
      <trkpt lat="45.95161" lon="6.2398">
        <ele>1679.08</ele>
        <time>2015-11-08T09:21:52Z</time>
      </trkpt>
      <trkpt lat="45.95162" lon="6.23978">
        <ele>1680.52</ele>
        <time>2015-11-08T09:22:07Z</time>
      </trkpt>
      <trkpt lat="45.95164" lon="6.23977">
        <ele>1681</ele>
        <time>2015-11-08T09:22:21Z</time>
      </trkpt>
      <trkpt lat="45.95166" lon="6.23977">
        <ele>1681.96</ele>
        <time>2015-11-08T09:22:34Z</time>
      </trkpt>
      <trkpt lat="45.9517" lon="6.23978">
        <ele>1684.85</ele>
        <time>2015-11-08T09:22:46Z</time>
      </trkpt>
      <trkpt lat="45.95167" lon="6.23987">
        <ele>1687.25</ele>
        <time>2015-11-08T09:23:01Z</time>
      </trkpt>
      <trkpt lat="45.95169" lon="6.23986">
        <ele>1688.69</ele>
        <time>2015-11-08T09:23:13Z</time>
      </trkpt>
      <trkpt lat="45.95169" lon="6.23992">
        <ele>1690.62</ele>
        <time>2015-11-08T09:23:25Z</time>
      </trkpt>
      <trkpt lat="45.95164" lon="6.24001">
        <ele>1692.54</ele>
        <time>2015-11-08T09:23:38Z</time>
      </trkpt>
      <trkpt lat="45.95163" lon="6.24003">
        <ele>1693.02</ele>
        <time>2015-11-08T09:23:41Z</time>
      </trkpt>
      <trkpt lat="45.95154" lon="6.24006">
        <ele>1694.46</ele>
        <time>2015-11-08T09:23:54Z</time>
      </trkpt>
      <trkpt lat="45.95152" lon="6.24005">
        <ele>1694.46</ele>
        <time>2015-11-08T09:24:07Z</time>
      </trkpt>
      <trkpt lat="45.95148" lon="6.23999">
        <ele>1696.86</ele>
        <time>2015-11-08T09:24:20Z</time>
      </trkpt>
      <trkpt lat="45.95144" lon="6.23996">
        <ele>1698.79</ele>
        <time>2015-11-08T09:24:32Z</time>
      </trkpt>
      <trkpt lat="45.95137" lon="6.23995">
        <ele>1700.71</ele>
        <time>2015-11-08T09:24:45Z</time>
      </trkpt>
      <trkpt lat="45.95131" lon="6.23995">
        <ele>1703.11</ele>
        <time>2015-11-08T09:24:58Z</time>
      </trkpt>
      <trkpt lat="45.95133" lon="6.24001">
        <ele>1705.52</ele>
        <time>2015-11-08T09:25:14Z</time>
      </trkpt>
      <trkpt lat="45.9513" lon="6.24006">
        <ele>1707.92</ele>
        <time>2015-11-08T09:25:27Z</time>
      </trkpt>
      <trkpt lat="45.95126" lon="6.24013">
        <ele>1710.32</ele>
        <time>2015-11-08T09:25:41Z</time>
      </trkpt>
      <trkpt lat="45.95118" lon="6.24018">
        <ele>1711.76</ele>
        <time>2015-11-08T09:25:55Z</time>
      </trkpt>
      <trkpt lat="45.95113" lon="6.24024">
        <ele>1714.17</ele>
        <time>2015-11-08T09:26:08Z</time>
      </trkpt>
      <trkpt lat="45.9511" lon="6.24027">
        <ele>1715.61</ele>
        <time>2015-11-08T09:26:14Z</time>
      </trkpt>
      <trkpt lat="45.95098" lon="6.24034">
        <ele>1716.57</ele>
        <time>2015-11-08T09:26:30Z</time>
      </trkpt>
      <trkpt lat="45.95091" lon="6.24039">
        <ele>1718.49</ele>
        <time>2015-11-08T09:26:45Z</time>
      </trkpt>
      <trkpt lat="45.95082" lon="6.24046">
        <ele>1720.42</ele>
        <time>2015-11-08T09:27:01Z</time>
      </trkpt>
      <trkpt lat="45.95077" lon="6.24047">
        <ele>1721.38</ele>
        <time>2015-11-08T09:27:12Z</time>
      </trkpt>
      <trkpt lat="45.95075" lon="6.24045">
        <ele>1721.86</ele>
        <time>2015-11-08T09:27:28Z</time>
      </trkpt>
      <trkpt lat="45.95072" lon="6.24045">
        <ele>1722.34</ele>
        <time>2015-11-08T09:27:49Z</time>
      </trkpt>
      <trkpt lat="45.95067" lon="6.24047">
        <ele>1722.82</ele>
        <time>2015-11-08T09:28:01Z</time>
      </trkpt>
      <trkpt lat="45.95059" lon="6.24053">
        <ele>1724.74</ele>
        <time>2015-11-08T09:28:15Z</time>
      </trkpt>
      <trkpt lat="45.95058" lon="6.24054">
        <ele>1724.74</ele>
        <time>2015-11-08T09:28:27Z</time>
      </trkpt>
      <trkpt lat="45.95059" lon="6.24059">
        <ele>1724.74</ele>
        <time>2015-11-08T09:28:40Z</time>
      </trkpt>
      <trkpt lat="45.9506" lon="6.24058">
        <ele>1723.3</ele>
        <time>2015-11-08T09:28:51Z</time>
      </trkpt>
      <trkpt lat="45.95061" lon="6.24056">
        <ele>1723.3</ele>
        <time>2015-11-08T09:29:21Z</time>
      </trkpt>
      <trkpt lat="45.95061" lon="6.24056">
        <ele>1723.3</ele>
        <time>2015-11-08T09:29:40Z</time>
      </trkpt>
      <trkpt lat="45.95062" lon="6.24059">
        <ele>1723.3</ele>
        <time>2015-11-08T09:29:59Z</time>
      </trkpt>
      <trkpt lat="45.95063" lon="6.24058">
        <ele>1723.78</ele>
        <time>2015-11-08T09:30:05Z</time>
      </trkpt>
      <trkpt lat="45.9506" lon="6.24058">
        <ele>1724.74</ele>
        <time>2015-11-08T09:30:19Z</time>
      </trkpt>
      <trkpt lat="45.95061" lon="6.24058">
        <ele>1724.74</ele>
        <time>2015-11-08T09:30:40Z</time>
      </trkpt>
      <trkpt lat="45.95058" lon="6.24054">
        <ele>1724.74</ele>
        <time>2015-11-08T09:30:54Z</time>
      </trkpt>
      <trkpt lat="45.95058" lon="6.24053">
        <ele>1724.74</ele>
        <time>2015-11-08T09:31:14Z</time>
      </trkpt>
      <trkpt lat="45.95058" lon="6.24054">
        <ele>1725.22</ele>
        <time>2015-11-08T09:31:41Z</time>
      </trkpt>
      <trkpt lat="45.95058" lon="6.24052">
        <ele>1725.22</ele>
        <time>2015-11-08T09:32:12Z</time>
      </trkpt>
      <trkpt lat="45.95058" lon="6.24051">
        <ele>1725.22</ele>
        <time>2015-11-08T09:32:40Z</time>
      </trkpt>
      <trkpt lat="45.95057" lon="6.24055">
        <ele>1725.22</ele>
        <time>2015-11-08T09:33:22Z</time>
      </trkpt>
      <trkpt lat="45.95056" lon="6.2406">
        <ele>1725.7</ele>
        <time>2015-11-08T09:33:33Z</time>
      </trkpt>
      <trkpt lat="45.95054" lon="6.24062">
        <ele>1725.7</ele>
        <time>2015-11-08T09:33:36Z</time>
      </trkpt>
      <trkpt lat="45.9505" lon="6.24067">
        <ele>1726.67</ele>
        <time>2015-11-08T09:33:50Z</time>
      </trkpt>
      <trkpt lat="45.9505" lon="6.24064">
        <ele>1727.15</ele>
        <time>2015-11-08T09:34:00Z</time>
      </trkpt>
      <trkpt lat="45.95047" lon="6.24064">
        <ele>1727.15</ele>
        <time>2015-11-08T09:34:21Z</time>
      </trkpt>
      <trkpt lat="45.95045" lon="6.24064">
        <ele>1727.15</ele>
        <time>2015-11-08T09:34:51Z</time>
      </trkpt>
      <trkpt lat="45.95043" lon="6.24062">
        <ele>1727.15</ele>
        <time>2015-11-08T09:35:18Z</time>
      </trkpt>
      <trkpt lat="45.95046" lon="6.24062">
        <ele>1727.15</ele>
        <time>2015-11-08T09:35:41Z</time>
      </trkpt>
      <trkpt lat="45.95044" lon="6.24056">
        <ele>1727.15</ele>
        <time>2015-11-08T09:35:52Z</time>
      </trkpt>
      <trkpt lat="45.95042" lon="6.24052">
        <ele>1728.11</ele>
        <time>2015-11-08T09:36:06Z</time>
      </trkpt>
      <trkpt lat="45.95041" lon="6.24047">
        <ele>1729.07</ele>
        <time>2015-11-08T09:36:16Z</time>
      </trkpt>
      <trkpt lat="45.95033" lon="6.2404">
        <ele>1731.47</ele>
        <time>2015-11-08T09:36:30Z</time>
      </trkpt>
      <trkpt lat="45.9503" lon="6.24039">
        <ele>1731.95</ele>
        <time>2015-11-08T09:36:36Z</time>
      </trkpt>
      <trkpt lat="45.95024" lon="6.24045">
        <ele>1733.88</ele>
        <time>2015-11-08T09:36:49Z</time>
      </trkpt>
      <trkpt lat="45.95017" lon="6.24047">
        <ele>1736.28</ele>
        <time>2015-11-08T09:37:01Z</time>
      </trkpt>
      <trkpt lat="45.95012" lon="6.24046">
        <ele>1737.72</ele>
        <time>2015-11-08T09:37:09Z</time>
      </trkpt>
      <trkpt lat="45.95005" lon="6.24042">
        <ele>1738.68</ele>
        <time>2015-11-08T09:37:22Z</time>
      </trkpt>
      <trkpt lat="45.95003" lon="6.24043">
        <ele>1739.64</ele>
        <time>2015-11-08T09:37:43Z</time>
      </trkpt>
      <trkpt lat="45.95003" lon="6.24043">
        <ele>1739.64</ele>
        <time>2015-11-08T09:38:03Z</time>
      </trkpt>
      <trkpt lat="45.94999" lon="6.24043">
        <ele>1740.6</ele>
        <time>2015-11-08T09:38:12Z</time>
      </trkpt>
      <trkpt lat="45.94991" lon="6.24044">
        <ele>1742.05</ele>
        <time>2015-11-08T09:38:23Z</time>
      </trkpt>
      <trkpt lat="45.94984" lon="6.24048">
        <ele>1743.49</ele>
        <time>2015-11-08T09:38:36Z</time>
      </trkpt>
      <trkpt lat="45.94981" lon="6.24051">
        <ele>1745.41</ele>
        <time>2015-11-08T09:38:49Z</time>
      </trkpt>
      <trkpt lat="45.94974" lon="6.24055">
        <ele>1746.37</ele>
        <time>2015-11-08T09:39:01Z</time>
      </trkpt>
      <trkpt lat="45.94973" lon="6.24055">
        <ele>1746.37</ele>
        <time>2015-11-08T09:39:02Z</time>
      </trkpt>
      <trkpt lat="45.94971" lon="6.24054">
        <ele>1746.85</ele>
        <time>2015-11-08T09:39:17Z</time>
      </trkpt>
      <trkpt lat="45.94971" lon="6.24055">
        <ele>1746.85</ele>
        <time>2015-11-08T09:39:22Z</time>
      </trkpt>
      <trkpt lat="45.94968" lon="6.24056">
        <ele>1747.81</ele>
        <time>2015-11-08T09:39:25Z</time>
      </trkpt>
      <trkpt lat="45.9496" lon="6.24058">
        <ele>1750.22</ele>
        <time>2015-11-08T09:39:36Z</time>
      </trkpt>
      <trkpt lat="45.94959" lon="6.2406">
        <ele>1750.22</ele>
        <time>2015-11-08T09:39:53Z</time>
      </trkpt>
      <trkpt lat="45.94954" lon="6.2406">
        <ele>1751.66</ele>
        <time>2015-11-08T09:40:06Z</time>
      </trkpt>
      <trkpt lat="45.94945" lon="6.24064">
        <ele>1753.58</ele>
        <time>2015-11-08T09:40:18Z</time>
      </trkpt>
      <trkpt lat="45.94938" lon="6.24065">
        <ele>1754.06</ele>
        <time>2015-11-08T09:40:30Z</time>
      </trkpt>
      <trkpt lat="45.94924" lon="6.24064">
        <ele>1756.47</ele>
        <time>2015-11-08T09:40:45Z</time>
      </trkpt>
      <trkpt lat="45.94921" lon="6.24065">
        <ele>1756.47</ele>
        <time>2015-11-08T09:40:49Z</time>
      </trkpt>
      <trkpt lat="45.94907" lon="6.24061">
        <ele>1758.87</ele>
        <time>2015-11-08T09:41:04Z</time>
      </trkpt>
      <trkpt lat="45.94898" lon="6.24059">
        <ele>1759.83</ele>
        <time>2015-11-08T09:41:17Z</time>
      </trkpt>
      <trkpt lat="45.94892" lon="6.24057">
        <ele>1760.79</ele>
        <time>2015-11-08T09:41:24Z</time>
      </trkpt>
      <trkpt lat="45.94883" lon="6.24054">
        <ele>1761.75</ele>
        <time>2015-11-08T09:41:34Z</time>
      </trkpt>
      <trkpt lat="45.94881" lon="6.24052">
        <ele>1761.75</ele>
        <time>2015-11-08T09:41:36Z</time>
      </trkpt>
      <trkpt lat="45.94871" lon="6.24044">
        <ele>1764.16</ele>
        <time>2015-11-08T09:41:50Z</time>
      </trkpt>
      <trkpt lat="45.94868" lon="6.24042">
        <ele>1765.12</ele>
        <time>2015-11-08T09:41:55Z</time>
      </trkpt>
      <trkpt lat="45.94858" lon="6.24029">
        <ele>1767.04</ele>
        <time>2015-11-08T09:42:09Z</time>
      </trkpt>
      <trkpt lat="45.94853" lon="6.24011">
        <ele>1768</ele>
        <time>2015-11-08T09:42:22Z</time>
      </trkpt>
      <trkpt lat="45.94847" lon="6.24009">
        <ele>1768.48</ele>
        <time>2015-11-08T09:42:32Z</time>
      </trkpt>
      <trkpt lat="45.94835" lon="6.24012">
        <ele>1772.33</ele>
        <time>2015-11-08T09:42:47Z</time>
      </trkpt>
      <trkpt lat="45.94828" lon="6.24014">
        <ele>1773.77</ele>
        <time>2015-11-08T09:43:02Z</time>
      </trkpt>
      <trkpt lat="45.94822" lon="6.24013">
        <ele>1775.21</ele>
        <time>2015-11-08T09:43:15Z</time>
      </trkpt>
      <trkpt lat="45.94817" lon="6.24017">
        <ele>1776.17</ele>
        <time>2015-11-08T09:43:29Z</time>
      </trkpt>
      <trkpt lat="45.94818" lon="6.24018">
        <ele>1776.65</ele>
        <time>2015-11-08T09:43:52Z</time>
      </trkpt>
      <trkpt lat="45.9481" lon="6.24015">
        <ele>1777.61</ele>
        <time>2015-11-08T09:44:05Z</time>
      </trkpt>
      <trkpt lat="45.9481" lon="6.24012">
        <ele>1778.1</ele>
        <time>2015-11-08T09:44:20Z</time>
      </trkpt>
      <trkpt lat="45.9481" lon="6.24012">
        <ele>1778.1</ele>
        <time>2015-11-08T09:44:58Z</time>
      </trkpt>
      <trkpt lat="45.94804" lon="6.24012">
        <ele>1779.54</ele>
        <time>2015-11-08T09:45:14Z</time>
      </trkpt>
      <trkpt lat="45.94795" lon="6.24008">
        <ele>1781.46</ele>
        <time>2015-11-08T09:45:27Z</time>
      </trkpt>
      <trkpt lat="45.94793" lon="6.24007">
        <ele>1781.94</ele>
        <time>2015-11-08T09:45:46Z</time>
      </trkpt>
      <trkpt lat="45.94793" lon="6.24006">
        <ele>1781.94</ele>
        <time>2015-11-08T09:46:00Z</time>
      </trkpt>
      <trkpt lat="45.94786" lon="6.24">
        <ele>1783.38</ele>
        <time>2015-11-08T09:46:19Z</time>
      </trkpt>
      <trkpt lat="45.94776" lon="6.23997">
        <ele>1785.79</ele>
        <time>2015-11-08T09:46:35Z</time>
      </trkpt>
      <trkpt lat="45.94766" lon="6.23998">
        <ele>1788.19</ele>
        <time>2015-11-08T09:46:51Z</time>
      </trkpt>
      <trkpt lat="45.94759" lon="6.23996">
        <ele>1789.63</ele>
        <time>2015-11-08T09:47:03Z</time>
      </trkpt>
      <trkpt lat="45.94762" lon="6.23987">
        <ele>1791.55</ele>
        <time>2015-11-08T09:47:15Z</time>
      </trkpt>
      <trkpt lat="45.94766" lon="6.23975">
        <ele>1794.44</ele>
        <time>2015-11-08T09:47:30Z</time>
      </trkpt>
      <trkpt lat="45.94763" lon="6.23968">
        <ele>1797.32</ele>
        <time>2015-11-08T09:47:43Z</time>
      </trkpt>
      <trkpt lat="45.94763" lon="6.23959">
        <ele>1798.76</ele>
        <time>2015-11-08T09:47:54Z</time>
      </trkpt>
      <trkpt lat="45.94764" lon="6.23949">
        <ele>1801.65</ele>
        <time>2015-11-08T09:48:09Z</time>
      </trkpt>
      <trkpt lat="45.94758" lon="6.23944">
        <ele>1804.05</ele>
        <time>2015-11-08T09:48:22Z</time>
      </trkpt>
      <trkpt lat="45.94754" lon="6.2394">
        <ele>1806.94</ele>
        <time>2015-11-08T09:48:35Z</time>
      </trkpt>
      <trkpt lat="45.94748" lon="6.23938">
        <ele>1809.34</ele>
        <time>2015-11-08T09:48:48Z</time>
      </trkpt>
      <trkpt lat="45.94745" lon="6.2393">
        <ele>1811.26</ele>
        <time>2015-11-08T09:48:55Z</time>
      </trkpt>
      <trkpt lat="45.94746" lon="6.23924">
        <ele>1811.74</ele>
        <time>2015-11-08T09:49:00Z</time>
      </trkpt>
      <trkpt lat="45.9475" lon="6.23917">
        <ele>1813.66</ele>
        <time>2015-11-08T09:49:09Z</time>
      </trkpt>
      <trkpt lat="45.94752" lon="6.23909">
        <ele>1814.15</ele>
        <time>2015-11-08T09:49:22Z</time>
      </trkpt>
      <trkpt lat="45.94755" lon="6.23906">
        <ele>1814.15</ele>
        <time>2015-11-08T09:49:38Z</time>
      </trkpt>
      <trkpt lat="45.94756" lon="6.23898">
        <ele>1812.22</ele>
        <time>2015-11-08T09:49:43Z</time>
      </trkpt>
      <trkpt lat="45.94756" lon="6.23891">
        <ele>1812.22</ele>
        <time>2015-11-08T09:49:47Z</time>
      </trkpt>
      <trkpt lat="45.94758" lon="6.23883">
        <ele>1812.22</ele>
        <time>2015-11-08T09:50:00Z</time>
      </trkpt>
      <trkpt lat="45.94761" lon="6.23875">
        <ele>1813.66</ele>
        <time>2015-11-08T09:50:08Z</time>
      </trkpt>
      <trkpt lat="45.94762" lon="6.23873">
        <ele>1814.63</ele>
        <time>2015-11-08T09:50:12Z</time>
      </trkpt>
      <trkpt lat="45.94761" lon="6.23863">
        <ele>1816.55</ele>
        <time>2015-11-08T09:50:22Z</time>
      </trkpt>
      <trkpt lat="45.94765" lon="6.23855">
        <ele>1817.03</ele>
        <time>2015-11-08T09:50:29Z</time>
      </trkpt>
      <trkpt lat="45.9477" lon="6.23847">
        <ele>1818.95</ele>
        <time>2015-11-08T09:50:40Z</time>
      </trkpt>
      <trkpt lat="45.94773" lon="6.23838">
        <ele>1820.87</ele>
        <time>2015-11-08T09:50:51Z</time>
      </trkpt>
      <trkpt lat="45.94769" lon="6.23828">
        <ele>1820.87</ele>
        <time>2015-11-08T09:51:03Z</time>
      </trkpt>
      <trkpt lat="45.94768" lon="6.23817">
        <ele>1820.87</ele>
        <time>2015-11-08T09:51:17Z</time>
      </trkpt>
      <trkpt lat="45.94769" lon="6.23814">
        <ele>1820.87</ele>
        <time>2015-11-08T09:51:33Z</time>
      </trkpt>
      <trkpt lat="45.94769" lon="6.23814">
        <ele>1821.35</ele>
        <time>2015-11-08T09:52:06Z</time>
      </trkpt>
      <trkpt lat="45.94775" lon="6.23815">
        <ele>1821.35</ele>
        <time>2015-11-08T09:52:17Z</time>
      </trkpt>
      <trkpt lat="45.94782" lon="6.23815">
        <ele>1822.8</ele>
        <time>2015-11-08T09:52:31Z</time>
      </trkpt>
      <trkpt lat="45.94783" lon="6.23816">
        <ele>1822.8</ele>
        <time>2015-11-08T09:52:47Z</time>
      </trkpt>
      <trkpt lat="45.94785" lon="6.23816">
        <ele>1822.8</ele>
        <time>2015-11-08T09:52:55Z</time>
      </trkpt>
      <trkpt lat="45.9479" lon="6.23807">
        <ele>1822.8</ele>
        <time>2015-11-08T09:53:07Z</time>
      </trkpt>
      <trkpt lat="45.94791" lon="6.23808">
        <ele>1822.8</ele>
        <time>2015-11-08T09:53:25Z</time>
      </trkpt>
      <trkpt lat="45.94791" lon="6.23808">
        <ele>1822.8</ele>
        <time>2015-11-08T09:54:00Z</time>
      </trkpt>
      <trkpt lat="45.94791" lon="6.23807">
        <ele>1823.28</ele>
        <time>2015-11-08T09:54:34Z</time>
      </trkpt>
      <trkpt lat="45.94791" lon="6.23807">
        <ele>1823.28</ele>
        <time>2015-11-08T09:55:06Z</time>
      </trkpt>
      <trkpt lat="45.94791" lon="6.23808">
        <ele>1823.28</ele>
        <time>2015-11-08T09:55:35Z</time>
      </trkpt>
      <trkpt lat="45.94788" lon="6.2381">
        <ele>1822.32</ele>
        <time>2015-11-08T09:55:52Z</time>
      </trkpt>
      <trkpt lat="45.94788" lon="6.2381">
        <ele>1820.87</ele>
        <time>2015-11-08T09:56:02Z</time>
      </trkpt>
      <trkpt lat="45.94787" lon="6.23809">
        <ele>1820.87</ele>
        <time>2015-11-08T09:56:38Z</time>
      </trkpt>
      <trkpt lat="45.94787" lon="6.23809">
        <ele>1820.87</ele>
        <time>2015-11-08T09:57:13Z</time>
      </trkpt>
      <trkpt lat="45.94788" lon="6.23809">
        <ele>1820.87</ele>
        <time>2015-11-08T09:57:51Z</time>
      </trkpt>
      <trkpt lat="45.94789" lon="6.23809">
        <ele>1821.35</ele>
        <time>2015-11-08T09:58:32Z</time>
      </trkpt>
      <trkpt lat="45.94788" lon="6.23809">
        <ele>1821.35</ele>
        <time>2015-11-08T09:59:13Z</time>
      </trkpt>
      <trkpt lat="45.94788" lon="6.23809">
        <ele>1821.35</ele>
        <time>2015-11-08T09:59:36Z</time>
      </trkpt>
      <trkpt lat="45.94788" lon="6.23808">
        <ele>1821.35</ele>
        <time>2015-11-08T10:00:12Z</time>
      </trkpt>
      <trkpt lat="45.94788" lon="6.23808">
        <ele>1821.84</ele>
        <time>2015-11-08T10:00:32Z</time>
      </trkpt>
      <trkpt lat="45.94788" lon="6.23808">
        <ele>1821.84</ele>
        <time>2015-11-08T10:00:55Z</time>
      </trkpt>
      <trkpt lat="45.94787" lon="6.23809">
        <ele>1821.84</ele>
        <time>2015-11-08T10:01:25Z</time>
      </trkpt>
      <trkpt lat="45.94787" lon="6.23809">
        <ele>1821.84</ele>
        <time>2015-11-08T10:01:58Z</time>
      </trkpt>
      <trkpt lat="45.94787" lon="6.23808">
        <ele>1822.32</ele>
        <time>2015-11-08T10:02:20Z</time>
      </trkpt>
      <trkpt lat="45.94788" lon="6.23808">
        <ele>1822.32</ele>
        <time>2015-11-08T10:02:46Z</time>
      </trkpt>
      <trkpt lat="45.94788" lon="6.23809">
        <ele>1822.32</ele>
        <time>2015-11-08T10:03:12Z</time>
      </trkpt>
      <trkpt lat="45.94788" lon="6.23808">
        <ele>1822.32</ele>
        <time>2015-11-08T10:03:48Z</time>
      </trkpt>
      <trkpt lat="45.94788" lon="6.23808">
        <ele>1822.8</ele>
        <time>2015-11-08T10:04:22Z</time>
      </trkpt>
      <trkpt lat="45.94788" lon="6.23809">
        <ele>1822.8</ele>
        <time>2015-11-08T10:04:42Z</time>
      </trkpt>
      <trkpt lat="45.94788" lon="6.23809">
        <ele>1822.8</ele>
        <time>2015-11-08T10:05:15Z</time>
      </trkpt>
      <trkpt lat="45.94788" lon="6.23809">
        <ele>1824.24</ele>
        <time>2015-11-08T10:05:34Z</time>
      </trkpt>
      <trkpt lat="45.94787" lon="6.2381">
        <ele>1824.72</ele>
        <time>2015-11-08T10:05:50Z</time>
      </trkpt>
      <trkpt lat="45.94787" lon="6.23814">
        <ele>1824.72</ele>
        <time>2015-11-08T10:06:15Z</time>
      </trkpt>
      <trkpt lat="45.94786" lon="6.23819">
        <ele>1825.2</ele>
        <time>2015-11-08T10:06:26Z</time>
      </trkpt>
      <trkpt lat="45.94785" lon="6.2382">
        <ele>1825.2</ele>
        <time>2015-11-08T10:07:03Z</time>
      </trkpt>
      <trkpt lat="45.94785" lon="6.23819">
        <ele>1825.68</ele>
        <time>2015-11-08T10:07:44Z</time>
      </trkpt>
      <trkpt lat="45.9478" lon="6.23819">
        <ele>1825.68</ele>
        <time>2015-11-08T10:07:55Z</time>
      </trkpt>
      <trkpt lat="45.94778" lon="6.23827">
        <ele>1825.68</ele>
        <time>2015-11-08T10:08:03Z</time>
      </trkpt>
      <trkpt lat="45.94776" lon="6.23828">
        <ele>1824.24</ele>
        <time>2015-11-08T10:08:06Z</time>
      </trkpt>
      <trkpt lat="45.94774" lon="6.2383">
        <ele>1824.24</ele>
        <time>2015-11-08T10:08:08Z</time>
      </trkpt>
      <trkpt lat="45.9477" lon="6.23835">
        <ele>1823.76</ele>
        <time>2015-11-08T10:08:14Z</time>
      </trkpt>
      <trkpt lat="45.94768" lon="6.23837">
        <ele>1823.28</ele>
        <time>2015-11-08T10:08:17Z</time>
      </trkpt>
      <trkpt lat="45.94763" lon="6.23845">
        <ele>1821.84</ele>
        <time>2015-11-08T10:08:29Z</time>
      </trkpt>
      <trkpt lat="45.94762" lon="6.2385">
        <ele>1820.87</ele>
        <time>2015-11-08T10:08:36Z</time>
      </trkpt>
      <trkpt lat="45.9476" lon="6.2386">
        <ele>1819.43</ele>
        <time>2015-11-08T10:08:43Z</time>
      </trkpt>
      <trkpt lat="45.94761" lon="6.23874">
        <ele>1817.51</ele>
        <time>2015-11-08T10:09:00Z</time>
      </trkpt>
      <trkpt lat="45.9476" lon="6.23883">
        <ele>1816.07</ele>
        <time>2015-11-08T10:09:11Z</time>
      </trkpt>
      <trkpt lat="45.94756" lon="6.23892">
        <ele>1815.59</ele>
        <time>2015-11-08T10:09:18Z</time>
      </trkpt>
      <trkpt lat="45.94747" lon="6.239">
        <ele>1817.03</ele>
        <time>2015-11-08T10:09:30Z</time>
      </trkpt>
      <trkpt lat="45.94739" lon="6.23908">
        <ele>1817.03</ele>
        <time>2015-11-08T10:09:43Z</time>
      </trkpt>
      <trkpt lat="45.94737" lon="6.23911">
        <ele>1815.59</ele>
        <time>2015-11-08T10:09:46Z</time>
      </trkpt>
      <trkpt lat="45.94736" lon="6.23916">
        <ele>1815.59</ele>
        <time>2015-11-08T10:09:50Z</time>
      </trkpt>
      <trkpt lat="45.94729" lon="6.23934">
        <ele>1814.63</ele>
        <time>2015-11-08T10:10:03Z</time>
      </trkpt>
      <trkpt lat="45.94727" lon="6.23942">
        <ele>1814.63</ele>
        <time>2015-11-08T10:10:10Z</time>
      </trkpt>
      <trkpt lat="45.94708" lon="6.23954">
        <ele>1814.15</ele>
        <time>2015-11-08T10:10:28Z</time>
      </trkpt>
      <trkpt lat="45.94694" lon="6.23954">
        <ele>1815.59</ele>
        <time>2015-11-08T10:10:40Z</time>
      </trkpt>
      <trkpt lat="45.94685" lon="6.2395">
        <ele>1816.55</ele>
        <time>2015-11-08T10:10:51Z</time>
      </trkpt>
      <trkpt lat="45.9467" lon="6.23959">
        <ele>1818.47</ele>
        <time>2015-11-08T10:11:07Z</time>
      </trkpt>
      <trkpt lat="45.94663" lon="6.23962">
        <ele>1818.47</ele>
        <time>2015-11-08T10:11:13Z</time>
      </trkpt>
      <trkpt lat="45.94657" lon="6.23961">
        <ele>1818.47</ele>
        <time>2015-11-08T10:11:20Z</time>
      </trkpt>
      <trkpt lat="45.9465" lon="6.23957">
        <ele>1817.99</ele>
        <time>2015-11-08T10:11:27Z</time>
      </trkpt>
      <trkpt lat="45.94648" lon="6.23953">
        <ele>1817.03</ele>
        <time>2015-11-08T10:11:31Z</time>
      </trkpt>
      <trkpt lat="45.94638" lon="6.23945">
        <ele>1816.07</ele>
        <time>2015-11-08T10:11:41Z</time>
      </trkpt>
      <trkpt lat="45.94624" lon="6.23944">
        <ele>1815.11</ele>
        <time>2015-11-08T10:11:53Z</time>
      </trkpt>
      <trkpt lat="45.94621" lon="6.23954">
        <ele>1815.11</ele>
        <time>2015-11-08T10:12:02Z</time>
      </trkpt>
      <trkpt lat="45.94621" lon="6.23956">
        <ele>1816.55</ele>
        <time>2015-11-08T10:12:04Z</time>
      </trkpt>
      <trkpt lat="45.9462" lon="6.23976">
        <ele>1818.47</ele>
        <time>2015-11-08T10:12:19Z</time>
      </trkpt>
      <trkpt lat="45.9462" lon="6.23982">
        <ele>1818.95</ele>
        <time>2015-11-08T10:12:24Z</time>
      </trkpt>
      <trkpt lat="45.94616" lon="6.24003">
        <ele>1819.43</ele>
        <time>2015-11-08T10:12:41Z</time>
      </trkpt>
      <trkpt lat="45.94614" lon="6.24016">
        <ele>1817.99</ele>
        <time>2015-11-08T10:12:56Z</time>
      </trkpt>
      <trkpt lat="45.94615" lon="6.24017">
        <ele>1817.99</ele>
        <time>2015-11-08T10:13:33Z</time>
      </trkpt>
      <trkpt lat="45.94613" lon="6.24017">
        <ele>1817.99</ele>
        <time>2015-11-08T10:14:00Z</time>
      </trkpt>
      <trkpt lat="45.94613" lon="6.24017">
        <ele>1817.99</ele>
        <time>2015-11-08T10:14:26Z</time>
      </trkpt>
      <trkpt lat="45.94607" lon="6.2402">
        <ele>1817.51</ele>
        <time>2015-11-08T10:14:47Z</time>
      </trkpt>
      <trkpt lat="45.94603" lon="6.24023">
        <ele>1817.03</ele>
        <time>2015-11-08T10:14:51Z</time>
      </trkpt>
      <trkpt lat="45.94594" lon="6.24025">
        <ele>1816.55</ele>
        <time>2015-11-08T10:15:05Z</time>
      </trkpt>
      <trkpt lat="45.94584" lon="6.24023">
        <ele>1815.11</ele>
        <time>2015-11-08T10:15:18Z</time>
      </trkpt>
      <trkpt lat="45.94578" lon="6.24028">
        <ele>1814.15</ele>
        <time>2015-11-08T10:15:30Z</time>
      </trkpt>
      <trkpt lat="45.94572" lon="6.24032">
        <ele>1812.7</ele>
        <time>2015-11-08T10:15:41Z</time>
      </trkpt>
      <trkpt lat="45.94567" lon="6.2404">
        <ele>1811.26</ele>
        <time>2015-11-08T10:15:50Z</time>
      </trkpt>
      <trkpt lat="45.9456" lon="6.24047">
        <ele>1809.82</ele>
        <time>2015-11-08T10:15:59Z</time>
      </trkpt>
      <trkpt lat="45.94556" lon="6.24048">
        <ele>1808.86</ele>
        <time>2015-11-08T10:16:13Z</time>
      </trkpt>
      <trkpt lat="45.94552" lon="6.24052">
        <ele>1807.42</ele>
        <time>2015-11-08T10:16:29Z</time>
      </trkpt>
      <trkpt lat="45.94552" lon="6.24063">
        <ele>1805.49</ele>
        <time>2015-11-08T10:16:43Z</time>
      </trkpt>
      <trkpt lat="45.94558" lon="6.24064">
        <ele>1804.05</ele>
        <time>2015-11-08T10:16:49Z</time>
      </trkpt>
      <trkpt lat="45.94567" lon="6.24064">
        <ele>1802.13</ele>
        <time>2015-11-08T10:17:02Z</time>
      </trkpt>
      <trkpt lat="45.94575" lon="6.24076">
        <ele>1800.69</ele>
        <time>2015-11-08T10:17:15Z</time>
      </trkpt>
      <trkpt lat="45.94581" lon="6.2409">
        <ele>1801.65</ele>
        <time>2015-11-08T10:17:29Z</time>
      </trkpt>
      <trkpt lat="45.94583" lon="6.24098">
        <ele>1798.76</ele>
        <time>2015-11-08T10:17:40Z</time>
      </trkpt>
      <trkpt lat="45.94587" lon="6.24103">
        <ele>1797.32</ele>
        <time>2015-11-08T10:17:51Z</time>
      </trkpt>
      <trkpt lat="45.94588" lon="6.24106">
        <ele>1797.32</ele>
        <time>2015-11-08T10:17:54Z</time>
      </trkpt>
      <trkpt lat="45.9458" lon="6.24109">
        <ele>1794.92</ele>
        <time>2015-11-08T10:18:08Z</time>
      </trkpt>
      <trkpt lat="45.94576" lon="6.24112">
        <ele>1793</ele>
        <time>2015-11-08T10:18:22Z</time>
      </trkpt>
      <trkpt lat="45.94574" lon="6.24117">
        <ele>1790.11</ele>
        <time>2015-11-08T10:18:34Z</time>
      </trkpt>
      <trkpt lat="45.94572" lon="6.24122">
        <ele>1788.67</ele>
        <time>2015-11-08T10:18:42Z</time>
      </trkpt>
      <trkpt lat="45.94563" lon="6.24137">
        <ele>1787.71</ele>
        <time>2015-11-08T10:18:57Z</time>
      </trkpt>
      <trkpt lat="45.94561" lon="6.24145">
        <ele>1786.75</ele>
        <time>2015-11-08T10:19:05Z</time>
      </trkpt>
      <trkpt lat="45.94561" lon="6.24152">
        <ele>1785.31</ele>
        <time>2015-11-08T10:19:10Z</time>
      </trkpt>
      <trkpt lat="45.94553" lon="6.24158">
        <ele>1785.31</ele>
        <time>2015-11-08T10:19:18Z</time>
      </trkpt>
      <trkpt lat="45.94549" lon="6.24172">
        <ele>1786.27</ele>
        <time>2015-11-08T10:19:33Z</time>
      </trkpt>
      <trkpt lat="45.94549" lon="6.24183">
        <ele>1788.67</ele>
        <time>2015-11-08T10:19:48Z</time>
      </trkpt>
      <trkpt lat="45.94543" lon="6.24199">
        <ele>1789.63</ele>
        <time>2015-11-08T10:20:03Z</time>
      </trkpt>
      <trkpt lat="45.9454" lon="6.24205">
        <ele>1789.63</ele>
        <time>2015-11-08T10:20:10Z</time>
      </trkpt>
      <trkpt lat="45.94538" lon="6.24206">
        <ele>1789.63</ele>
        <time>2015-11-08T10:20:12Z</time>
      </trkpt>
      <trkpt lat="45.94529" lon="6.24217">
        <ele>1790.59</ele>
        <time>2015-11-08T10:20:27Z</time>
      </trkpt>
      <trkpt lat="45.94522" lon="6.24222">
        <ele>1789.15</ele>
        <time>2015-11-08T10:20:38Z</time>
      </trkpt>
      <trkpt lat="45.94519" lon="6.24222">
        <ele>1788.67</ele>
        <time>2015-11-08T10:20:44Z</time>
      </trkpt>
      <trkpt lat="45.94517" lon="6.24224">
        <ele>1787.71</ele>
        <time>2015-11-08T10:20:48Z</time>
      </trkpt>
      <trkpt lat="45.94512" lon="6.24225">
        <ele>1787.23</ele>
        <time>2015-11-08T10:21:00Z</time>
      </trkpt>
      <trkpt lat="45.94509" lon="6.24228">
        <ele>1786.75</ele>
        <time>2015-11-08T10:21:07Z</time>
      </trkpt>
      <trkpt lat="45.94498" lon="6.24233">
        <ele>1784.82</ele>
        <time>2015-11-08T10:21:17Z</time>
      </trkpt>
      <trkpt lat="45.94494" lon="6.24232">
        <ele>1784.82</ele>
        <time>2015-11-08T10:21:21Z</time>
      </trkpt>
      <trkpt lat="45.94482" lon="6.24247">
        <ele>1785.31</ele>
        <time>2015-11-08T10:21:37Z</time>
      </trkpt>
      <trkpt lat="45.94479" lon="6.24254">
        <ele>1787.23</ele>
        <time>2015-11-08T10:21:47Z</time>
      </trkpt>
      <trkpt lat="45.94475" lon="6.24265">
        <ele>1790.11</ele>
        <time>2015-11-08T10:22:02Z</time>
      </trkpt>
      <trkpt lat="45.94476" lon="6.24271">
        <ele>1790.59</ele>
        <time>2015-11-08T10:22:08Z</time>
      </trkpt>
      <trkpt lat="45.94477" lon="6.24289">
        <ele>1791.55</ele>
        <time>2015-11-08T10:22:23Z</time>
      </trkpt>
      <trkpt lat="45.94475" lon="6.24299">
        <ele>1793.96</ele>
        <time>2015-11-08T10:22:36Z</time>
      </trkpt>
      <trkpt lat="45.94471" lon="6.24305">
        <ele>1795.4</ele>
        <time>2015-11-08T10:22:51Z</time>
      </trkpt>
      <trkpt lat="45.94471" lon="6.24313">
        <ele>1797.32</ele>
        <time>2015-11-08T10:23:05Z</time>
      </trkpt>
      <trkpt lat="45.94471" lon="6.24323">
        <ele>1799.24</ele>
        <time>2015-11-08T10:23:20Z</time>
      </trkpt>
      <trkpt lat="45.94468" lon="6.24316">
        <ele>1801.17</ele>
        <time>2015-11-08T10:23:32Z</time>
      </trkpt>
      <trkpt lat="45.94466" lon="6.24314">
        <ele>1801.17</ele>
        <time>2015-11-08T10:23:42Z</time>
      </trkpt>
      <trkpt lat="45.94458" lon="6.243">
        <ele>1803.57</ele>
        <time>2015-11-08T10:23:57Z</time>
      </trkpt>
      <trkpt lat="45.94452" lon="6.2429">
        <ele>1805.01</ele>
        <time>2015-11-08T10:24:08Z</time>
      </trkpt>
      <trkpt lat="45.94447" lon="6.24283">
        <ele>1805.97</ele>
        <time>2015-11-08T10:24:15Z</time>
      </trkpt>
      <trkpt lat="45.94437" lon="6.24275">
        <ele>1807.42</ele>
        <time>2015-11-08T10:24:30Z</time>
      </trkpt>
      <trkpt lat="45.94429" lon="6.24273">
        <ele>1810.78</ele>
        <time>2015-11-08T10:24:46Z</time>
      </trkpt>
      <trkpt lat="45.94423" lon="6.24269">
        <ele>1812.22</ele>
        <time>2015-11-08T10:25:00Z</time>
      </trkpt>
      <trkpt lat="45.9442" lon="6.2427">
        <ele>1813.66</ele>
        <time>2015-11-08T10:25:12Z</time>
      </trkpt>
      <trkpt lat="45.94415" lon="6.24274">
        <ele>1816.07</ele>
        <time>2015-11-08T10:25:29Z</time>
      </trkpt>
      <trkpt lat="45.94415" lon="6.24281">
        <ele>1817.99</ele>
        <time>2015-11-08T10:25:44Z</time>
      </trkpt>
      <trkpt lat="45.94415" lon="6.24292">
        <ele>1820.87</ele>
        <time>2015-11-08T10:25:57Z</time>
      </trkpt>
      <trkpt lat="45.94415" lon="6.24293">
        <ele>1820.87</ele>
        <time>2015-11-08T10:25:58Z</time>
      </trkpt>
      <trkpt lat="45.94414" lon="6.24308">
        <ele>1822.32</ele>
        <time>2015-11-08T10:26:13Z</time>
      </trkpt>
      <trkpt lat="45.94409" lon="6.24317">
        <ele>1823.28</ele>
        <time>2015-11-08T10:26:26Z</time>
      </trkpt>
      <trkpt lat="45.94408" lon="6.24318">
        <ele>1823.76</ele>
        <time>2015-11-08T10:26:29Z</time>
      </trkpt>
      <trkpt lat="45.94397" lon="6.24328">
        <ele>1825.2</ele>
        <time>2015-11-08T10:26:43Z</time>
      </trkpt>
      <trkpt lat="45.94391" lon="6.24335">
        <ele>1827.12</ele>
        <time>2015-11-08T10:26:57Z</time>
      </trkpt>
      <trkpt lat="45.9439" lon="6.24336">
        <ele>1827.12</ele>
        <time>2015-11-08T10:26:58Z</time>
      </trkpt>
      <trkpt lat="45.9439" lon="6.24338">
        <ele>1827.12</ele>
        <time>2015-11-08T10:27:00Z</time>
      </trkpt>
      <trkpt lat="45.94386" lon="6.24346">
        <ele>1827.12</ele>
        <time>2015-11-08T10:27:08Z</time>
      </trkpt>
      <trkpt lat="45.94383" lon="6.24361">
        <ele>1828.56</ele>
        <time>2015-11-08T10:27:21Z</time>
      </trkpt>
      <trkpt lat="45.94378" lon="6.24366">
        <ele>1829.53</ele>
        <time>2015-11-08T10:27:35Z</time>
      </trkpt>
      <trkpt lat="45.94373" lon="6.24377">
        <ele>1831.45</ele>
        <time>2015-11-08T10:27:49Z</time>
      </trkpt>
      <trkpt lat="45.94372" lon="6.24379">
        <ele>1831.45</ele>
        <time>2015-11-08T10:27:51Z</time>
      </trkpt>
      <trkpt lat="45.9436" lon="6.2439">
        <ele>1831.93</ele>
        <time>2015-11-08T10:28:07Z</time>
      </trkpt>
      <trkpt lat="45.94356" lon="6.24392">
        <ele>1832.41</ele>
        <time>2015-11-08T10:28:13Z</time>
      </trkpt>
      <trkpt lat="45.94355" lon="6.24394">
        <ele>1832.41</ele>
        <time>2015-11-08T10:28:15Z</time>
      </trkpt>
      <trkpt lat="45.94341" lon="6.24404">
        <ele>1832.41</ele>
        <time>2015-11-08T10:28:28Z</time>
      </trkpt>
      <trkpt lat="45.9434" lon="6.24406">
        <ele>1832.41</ele>
        <time>2015-11-08T10:28:30Z</time>
      </trkpt>
      <trkpt lat="45.94338" lon="6.24406">
        <ele>1832.41</ele>
        <time>2015-11-08T10:28:32Z</time>
      </trkpt>
      <trkpt lat="45.94334" lon="6.24411">
        <ele>1833.37</ele>
        <time>2015-11-08T10:28:37Z</time>
      </trkpt>
      <trkpt lat="45.94315" lon="6.24422">
        <ele>1833.37</ele>
        <time>2015-11-08T10:28:54Z</time>
      </trkpt>
      <trkpt lat="45.94299" lon="6.24432">
        <ele>1834.33</ele>
        <time>2015-11-08T10:29:09Z</time>
      </trkpt>
      <trkpt lat="45.94284" lon="6.24438">
        <ele>1835.29</ele>
        <time>2015-11-08T10:29:23Z</time>
      </trkpt>
      <trkpt lat="45.94268" lon="6.24452">
        <ele>1836.26</ele>
        <time>2015-11-08T10:29:42Z</time>
      </trkpt>
      <trkpt lat="45.94257" lon="6.24462">
        <ele>1836.26</ele>
        <time>2015-11-08T10:29:54Z</time>
      </trkpt>
      <trkpt lat="45.94249" lon="6.24478">
        <ele>1836.74</ele>
        <time>2015-11-08T10:30:09Z</time>
      </trkpt>
      <trkpt lat="45.94245" lon="6.24482">
        <ele>1838.18</ele>
        <time>2015-11-08T10:30:15Z</time>
      </trkpt>
      <trkpt lat="45.94236" lon="6.24485">
        <ele>1838.66</ele>
        <time>2015-11-08T10:30:25Z</time>
      </trkpt>
      <trkpt lat="45.9423" lon="6.24486">
        <ele>1838.66</ele>
        <time>2015-11-08T10:30:30Z</time>
      </trkpt>
      <trkpt lat="45.94216" lon="6.24495">
        <ele>1838.66</ele>
        <time>2015-11-08T10:30:48Z</time>
      </trkpt>
      <trkpt lat="45.94209" lon="6.24503">
        <ele>1841.54</ele>
        <time>2015-11-08T10:31:03Z</time>
      </trkpt>
      <trkpt lat="45.94204" lon="6.24509">
        <ele>1844.43</ele>
        <time>2015-11-08T10:31:16Z</time>
      </trkpt>
      <trkpt lat="45.94203" lon="6.24514">
        <ele>1845.39</ele>
        <time>2015-11-08T10:31:24Z</time>
      </trkpt>
      <trkpt lat="45.94198" lon="6.24524">
        <ele>1845.87</ele>
        <time>2015-11-08T10:31:33Z</time>
      </trkpt>
      <trkpt lat="45.94192" lon="6.24529">
        <ele>1845.87</ele>
        <time>2015-11-08T10:31:40Z</time>
      </trkpt>
      <trkpt lat="45.94184" lon="6.24541">
        <ele>1846.35</ele>
        <time>2015-11-08T10:31:53Z</time>
      </trkpt>
      <trkpt lat="45.94176" lon="6.2455">
        <ele>1846.83</ele>
        <time>2015-11-08T10:32:08Z</time>
      </trkpt>
      <trkpt lat="45.94172" lon="6.24551">
        <ele>1848.75</ele>
        <time>2015-11-08T10:32:22Z</time>
      </trkpt>
      <trkpt lat="45.94171" lon="6.24549">
        <ele>1848.27</ele>
        <time>2015-11-08T10:32:39Z</time>
      </trkpt>
      <trkpt lat="45.94171" lon="6.2455">
        <ele>1848.75</ele>
        <time>2015-11-08T10:33:12Z</time>
      </trkpt>
      <trkpt lat="45.94169" lon="6.24547">
        <ele>1849.71</ele>
        <time>2015-11-08T10:33:23Z</time>
      </trkpt>
      <trkpt lat="45.94169" lon="6.24548">
        <ele>1849.71</ele>
        <time>2015-11-08T10:33:44Z</time>
      </trkpt>
      <trkpt lat="45.94169" lon="6.2455">
        <ele>1849.71</ele>
        <time>2015-11-08T10:34:19Z</time>
      </trkpt>
      <trkpt lat="45.94167" lon="6.24551">
        <ele>1848.27</ele>
        <time>2015-11-08T10:34:32Z</time>
      </trkpt>
      <trkpt lat="45.94169" lon="6.24556">
        <ele>1847.79</ele>
        <time>2015-11-08T10:34:57Z</time>
      </trkpt>
      <trkpt lat="45.9417" lon="6.24562">
        <ele>1846.35</ele>
        <time>2015-11-08T10:35:10Z</time>
      </trkpt>
      <trkpt lat="45.9417" lon="6.2457">
        <ele>1844.91</ele>
        <time>2015-11-08T10:35:24Z</time>
      </trkpt>
      <trkpt lat="45.94164" lon="6.24579">
        <ele>1843.47</ele>
        <time>2015-11-08T10:35:38Z</time>
      </trkpt>
      <trkpt lat="45.94161" lon="6.24588">
        <ele>1840.1</ele>
        <time>2015-11-08T10:35:52Z</time>
      </trkpt>
      <trkpt lat="45.9416" lon="6.24596">
        <ele>1838.66</ele>
        <time>2015-11-08T10:35:59Z</time>
      </trkpt>
      <trkpt lat="45.94159" lon="6.24603">
        <ele>1836.74</ele>
        <time>2015-11-08T10:36:06Z</time>
      </trkpt>
      <trkpt lat="45.94153" lon="6.24624">
        <ele>1833.85</ele>
        <time>2015-11-08T10:36:24Z</time>
      </trkpt>
      <trkpt lat="45.94154" lon="6.24635">
        <ele>1832.41</ele>
        <time>2015-11-08T10:36:36Z</time>
      </trkpt>
      <trkpt lat="45.94152" lon="6.24649">
        <ele>1830.49</ele>
        <time>2015-11-08T10:36:49Z</time>
      </trkpt>
      <trkpt lat="45.94151" lon="6.24659">
        <ele>1829.53</ele>
        <time>2015-11-08T10:37:01Z</time>
      </trkpt>
      <trkpt lat="45.94149" lon="6.24673">
        <ele>1827.6</ele>
        <time>2015-11-08T10:37:14Z</time>
      </trkpt>
      <trkpt lat="45.94147" lon="6.24684">
        <ele>1824.72</ele>
        <time>2015-11-08T10:37:28Z</time>
      </trkpt>
      <trkpt lat="45.94146" lon="6.24692">
        <ele>1824.24</ele>
        <time>2015-11-08T10:37:35Z</time>
      </trkpt>
      <trkpt lat="45.94142" lon="6.24702">
        <ele>1822.32</ele>
        <time>2015-11-08T10:37:45Z</time>
      </trkpt>
      <trkpt lat="45.94134" lon="6.24714">
        <ele>1821.35</ele>
        <time>2015-11-08T10:37:59Z</time>
      </trkpt>
      <trkpt lat="45.94133" lon="6.24714">
        <ele>1821.35</ele>
        <time>2015-11-08T10:38:00Z</time>
      </trkpt>
      <trkpt lat="45.94125" lon="6.24718">
        <ele>1819.91</ele>
        <time>2015-11-08T10:38:12Z</time>
      </trkpt>
      <trkpt lat="45.94119" lon="6.24725">
        <ele>1819.43</ele>
        <time>2015-11-08T10:38:25Z</time>
      </trkpt>
      <trkpt lat="45.94112" lon="6.24725">
        <ele>1818.47</ele>
        <time>2015-11-08T10:38:35Z</time>
      </trkpt>
      <trkpt lat="45.94107" lon="6.2473">
        <ele>1817.51</ele>
        <time>2015-11-08T10:38:47Z</time>
      </trkpt>
      <trkpt lat="45.94098" lon="6.24729">
        <ele>1817.03</ele>
        <time>2015-11-08T10:39:01Z</time>
      </trkpt>
      <trkpt lat="45.94098" lon="6.24728">
        <ele>1818.47</ele>
        <time>2015-11-08T10:39:03Z</time>
      </trkpt>
      <trkpt lat="45.94091" lon="6.24732">
        <ele>1820.39</ele>
        <time>2015-11-08T10:39:15Z</time>
      </trkpt>
      <trkpt lat="45.94086" lon="6.24729">
        <ele>1820.39</ele>
        <time>2015-11-08T10:39:29Z</time>
      </trkpt>
      <trkpt lat="45.94085" lon="6.2473">
        <ele>1818.95</ele>
        <time>2015-11-08T10:39:31Z</time>
      </trkpt>
      <trkpt lat="45.94081" lon="6.2473">
        <ele>1818.47</ele>
        <time>2015-11-08T10:39:44Z</time>
      </trkpt>
      <trkpt lat="45.94081" lon="6.24731">
        <ele>1818.47</ele>
        <time>2015-11-08T10:39:51Z</time>
      </trkpt>
      <trkpt lat="45.94081" lon="6.24734">
        <ele>1817.51</ele>
        <time>2015-11-08T10:40:01Z</time>
      </trkpt>
      <trkpt lat="45.94081" lon="6.24738">
        <ele>1816.07</ele>
        <time>2015-11-08T10:40:15Z</time>
      </trkpt>
      <trkpt lat="45.94078" lon="6.24737">
        <ele>1814.63</ele>
        <time>2015-11-08T10:40:28Z</time>
      </trkpt>
      <trkpt lat="45.94075" lon="6.24732">
        <ele>1812.22</ele>
        <time>2015-11-08T10:40:38Z</time>
      </trkpt>
      <trkpt lat="45.94067" lon="6.24733">
        <ele>1811.26</ele>
        <time>2015-11-08T10:40:53Z</time>
      </trkpt>
      <trkpt lat="45.94064" lon="6.24735">
        <ele>1810.3</ele>
        <time>2015-11-08T10:41:06Z</time>
      </trkpt>
      <trkpt lat="45.94063" lon="6.24734">
        <ele>1810.78</ele>
        <time>2015-11-08T10:41:32Z</time>
      </trkpt>
      <trkpt lat="45.94065" lon="6.24732">
        <ele>1810.78</ele>
        <time>2015-11-08T10:42:03Z</time>
      </trkpt>
      <trkpt lat="45.94062" lon="6.24734">
        <ele>1810.78</ele>
        <time>2015-11-08T10:42:14Z</time>
      </trkpt>
      <trkpt lat="45.94055" lon="6.24744">
        <ele>1807.42</ele>
        <time>2015-11-08T10:42:25Z</time>
      </trkpt>
      <trkpt lat="45.94053" lon="6.24755">
        <ele>1807.42</ele>
        <time>2015-11-08T10:42:34Z</time>
      </trkpt>
      <trkpt lat="45.94051" lon="6.24757">
        <ele>1806.94</ele>
        <time>2015-11-08T10:42:47Z</time>
      </trkpt>
      <trkpt lat="45.9405" lon="6.24758">
        <ele>1806.94</ele>
        <time>2015-11-08T10:43:17Z</time>
      </trkpt>
      <trkpt lat="45.9405" lon="6.24757">
        <ele>1806.94</ele>
        <time>2015-11-08T10:43:42Z</time>
      </trkpt>
      <trkpt lat="45.94048" lon="6.2476">
        <ele>1806.94</ele>
        <time>2015-11-08T10:44:04Z</time>
      </trkpt>
      <trkpt lat="45.94045" lon="6.24762">
        <ele>1806.94</ele>
        <time>2015-11-08T10:44:08Z</time>
      </trkpt>
      <trkpt lat="45.94045" lon="6.24767">
        <ele>1806.45</ele>
        <time>2015-11-08T10:44:10Z</time>
      </trkpt>
      <trkpt lat="45.94046" lon="6.24771">
        <ele>1806.45</ele>
        <time>2015-11-08T10:44:11Z</time>
      </trkpt>
      <trkpt lat="45.94047" lon="6.2478">
        <ele>1807.9</ele>
        <time>2015-11-08T10:44:16Z</time>
      </trkpt>
      <trkpt lat="45.94046" lon="6.24782">
        <ele>1808.86</ele>
        <time>2015-11-08T10:44:18Z</time>
      </trkpt>
      <trkpt lat="45.94043" lon="6.24784">
        <ele>1810.78</ele>
        <time>2015-11-08T10:44:23Z</time>
      </trkpt>
      <trkpt lat="45.94038" lon="6.24783">
        <ele>1814.63</ele>
        <time>2015-11-08T10:44:33Z</time>
      </trkpt>
      <trkpt lat="45.94036" lon="6.24777">
        <ele>1817.51</ele>
        <time>2015-11-08T10:44:44Z</time>
      </trkpt>
      <trkpt lat="45.94032" lon="6.24772">
        <ele>1818.95</ele>
        <time>2015-11-08T10:44:51Z</time>
      </trkpt>
      <trkpt lat="45.94028" lon="6.24763">
        <ele>1819.91</ele>
        <time>2015-11-08T10:45:03Z</time>
      </trkpt>
      <trkpt lat="45.94024" lon="6.24762">
        <ele>1820.39</ele>
        <time>2015-11-08T10:45:15Z</time>
      </trkpt>
      <trkpt lat="45.94023" lon="6.24762">
        <ele>1818.95</ele>
        <time>2015-11-08T10:45:17Z</time>
      </trkpt>
      <trkpt lat="45.94022" lon="6.24762">
        <ele>1818.95</ele>
        <time>2015-11-08T10:45:18Z</time>
      </trkpt>
      <trkpt lat="45.94021" lon="6.24762">
        <ele>1818.47</ele>
        <time>2015-11-08T10:45:19Z</time>
      </trkpt>
      <trkpt lat="45.94015" lon="6.24763">
        <ele>1819.91</ele>
        <time>2015-11-08T10:45:28Z</time>
      </trkpt>
      <trkpt lat="45.94012" lon="6.24771">
        <ele>1821.84</ele>
        <time>2015-11-08T10:45:40Z</time>
      </trkpt>
      <trkpt lat="45.9401" lon="6.24774">
        <ele>1822.32</ele>
        <time>2015-11-08T10:45:46Z</time>
      </trkpt>
      <trkpt lat="45.94008" lon="6.24773">
        <ele>1821.35</ele>
        <time>2015-11-08T10:45:49Z</time>
      </trkpt>
      <trkpt lat="45.94001" lon="6.24767">
        <ele>1819.43</ele>
        <time>2015-11-08T10:46:02Z</time>
      </trkpt>
      <trkpt lat="45.93999" lon="6.24767">
        <ele>1819.43</ele>
        <time>2015-11-08T10:46:14Z</time>
      </trkpt>
      <trkpt lat="45.93999" lon="6.24766">
        <ele>1819.91</ele>
        <time>2015-11-08T10:46:36Z</time>
      </trkpt>
      <trkpt lat="45.94" lon="6.24766">
        <ele>1819.91</ele>
        <time>2015-11-08T10:47:03Z</time>
      </trkpt>
      <trkpt lat="45.93996" lon="6.24766">
        <ele>1819.91</ele>
        <time>2015-11-08T10:47:25Z</time>
      </trkpt>
      <trkpt lat="45.93991" lon="6.24769">
        <ele>1817.51</ele>
        <time>2015-11-08T10:47:33Z</time>
      </trkpt>
      <trkpt lat="45.9399" lon="6.24771">
        <ele>1817.03</ele>
        <time>2015-11-08T10:47:34Z</time>
      </trkpt>
      <trkpt lat="45.9399" lon="6.24774">
        <ele>1817.03</ele>
        <time>2015-11-08T10:47:37Z</time>
      </trkpt>
      <trkpt lat="45.93989" lon="6.24777">
        <ele>1817.03</ele>
        <time>2015-11-08T10:47:40Z</time>
      </trkpt>
      <trkpt lat="45.93988" lon="6.24778">
        <ele>1817.03</ele>
        <time>2015-11-08T10:47:41Z</time>
      </trkpt>
      <trkpt lat="45.93987" lon="6.24779">
        <ele>1817.03</ele>
        <time>2015-11-08T10:47:42Z</time>
      </trkpt>
      <trkpt lat="45.93986" lon="6.24779">
        <ele>1818.47</ele>
        <time>2015-11-08T10:47:43Z</time>
      </trkpt>
      <trkpt lat="45.93985" lon="6.2478">
        <ele>1818.47</ele>
        <time>2015-11-08T10:47:44Z</time>
      </trkpt>
      <trkpt lat="45.93978" lon="6.2478">
        <ele>1819.91</ele>
        <time>2015-11-08T10:47:52Z</time>
      </trkpt>
      <trkpt lat="45.93977" lon="6.24778">
        <ele>1819.91</ele>
        <time>2015-11-08T10:47:53Z</time>
      </trkpt>
      <trkpt lat="45.93975" lon="6.24776">
        <ele>1819.91</ele>
        <time>2015-11-08T10:47:55Z</time>
      </trkpt>
      <trkpt lat="45.93974" lon="6.24776">
        <ele>1819.91</ele>
        <time>2015-11-08T10:47:56Z</time>
      </trkpt>
      <trkpt lat="45.93972" lon="6.24775">
        <ele>1819.91</ele>
        <time>2015-11-08T10:47:58Z</time>
      </trkpt>
      <trkpt lat="45.93971" lon="6.24774">
        <ele>1819.91</ele>
        <time>2015-11-08T10:47:59Z</time>
      </trkpt>
      <trkpt lat="45.9397" lon="6.24774">
        <ele>1819.91</ele>
        <time>2015-11-08T10:48:00Z</time>
      </trkpt>
      <trkpt lat="45.93969" lon="6.24773">
        <ele>1819.91</ele>
        <time>2015-11-08T10:48:01Z</time>
      </trkpt>
      <trkpt lat="45.93965" lon="6.24766">
        <ele>1821.84</ele>
        <time>2015-11-08T10:48:09Z</time>
      </trkpt>
      <trkpt lat="45.93961" lon="6.24762">
        <ele>1822.8</ele>
        <time>2015-11-08T10:48:15Z</time>
      </trkpt>
      <trkpt lat="45.9396" lon="6.24761">
        <ele>1822.8</ele>
        <time>2015-11-08T10:48:16Z</time>
      </trkpt>
      <trkpt lat="45.93958" lon="6.24761">
        <ele>1822.8</ele>
        <time>2015-11-08T10:48:17Z</time>
      </trkpt>
      <trkpt lat="45.93957" lon="6.24761">
        <ele>1822.8</ele>
        <time>2015-11-08T10:48:18Z</time>
      </trkpt>
      <trkpt lat="45.93956" lon="6.24762">
        <ele>1822.32</ele>
        <time>2015-11-08T10:48:19Z</time>
      </trkpt>
      <trkpt lat="45.93952" lon="6.24766">
        <ele>1822.32</ele>
        <time>2015-11-08T10:48:24Z</time>
      </trkpt>
      <trkpt lat="45.9395" lon="6.24766">
        <ele>1822.32</ele>
        <time>2015-11-08T10:48:25Z</time>
      </trkpt>
      <trkpt lat="45.93943" lon="6.24768">
        <ele>1824.72</ele>
        <time>2015-11-08T10:48:37Z</time>
      </trkpt>
      <trkpt lat="45.9394" lon="6.24774">
        <ele>1823.28</ele>
        <time>2015-11-08T10:48:45Z</time>
      </trkpt>
      <trkpt lat="45.9394" lon="6.24777">
        <ele>1822.32</ele>
        <time>2015-11-08T10:48:48Z</time>
      </trkpt>
      <trkpt lat="45.93939" lon="6.24779">
        <ele>1821.84</ele>
        <time>2015-11-08T10:48:49Z</time>
      </trkpt>
      <trkpt lat="45.93939" lon="6.24781">
        <ele>1821.84</ele>
        <time>2015-11-08T10:48:50Z</time>
      </trkpt>
      <trkpt lat="45.93938" lon="6.24782">
        <ele>1821.35</ele>
        <time>2015-11-08T10:48:51Z</time>
      </trkpt>
      <trkpt lat="45.93938" lon="6.24784">
        <ele>1821.35</ele>
        <time>2015-11-08T10:48:52Z</time>
      </trkpt>
      <trkpt lat="45.93937" lon="6.24786">
        <ele>1821.35</ele>
        <time>2015-11-08T10:48:53Z</time>
      </trkpt>
      <trkpt lat="45.93937" lon="6.24787">
        <ele>1821.35</ele>
        <time>2015-11-08T10:48:54Z</time>
      </trkpt>
      <trkpt lat="45.93936" lon="6.24795">
        <ele>1822.32</ele>
        <time>2015-11-08T10:49:03Z</time>
      </trkpt>
      <trkpt lat="45.93934" lon="6.24799">
        <ele>1822.32</ele>
        <time>2015-11-08T10:49:15Z</time>
      </trkpt>
      <trkpt lat="45.93934" lon="6.24812">
        <ele>1819.43</ele>
        <time>2015-11-08T10:49:26Z</time>
      </trkpt>
      <trkpt lat="45.93935" lon="6.24815">
        <ele>1819.43</ele>
        <time>2015-11-08T10:49:28Z</time>
      </trkpt>
      <trkpt lat="45.93935" lon="6.24817">
        <ele>1819.43</ele>
        <time>2015-11-08T10:49:29Z</time>
      </trkpt>
      <trkpt lat="45.93935" lon="6.24819">
        <ele>1818.47</ele>
        <time>2015-11-08T10:49:30Z</time>
      </trkpt>
      <trkpt lat="45.93935" lon="6.24821">
        <ele>1818.47</ele>
        <time>2015-11-08T10:49:31Z</time>
      </trkpt>
      <trkpt lat="45.93934" lon="6.24824">
        <ele>1818.95</ele>
        <time>2015-11-08T10:49:32Z</time>
      </trkpt>
      <trkpt lat="45.93934" lon="6.24825">
        <ele>1818.47</ele>
        <time>2015-11-08T10:49:33Z</time>
      </trkpt>
      <trkpt lat="45.93933" lon="6.24827">
        <ele>1818.95</ele>
        <time>2015-11-08T10:49:34Z</time>
      </trkpt>
      <trkpt lat="45.93932" lon="6.24829">
        <ele>1818.95</ele>
        <time>2015-11-08T10:49:36Z</time>
      </trkpt>
      <trkpt lat="45.93931" lon="6.24834">
        <ele>1820.39</ele>
        <time>2015-11-08T10:49:40Z</time>
      </trkpt>
      <trkpt lat="45.93929" lon="6.24836">
        <ele>1820.39</ele>
        <time>2015-11-08T10:49:42Z</time>
      </trkpt>
      <trkpt lat="45.93919" lon="6.24842">
        <ele>1822.32</ele>
        <time>2015-11-08T10:49:54Z</time>
      </trkpt>
      <trkpt lat="45.93913" lon="6.24844">
        <ele>1825.68</ele>
        <time>2015-11-08T10:50:07Z</time>
      </trkpt>
      <trkpt lat="45.93907" lon="6.2485">
        <ele>1827.6</ele>
        <time>2015-11-08T10:50:20Z</time>
      </trkpt>
      <trkpt lat="45.93904" lon="6.24853">
        <ele>1828.56</ele>
        <time>2015-11-08T10:50:38Z</time>
      </trkpt>
      <trkpt lat="45.93903" lon="6.24858">
        <ele>1828.56</ele>
        <time>2015-11-08T10:50:53Z</time>
      </trkpt>
      <trkpt lat="45.93902" lon="6.24859">
        <ele>1827.12</ele>
        <time>2015-11-08T10:50:56Z</time>
      </trkpt>
      <trkpt lat="45.93901" lon="6.24864">
        <ele>1825.2</ele>
        <time>2015-11-08T10:51:09Z</time>
      </trkpt>
      <trkpt lat="45.93898" lon="6.24866">
        <ele>1822.8</ele>
        <time>2015-11-08T10:51:22Z</time>
      </trkpt>
      <trkpt lat="45.93894" lon="6.24867">
        <ele>1819.91</ele>
        <time>2015-11-08T10:51:31Z</time>
      </trkpt>
      <trkpt lat="45.93893" lon="6.24873">
        <ele>1817.03</ele>
        <time>2015-11-08T10:51:43Z</time>
      </trkpt>
      <trkpt lat="45.93889" lon="6.24883">
        <ele>1813.66</ele>
        <time>2015-11-08T10:51:55Z</time>
      </trkpt>
      <trkpt lat="45.93888" lon="6.24888">
        <ele>1812.7</ele>
        <time>2015-11-08T10:51:59Z</time>
      </trkpt>
      <trkpt lat="45.93886" lon="6.24895">
        <ele>1810.78</ele>
        <time>2015-11-08T10:52:12Z</time>
      </trkpt>
      <trkpt lat="45.93882" lon="6.24899">
        <ele>1812.22</ele>
        <time>2015-11-08T10:52:20Z</time>
      </trkpt>
      <trkpt lat="45.9388" lon="6.24911">
        <ele>1809.82</ele>
        <time>2015-11-08T10:52:30Z</time>
      </trkpt>
      <trkpt lat="45.9388" lon="6.24912">
        <ele>1809.82</ele>
        <time>2015-11-08T10:52:31Z</time>
      </trkpt>
      <trkpt lat="45.93879" lon="6.24914">
        <ele>1809.34</ele>
        <time>2015-11-08T10:52:32Z</time>
      </trkpt>
      <trkpt lat="45.93879" lon="6.24915">
        <ele>1809.34</ele>
        <time>2015-11-08T10:52:33Z</time>
      </trkpt>
      <trkpt lat="45.93879" lon="6.24917">
        <ele>1809.34</ele>
        <time>2015-11-08T10:52:34Z</time>
      </trkpt>
      <trkpt lat="45.9388" lon="6.24924">
        <ele>1810.78</ele>
        <time>2015-11-08T10:52:39Z</time>
      </trkpt>
      <trkpt lat="45.93877" lon="6.2493">
        <ele>1814.15</ele>
        <time>2015-11-08T10:52:50Z</time>
      </trkpt>
      <trkpt lat="45.93872" lon="6.24931">
        <ele>1812.7</ele>
        <time>2015-11-08T10:53:00Z</time>
      </trkpt>
      <trkpt lat="45.93872" lon="6.24932">
        <ele>1812.7</ele>
        <time>2015-11-08T10:53:01Z</time>
      </trkpt>
      <trkpt lat="45.93871" lon="6.24934">
        <ele>1812.22</ele>
        <time>2015-11-08T10:53:04Z</time>
      </trkpt>
      <trkpt lat="45.9387" lon="6.24935">
        <ele>1812.22</ele>
        <time>2015-11-08T10:53:05Z</time>
      </trkpt>
      <trkpt lat="45.93863" lon="6.24939">
        <ele>1814.15</ele>
        <time>2015-11-08T10:53:17Z</time>
      </trkpt>
      <trkpt lat="45.93862" lon="6.24943">
        <ele>1814.15</ele>
        <time>2015-11-08T10:53:31Z</time>
      </trkpt>
      <trkpt lat="45.93858" lon="6.24948">
        <ele>1812.22</ele>
        <time>2015-11-08T10:53:44Z</time>
      </trkpt>
      <trkpt lat="45.93857" lon="6.24953">
        <ele>1809.34</ele>
        <time>2015-11-08T10:53:57Z</time>
      </trkpt>
      <trkpt lat="45.93855" lon="6.24961">
        <ele>1806.45</ele>
        <time>2015-11-08T10:54:09Z</time>
      </trkpt>
      <trkpt lat="45.93858" lon="6.24965">
        <ele>1804.53</ele>
        <time>2015-11-08T10:54:22Z</time>
      </trkpt>
      <trkpt lat="45.93862" lon="6.24973">
        <ele>1802.13</ele>
        <time>2015-11-08T10:54:36Z</time>
      </trkpt>
      <trkpt lat="45.93862" lon="6.24977">
        <ele>1801.65</ele>
        <time>2015-11-08T10:54:38Z</time>
      </trkpt>
      <trkpt lat="45.93861" lon="6.24985">
        <ele>1800.69</ele>
        <time>2015-11-08T10:54:53Z</time>
      </trkpt>
      <trkpt lat="45.93863" lon="6.2499">
        <ele>1798.28</ele>
        <time>2015-11-08T10:55:05Z</time>
      </trkpt>
      <trkpt lat="45.93863" lon="6.24991">
        <ele>1797.8</ele>
        <time>2015-11-08T10:55:22Z</time>
      </trkpt>
      <trkpt lat="45.93866" lon="6.24993">
        <ele>1796.84</ele>
        <time>2015-11-08T10:55:38Z</time>
      </trkpt>
      <trkpt lat="45.93869" lon="6.24997">
        <ele>1794.92</ele>
        <time>2015-11-08T10:55:51Z</time>
      </trkpt>
      <trkpt lat="45.93868" lon="6.25005">
        <ele>1793</ele>
        <time>2015-11-08T10:56:03Z</time>
      </trkpt>
      <trkpt lat="45.9387" lon="6.25013">
        <ele>1792.03</ele>
        <time>2015-11-08T10:56:15Z</time>
      </trkpt>
      <trkpt lat="45.93871" lon="6.25019">
        <ele>1789.63</ele>
        <time>2015-11-08T10:56:27Z</time>
      </trkpt>
      <trkpt lat="45.93872" lon="6.25027">
        <ele>1787.23</ele>
        <time>2015-11-08T10:56:43Z</time>
      </trkpt>
      <trkpt lat="45.93872" lon="6.25028">
        <ele>1786.27</ele>
        <time>2015-11-08T10:56:44Z</time>
      </trkpt>
      <trkpt lat="45.93873" lon="6.25029">
        <ele>1786.27</ele>
        <time>2015-11-08T10:56:45Z</time>
      </trkpt>
      <trkpt lat="45.93875" lon="6.25042">
        <ele>1783.38</ele>
        <time>2015-11-08T10:56:59Z</time>
      </trkpt>
      <trkpt lat="45.93876" lon="6.25049">
        <ele>1781.46</ele>
        <time>2015-11-08T10:57:10Z</time>
      </trkpt>
      <trkpt lat="45.93876" lon="6.25054">
        <ele>1780.02</ele>
        <time>2015-11-08T10:57:23Z</time>
      </trkpt>
      <trkpt lat="45.93876" lon="6.25055">
        <ele>1780.5</ele>
        <time>2015-11-08T10:57:46Z</time>
      </trkpt>
      <trkpt lat="45.93875" lon="6.25054">
        <ele>1780.5</ele>
        <time>2015-11-08T10:58:13Z</time>
      </trkpt>
      <trkpt lat="45.93876" lon="6.25058">
        <ele>1779.06</ele>
        <time>2015-11-08T10:58:32Z</time>
      </trkpt>
      <trkpt lat="45.93876" lon="6.25063">
        <ele>1776.65</ele>
        <time>2015-11-08T10:58:48Z</time>
      </trkpt>
      <trkpt lat="45.93876" lon="6.2507">
        <ele>1774.25</ele>
        <time>2015-11-08T10:59:00Z</time>
      </trkpt>
      <trkpt lat="45.93875" lon="6.25078">
        <ele>1771.85</ele>
        <time>2015-11-08T10:59:14Z</time>
      </trkpt>
      <trkpt lat="45.93874" lon="6.25082">
        <ele>1769.44</ele>
        <time>2015-11-08T10:59:24Z</time>
      </trkpt>
      <trkpt lat="45.93869" lon="6.25093">
        <ele>1766.56</ele>
        <time>2015-11-08T10:59:39Z</time>
      </trkpt>
      <trkpt lat="45.93865" lon="6.25102">
        <ele>1766.08</ele>
        <time>2015-11-08T10:59:51Z</time>
      </trkpt>
      <trkpt lat="45.93864" lon="6.25103">
        <ele>1765.6</ele>
        <time>2015-11-08T10:59:52Z</time>
      </trkpt>
      <trkpt lat="45.93861" lon="6.25107">
        <ele>1767.52</ele>
        <time>2015-11-08T11:00:02Z</time>
      </trkpt>
      <trkpt lat="45.93861" lon="6.25106">
        <ele>1767.52</ele>
        <time>2015-11-08T11:00:12Z</time>
      </trkpt>
      <trkpt lat="45.93861" lon="6.25114">
        <ele>1767.52</ele>
        <time>2015-11-08T11:00:23Z</time>
      </trkpt>
      <trkpt lat="45.93861" lon="6.25115">
        <ele>1766.08</ele>
        <time>2015-11-08T11:00:25Z</time>
      </trkpt>
      <trkpt lat="45.93857" lon="6.25119">
        <ele>1765.12</ele>
        <time>2015-11-08T11:00:34Z</time>
      </trkpt>
      <trkpt lat="45.93856" lon="6.25124">
        <ele>1764.64</ele>
        <time>2015-11-08T11:00:45Z</time>
      </trkpt>
      <trkpt lat="45.93855" lon="6.25126">
        <ele>1764.64</ele>
        <time>2015-11-08T11:00:58Z</time>
      </trkpt>
      <trkpt lat="45.93856" lon="6.25125">
        <ele>1764.64</ele>
        <time>2015-11-08T11:01:15Z</time>
      </trkpt>
      <trkpt lat="45.93854" lon="6.25131">
        <ele>1763.2</ele>
        <time>2015-11-08T11:01:30Z</time>
      </trkpt>
      <trkpt lat="45.9385" lon="6.25138">
        <ele>1759.35</ele>
        <time>2015-11-08T11:01:42Z</time>
      </trkpt>
      <trkpt lat="45.93849" lon="6.25142">
        <ele>1757.43</ele>
        <time>2015-11-08T11:01:52Z</time>
      </trkpt>
      <trkpt lat="45.93844" lon="6.25144">
        <ele>1755.99</ele>
        <time>2015-11-08T11:02:02Z</time>
      </trkpt>
      <trkpt lat="45.93845" lon="6.2515">
        <ele>1753.1</ele>
        <time>2015-11-08T11:02:16Z</time>
      </trkpt>
      <trkpt lat="45.93842" lon="6.2516">
        <ele>1750.22</ele>
        <time>2015-11-08T11:02:29Z</time>
      </trkpt>
      <trkpt lat="45.9384" lon="6.25166">
        <ele>1748.29</ele>
        <time>2015-11-08T11:02:43Z</time>
      </trkpt>
      <trkpt lat="45.93838" lon="6.25166">
        <ele>1747.81</ele>
        <time>2015-11-08T11:03:04Z</time>
      </trkpt>
      <trkpt lat="45.93835" lon="6.25167">
        <ele>1745.89</ele>
        <time>2015-11-08T11:03:16Z</time>
      </trkpt>
      <trkpt lat="45.93833" lon="6.25168">
        <ele>1744.45</ele>
        <time>2015-11-08T11:03:26Z</time>
      </trkpt>
      <trkpt lat="45.93831" lon="6.25171">
        <ele>1742.05</ele>
        <time>2015-11-08T11:03:40Z</time>
      </trkpt>
      <trkpt lat="45.9383" lon="6.25175">
        <ele>1740.6</ele>
        <time>2015-11-08T11:03:53Z</time>
      </trkpt>
      <trkpt lat="45.9383" lon="6.25179">
        <ele>1738.2</ele>
        <time>2015-11-08T11:04:06Z</time>
      </trkpt>
      <trkpt lat="45.9383" lon="6.25182">
        <ele>1736.28</ele>
        <time>2015-11-08T11:04:18Z</time>
      </trkpt>
      <trkpt lat="45.93828" lon="6.25187">
        <ele>1734.84</ele>
        <time>2015-11-08T11:04:29Z</time>
      </trkpt>
      <trkpt lat="45.93827" lon="6.25189">
        <ele>1732.91</ele>
        <time>2015-11-08T11:04:40Z</time>
      </trkpt>
      <trkpt lat="45.93829" lon="6.25194">
        <ele>1730.99</ele>
        <time>2015-11-08T11:04:54Z</time>
      </trkpt>
      <trkpt lat="45.93828" lon="6.25196">
        <ele>1730.03</ele>
        <time>2015-11-08T11:05:06Z</time>
      </trkpt>
      <trkpt lat="45.9383" lon="6.252">
        <ele>1728.11</ele>
        <time>2015-11-08T11:05:20Z</time>
      </trkpt>
      <trkpt lat="45.93831" lon="6.25205">
        <ele>1725.7</ele>
        <time>2015-11-08T11:05:33Z</time>
      </trkpt>
      <trkpt lat="45.9383" lon="6.25212">
        <ele>1723.78</ele>
        <time>2015-11-08T11:05:44Z</time>
      </trkpt>
      <trkpt lat="45.9383" lon="6.25218">
        <ele>1721.38</ele>
        <time>2015-11-08T11:05:56Z</time>
      </trkpt>
      <trkpt lat="45.9383" lon="6.25221">
        <ele>1720.9</ele>
        <time>2015-11-08T11:05:59Z</time>
      </trkpt>
      <trkpt lat="45.93829" lon="6.25224">
        <ele>1719.46</ele>
        <time>2015-11-08T11:06:10Z</time>
      </trkpt>
      <trkpt lat="45.93831" lon="6.25231">
        <ele>1717.05</ele>
        <time>2015-11-08T11:06:22Z</time>
      </trkpt>
      <trkpt lat="45.9383" lon="6.25237">
        <ele>1714.65</ele>
        <time>2015-11-08T11:06:35Z</time>
      </trkpt>
      <trkpt lat="45.9383" lon="6.25244">
        <ele>1712.25</ele>
        <time>2015-11-08T11:06:47Z</time>
      </trkpt>
      <trkpt lat="45.93829" lon="6.25247">
        <ele>1711.28</ele>
        <time>2015-11-08T11:07:00Z</time>
      </trkpt>
      <trkpt lat="45.9383" lon="6.25253">
        <ele>1708.88</ele>
        <time>2015-11-08T11:07:16Z</time>
      </trkpt>
      <trkpt lat="45.93829" lon="6.25259">
        <ele>1706.48</ele>
        <time>2015-11-08T11:07:30Z</time>
      </trkpt>
      <trkpt lat="45.93826" lon="6.25265">
        <ele>1705.04</ele>
        <time>2015-11-08T11:07:42Z</time>
      </trkpt>
      <trkpt lat="45.93823" lon="6.25263">
        <ele>1702.63</ele>
        <time>2015-11-08T11:07:56Z</time>
      </trkpt>
      <trkpt lat="45.93822" lon="6.25267">
        <ele>1701.19</ele>
        <time>2015-11-08T11:08:08Z</time>
      </trkpt>
      <trkpt lat="45.93821" lon="6.2527">
        <ele>1699.75</ele>
        <time>2015-11-08T11:08:19Z</time>
      </trkpt>
      <trkpt lat="45.93821" lon="6.25275">
        <ele>1697.83</ele>
        <time>2015-11-08T11:08:33Z</time>
      </trkpt>
      <trkpt lat="45.9382" lon="6.25282">
        <ele>1694.94</ele>
        <time>2015-11-08T11:08:45Z</time>
      </trkpt>
      <trkpt lat="45.93817" lon="6.2529">
        <ele>1692.54</ele>
        <time>2015-11-08T11:08:57Z</time>
      </trkpt>
      <trkpt lat="45.93816" lon="6.25299">
        <ele>1690.14</ele>
        <time>2015-11-08T11:09:11Z</time>
      </trkpt>
      <trkpt lat="45.93813" lon="6.25306">
        <ele>1686.77</ele>
        <time>2015-11-08T11:09:25Z</time>
      </trkpt>
      <trkpt lat="45.9381" lon="6.25311">
        <ele>1684.37</ele>
        <time>2015-11-08T11:09:36Z</time>
      </trkpt>
      <trkpt lat="45.93806" lon="6.25322">
        <ele>1681</ele>
        <time>2015-11-08T11:09:49Z</time>
      </trkpt>
      <trkpt lat="45.93802" lon="6.25328">
        <ele>1680.04</ele>
        <time>2015-11-08T11:10:01Z</time>
      </trkpt>
      <trkpt lat="45.93801" lon="6.25336">
        <ele>1677.64</ele>
        <time>2015-11-08T11:10:12Z</time>
      </trkpt>
      <trkpt lat="45.938" lon="6.25342">
        <ele>1675.72</ele>
        <time>2015-11-08T11:10:21Z</time>
      </trkpt>
      <trkpt lat="45.93795" lon="6.25351">
        <ele>1672.35</ele>
        <time>2015-11-08T11:10:36Z</time>
      </trkpt>
      <trkpt lat="45.93788" lon="6.25348">
        <ele>1669.95</ele>
        <time>2015-11-08T11:10:50Z</time>
      </trkpt>
      <trkpt lat="45.93785" lon="6.25344">
        <ele>1667.06</ele>
        <time>2015-11-08T11:11:03Z</time>
      </trkpt>
      <trkpt lat="45.9378" lon="6.25346">
        <ele>1664.66</ele>
        <time>2015-11-08T11:11:17Z</time>
      </trkpt>
      <trkpt lat="45.93776" lon="6.25355">
        <ele>1661.78</ele>
        <time>2015-11-08T11:11:31Z</time>
      </trkpt>
      <trkpt lat="45.93772" lon="6.25369">
        <ele>1659.37</ele>
        <time>2015-11-08T11:11:45Z</time>
      </trkpt>
      <trkpt lat="45.93764" lon="6.25382">
        <ele>1656.49</ele>
        <time>2015-11-08T11:11:58Z</time>
      </trkpt>
      <trkpt lat="45.93756" lon="6.25392">
        <ele>1654.57</ele>
        <time>2015-11-08T11:12:11Z</time>
      </trkpt>
      <trkpt lat="45.93754" lon="6.25397">
        <ele>1653.6</ele>
        <time>2015-11-08T11:12:15Z</time>
      </trkpt>
      <trkpt lat="45.93753" lon="6.25398">
        <ele>1653.12</ele>
        <time>2015-11-08T11:12:16Z</time>
      </trkpt>
      <trkpt lat="45.9375" lon="6.25403">
        <ele>1653.12</ele>
        <time>2015-11-08T11:12:20Z</time>
      </trkpt>
      <trkpt lat="45.93749" lon="6.25408">
        <ele>1653.12</ele>
        <time>2015-11-08T11:12:23Z</time>
      </trkpt>
      <trkpt lat="45.93745" lon="6.25423">
        <ele>1652.64</ele>
        <time>2015-11-08T11:12:35Z</time>
      </trkpt>
      <trkpt lat="45.93743" lon="6.25429">
        <ele>1654.09</ele>
        <time>2015-11-08T11:12:48Z</time>
      </trkpt>
      <trkpt lat="45.93743" lon="6.2543">
        <ele>1654.09</ele>
        <time>2015-11-08T11:12:49Z</time>
      </trkpt>
      <trkpt lat="45.9374" lon="6.25446">
        <ele>1655.53</ele>
        <time>2015-11-08T11:13:02Z</time>
      </trkpt>
      <trkpt lat="45.93739" lon="6.25448">
        <ele>1655.53</ele>
        <time>2015-11-08T11:13:04Z</time>
      </trkpt>
      <trkpt lat="45.93735" lon="6.25457">
        <ele>1656.01</ele>
        <time>2015-11-08T11:13:16Z</time>
      </trkpt>
      <trkpt lat="45.93732" lon="6.25453">
        <ele>1656.01</ele>
        <time>2015-11-08T11:13:42Z</time>
      </trkpt>
      <trkpt lat="45.93732" lon="6.25461">
        <ele>1656.49</ele>
        <time>2015-11-08T11:13:56Z</time>
      </trkpt>
      <trkpt lat="45.93732" lon="6.25462">
        <ele>1656.49</ele>
        <time>2015-11-08T11:14:16Z</time>
      </trkpt>
      <trkpt lat="45.93732" lon="6.2546">
        <ele>1655.05</ele>
        <time>2015-11-08T11:14:28Z</time>
      </trkpt>
      <trkpt lat="45.93732" lon="6.25457">
        <ele>1655.05</ele>
        <time>2015-11-08T11:14:49Z</time>
      </trkpt>
      <trkpt lat="45.93734" lon="6.25458">
        <ele>1655.05</ele>
        <time>2015-11-08T11:14:54Z</time>
      </trkpt>
      <trkpt lat="45.93733" lon="6.25459">
        <ele>1656.01</ele>
        <time>2015-11-08T11:15:02Z</time>
      </trkpt>
      <trkpt lat="45.93732" lon="6.25468">
        <ele>1654.57</ele>
        <time>2015-11-08T11:15:13Z</time>
      </trkpt>
      <trkpt lat="45.93731" lon="6.25469">
        <ele>1653.6</ele>
        <time>2015-11-08T11:15:14Z</time>
      </trkpt>
      <trkpt lat="45.9373" lon="6.25476">
        <ele>1651.2</ele>
        <time>2015-11-08T11:15:25Z</time>
      </trkpt>
      <trkpt lat="45.93731" lon="6.25479">
        <ele>1650.24</ele>
        <time>2015-11-08T11:15:40Z</time>
      </trkpt>
      <trkpt lat="45.93731" lon="6.25482">
        <ele>1648.8</ele>
        <time>2015-11-08T11:15:52Z</time>
      </trkpt>
      <trkpt lat="45.93731" lon="6.25485">
        <ele>1646.88</ele>
        <time>2015-11-08T11:16:05Z</time>
      </trkpt>
      <trkpt lat="45.93729" lon="6.25488">
        <ele>1645.43</ele>
        <time>2015-11-08T11:16:16Z</time>
      </trkpt>
      <trkpt lat="45.93729" lon="6.25491">
        <ele>1643.99</ele>
        <time>2015-11-08T11:16:27Z</time>
      </trkpt>
      <trkpt lat="45.93727" lon="6.25497">
        <ele>1641.59</ele>
        <time>2015-11-08T11:16:40Z</time>
      </trkpt>
      <trkpt lat="45.93728" lon="6.255">
        <ele>1640.15</ele>
        <time>2015-11-08T11:16:53Z</time>
      </trkpt>
      <trkpt lat="45.93727" lon="6.25506">
        <ele>1637.74</ele>
        <time>2015-11-08T11:17:03Z</time>
      </trkpt>
      <trkpt lat="45.93722" lon="6.25508">
        <ele>1634.38</ele>
        <time>2015-11-08T11:17:14Z</time>
      </trkpt>
      <trkpt lat="45.93713" lon="6.25509">
        <ele>1631.98</ele>
        <time>2015-11-08T11:17:25Z</time>
      </trkpt>
      <trkpt lat="45.93712" lon="6.25509">
        <ele>1631.49</ele>
        <time>2015-11-08T11:17:26Z</time>
      </trkpt>
      <trkpt lat="45.93707" lon="6.25512">
        <ele>1631.01</ele>
        <time>2015-11-08T11:17:38Z</time>
      </trkpt>
      <trkpt lat="45.93705" lon="6.25513">
        <ele>1630.05</ele>
        <time>2015-11-08T11:17:40Z</time>
      </trkpt>
      <trkpt lat="45.93695" lon="6.25513">
        <ele>1631.49</ele>
        <time>2015-11-08T11:17:51Z</time>
      </trkpt>
      <trkpt lat="45.93686" lon="6.25513">
        <ele>1633.42</ele>
        <time>2015-11-08T11:18:03Z</time>
      </trkpt>
      <trkpt lat="45.93684" lon="6.25514">
        <ele>1633.9</ele>
        <time>2015-11-08T11:18:06Z</time>
      </trkpt>
      <trkpt lat="45.93677" lon="6.25508">
        <ele>1633.9</ele>
        <time>2015-11-08T11:18:16Z</time>
      </trkpt>
      <trkpt lat="45.93672" lon="6.25506">
        <ele>1632.46</ele>
        <time>2015-11-08T11:18:29Z</time>
      </trkpt>
      <trkpt lat="45.93671" lon="6.25507">
        <ele>1631.49</ele>
        <time>2015-11-08T11:18:31Z</time>
      </trkpt>
      <trkpt lat="45.93667" lon="6.25504">
        <ele>1630.05</ele>
        <time>2015-11-08T11:18:42Z</time>
      </trkpt>
      <trkpt lat="45.93662" lon="6.25503">
        <ele>1628.61</ele>
        <time>2015-11-08T11:18:53Z</time>
      </trkpt>
      <trkpt lat="45.93661" lon="6.25501">
        <ele>1627.65</ele>
        <time>2015-11-08T11:18:55Z</time>
      </trkpt>
      <trkpt lat="45.93657" lon="6.2549">
        <ele>1626.69</ele>
        <time>2015-11-08T11:19:05Z</time>
      </trkpt>
      <trkpt lat="45.93652" lon="6.25487">
        <ele>1625.25</ele>
        <time>2015-11-08T11:19:12Z</time>
      </trkpt>
      <trkpt lat="45.93643" lon="6.25481">
        <ele>1624.77</ele>
        <time>2015-11-08T11:19:25Z</time>
      </trkpt>
      <trkpt lat="45.93637" lon="6.25479">
        <ele>1623.8</ele>
        <time>2015-11-08T11:19:37Z</time>
      </trkpt>
      <trkpt lat="45.93635" lon="6.25479">
        <ele>1622.84</ele>
        <time>2015-11-08T11:19:41Z</time>
      </trkpt>
      <trkpt lat="45.93628" lon="6.25479">
        <ele>1619.96</ele>
        <time>2015-11-08T11:19:53Z</time>
      </trkpt>
      <trkpt lat="45.93621" lon="6.25479">
        <ele>1617.07</ele>
        <time>2015-11-08T11:20:06Z</time>
      </trkpt>
      <trkpt lat="45.93618" lon="6.25479">
        <ele>1616.59</ele>
        <time>2015-11-08T11:20:09Z</time>
      </trkpt>
      <trkpt lat="45.9361" lon="6.25475">
        <ele>1616.11</ele>
        <time>2015-11-08T11:20:23Z</time>
      </trkpt>
      <trkpt lat="45.93609" lon="6.25474">
        <ele>1616.11</ele>
        <time>2015-11-08T11:20:37Z</time>
      </trkpt>
      <trkpt lat="45.93608" lon="6.25472">
        <ele>1615.15</ele>
        <time>2015-11-08T11:20:51Z</time>
      </trkpt>
      <trkpt lat="45.93606" lon="6.2547">
        <ele>1613.71</ele>
        <time>2015-11-08T11:21:03Z</time>
      </trkpt>
      <trkpt lat="45.93604" lon="6.25472">
        <ele>1612.27</ele>
        <time>2015-11-08T11:21:17Z</time>
      </trkpt>
      <trkpt lat="45.93604" lon="6.25474">
        <ele>1610.83</ele>
        <time>2015-11-08T11:21:29Z</time>
      </trkpt>
      <trkpt lat="45.93604" lon="6.25477">
        <ele>1609.86</ele>
        <time>2015-11-08T11:21:43Z</time>
      </trkpt>
      <trkpt lat="45.93601" lon="6.25477">
        <ele>1609.38</ele>
        <time>2015-11-08T11:21:56Z</time>
      </trkpt>
      <trkpt lat="45.93598" lon="6.25477">
        <ele>1607.94</ele>
        <time>2015-11-08T11:22:12Z</time>
      </trkpt>
      <trkpt lat="45.93598" lon="6.25477">
        <ele>1606.98</ele>
        <time>2015-11-08T11:22:30Z</time>
      </trkpt>
      <trkpt lat="45.93597" lon="6.25476">
        <ele>1605.54</ele>
        <time>2015-11-08T11:22:44Z</time>
      </trkpt>
      <trkpt lat="45.93598" lon="6.25476">
        <ele>1605.54</ele>
        <time>2015-11-08T11:23:06Z</time>
      </trkpt>
      <trkpt lat="45.93598" lon="6.25477">
        <ele>1605.54</ele>
        <time>2015-11-08T11:23:28Z</time>
      </trkpt>
      <trkpt lat="45.93596" lon="6.25476">
        <ele>1604.58</ele>
        <time>2015-11-08T11:23:49Z</time>
      </trkpt>
      <trkpt lat="45.93596" lon="6.25482">
        <ele>1603.14</ele>
        <time>2015-11-08T11:24:08Z</time>
      </trkpt>
      <trkpt lat="45.93596" lon="6.2548">
        <ele>1603.14</ele>
        <time>2015-11-08T11:24:24Z</time>
      </trkpt>
      <trkpt lat="45.93597" lon="6.2548">
        <ele>1602.66</ele>
        <time>2015-11-08T11:24:47Z</time>
      </trkpt>
      <trkpt lat="45.93597" lon="6.25481">
        <ele>1602.66</ele>
        <time>2015-11-08T11:25:07Z</time>
      </trkpt>
      <trkpt lat="45.93597" lon="6.25482">
        <ele>1602.66</ele>
        <time>2015-11-08T11:25:28Z</time>
      </trkpt>
      <trkpt lat="45.93598" lon="6.25481">
        <ele>1602.66</ele>
        <time>2015-11-08T11:25:39Z</time>
      </trkpt>
      <trkpt lat="45.93597" lon="6.25484">
        <ele>1600.73</ele>
        <time>2015-11-08T11:25:48Z</time>
      </trkpt>
      <trkpt lat="45.93596" lon="6.25489">
        <ele>1597.85</ele>
        <time>2015-11-08T11:25:54Z</time>
      </trkpt>
      <trkpt lat="45.93598" lon="6.25491">
        <ele>1595.93</ele>
        <time>2015-11-08T11:26:04Z</time>
      </trkpt>
      <trkpt lat="45.93599" lon="6.25497">
        <ele>1594</ele>
        <time>2015-11-08T11:26:14Z</time>
      </trkpt>
      <trkpt lat="45.93598" lon="6.25503">
        <ele>1590.64</ele>
        <time>2015-11-08T11:26:25Z</time>
      </trkpt>
      <trkpt lat="45.93597" lon="6.25508">
        <ele>1588.72</ele>
        <time>2015-11-08T11:26:38Z</time>
      </trkpt>
      <trkpt lat="45.93592" lon="6.2551">
        <ele>1585.83</ele>
        <time>2015-11-08T11:26:50Z</time>
      </trkpt>
      <trkpt lat="45.93586" lon="6.25514">
        <ele>1582.95</ele>
        <time>2015-11-08T11:27:01Z</time>
      </trkpt>
      <trkpt lat="45.93579" lon="6.25515">
        <ele>1580.06</ele>
        <time>2015-11-08T11:27:12Z</time>
      </trkpt>
      <trkpt lat="45.93573" lon="6.25519">
        <ele>1576.7</ele>
        <time>2015-11-08T11:27:23Z</time>
      </trkpt>
      <trkpt lat="45.9357" lon="6.25523">
        <ele>1574.3</ele>
        <time>2015-11-08T11:27:33Z</time>
      </trkpt>
      <trkpt lat="45.93562" lon="6.25529">
        <ele>1571.89</ele>
        <time>2015-11-08T11:27:46Z</time>
      </trkpt>
      <trkpt lat="45.93555" lon="6.25531">
        <ele>1569.01</ele>
        <time>2015-11-08T11:27:58Z</time>
      </trkpt>
      <trkpt lat="45.9355" lon="6.25531">
        <ele>1566.61</ele>
        <time>2015-11-08T11:28:08Z</time>
      </trkpt>
      <trkpt lat="45.93547" lon="6.25537">
        <ele>1563.72</ele>
        <time>2015-11-08T11:28:20Z</time>
      </trkpt>
      <trkpt lat="45.93547" lon="6.25545">
        <ele>1561.32</ele>
        <time>2015-11-08T11:28:32Z</time>
      </trkpt>
      <trkpt lat="45.93541" lon="6.25546">
        <ele>1558.43</ele>
        <time>2015-11-08T11:28:47Z</time>
      </trkpt>
      <trkpt lat="45.93536" lon="6.25552">
        <ele>1555.55</ele>
        <time>2015-11-08T11:29:01Z</time>
      </trkpt>
      <trkpt lat="45.93528" lon="6.25555">
        <ele>1553.15</ele>
        <time>2015-11-08T11:29:15Z</time>
      </trkpt>
      <trkpt lat="45.93515" lon="6.25557">
        <ele>1551.71</ele>
        <time>2015-11-08T11:29:29Z</time>
      </trkpt>
      <trkpt lat="45.93513" lon="6.25557">
        <ele>1550.74</ele>
        <time>2015-11-08T11:29:42Z</time>
      </trkpt>
      <trkpt lat="45.9351" lon="6.25561">
        <ele>1550.26</ele>
        <time>2015-11-08T11:30:03Z</time>
      </trkpt>
      <trkpt lat="45.93499" lon="6.25562">
        <ele>1548.34</ele>
        <time>2015-11-08T11:30:18Z</time>
      </trkpt>
      <trkpt lat="45.93487" lon="6.25559">
        <ele>1548.34</ele>
        <time>2015-11-08T11:30:32Z</time>
      </trkpt>
      <trkpt lat="45.93485" lon="6.25558">
        <ele>1549.78</ele>
        <time>2015-11-08T11:30:34Z</time>
      </trkpt>
      <trkpt lat="45.93473" lon="6.25553">
        <ele>1551.71</ele>
        <time>2015-11-08T11:30:49Z</time>
      </trkpt>
      <trkpt lat="45.9347" lon="6.25552">
        <ele>1552.19</ele>
        <time>2015-11-08T11:30:54Z</time>
      </trkpt>
      <trkpt lat="45.93469" lon="6.25552">
        <ele>1552.19</ele>
        <time>2015-11-08T11:30:55Z</time>
      </trkpt>
      <trkpt lat="45.93455" lon="6.25549">
        <ele>1552.67</ele>
        <time>2015-11-08T11:31:10Z</time>
      </trkpt>
      <trkpt lat="45.93445" lon="6.25549">
        <ele>1551.71</ele>
        <time>2015-11-08T11:31:24Z</time>
      </trkpt>
      <trkpt lat="45.93432" lon="6.25545">
        <ele>1551.22</ele>
        <time>2015-11-08T11:31:34Z</time>
      </trkpt>
      <trkpt lat="45.93424" lon="6.25541">
        <ele>1551.22</ele>
        <time>2015-11-08T11:31:41Z</time>
      </trkpt>
      <trkpt lat="45.93422" lon="6.2554">
        <ele>1552.19</ele>
        <time>2015-11-08T11:31:43Z</time>
      </trkpt>
      <trkpt lat="45.93407" lon="6.25537">
        <ele>1551.22</ele>
        <time>2015-11-08T11:31:57Z</time>
      </trkpt>
      <trkpt lat="45.93399" lon="6.25534">
        <ele>1550.74</ele>
        <time>2015-11-08T11:32:04Z</time>
      </trkpt>
      <trkpt lat="45.93397" lon="6.25533">
        <ele>1550.74</ele>
        <time>2015-11-08T11:32:05Z</time>
      </trkpt>
      <trkpt lat="45.93396" lon="6.25532">
        <ele>1550.74</ele>
        <time>2015-11-08T11:32:06Z</time>
      </trkpt>
      <trkpt lat="45.93392" lon="6.25526">
        <ele>1551.22</ele>
        <time>2015-11-08T11:32:11Z</time>
      </trkpt>
      <trkpt lat="45.93391" lon="6.25525">
        <ele>1551.22</ele>
        <time>2015-11-08T11:32:12Z</time>
      </trkpt>
      <trkpt lat="45.9339" lon="6.25525">
        <ele>1551.22</ele>
        <time>2015-11-08T11:32:13Z</time>
      </trkpt>
      <trkpt lat="45.93383" lon="6.25521">
        <ele>1551.22</ele>
        <time>2015-11-08T11:32:19Z</time>
      </trkpt>
      <trkpt lat="45.9338" lon="6.2552">
        <ele>1551.22</ele>
        <time>2015-11-08T11:32:22Z</time>
      </trkpt>
      <trkpt lat="45.93379" lon="6.25519">
        <ele>1551.22</ele>
        <time>2015-11-08T11:32:23Z</time>
      </trkpt>
      <trkpt lat="45.93379" lon="6.25518">
        <ele>1550.74</ele>
        <time>2015-11-08T11:32:24Z</time>
      </trkpt>
      <trkpt lat="45.93363" lon="6.25503">
        <ele>1550.26</ele>
        <time>2015-11-08T11:32:40Z</time>
      </trkpt>
      <trkpt lat="45.93347" lon="6.25494">
        <ele>1552.67</ele>
        <time>2015-11-08T11:32:55Z</time>
      </trkpt>
      <trkpt lat="45.93342" lon="6.25491">
        <ele>1553.15</ele>
        <time>2015-11-08T11:33:00Z</time>
      </trkpt>
      <trkpt lat="45.9333" lon="6.25488">
        <ele>1554.11</ele>
        <time>2015-11-08T11:33:14Z</time>
      </trkpt>
      <trkpt lat="45.93324" lon="6.25483">
        <ele>1554.59</ele>
        <time>2015-11-08T11:33:30Z</time>
      </trkpt>
      <trkpt lat="45.93322" lon="6.25482">
        <ele>1554.59</ele>
        <time>2015-11-08T11:33:33Z</time>
      </trkpt>
      <trkpt lat="45.93321" lon="6.25483">
        <ele>1554.59</ele>
        <time>2015-11-08T11:33:34Z</time>
      </trkpt>
      <trkpt lat="45.9331" lon="6.25479">
        <ele>1554.11</ele>
        <time>2015-11-08T11:33:46Z</time>
      </trkpt>
      <trkpt lat="45.93302" lon="6.25476">
        <ele>1554.59</ele>
        <time>2015-11-08T11:33:57Z</time>
      </trkpt>
      <trkpt lat="45.93301" lon="6.25476">
        <ele>1554.59</ele>
        <time>2015-11-08T11:33:58Z</time>
      </trkpt>
      <trkpt lat="45.93289" lon="6.25475">
        <ele>1553.63</ele>
        <time>2015-11-08T11:34:10Z</time>
      </trkpt>
      <trkpt lat="45.93288" lon="6.25474">
        <ele>1553.63</ele>
        <time>2015-11-08T11:34:11Z</time>
      </trkpt>
      <trkpt lat="45.93284" lon="6.25474">
        <ele>1553.63</ele>
        <time>2015-11-08T11:34:14Z</time>
      </trkpt>
      <trkpt lat="45.93283" lon="6.25474">
        <ele>1553.63</ele>
        <time>2015-11-08T11:34:15Z</time>
      </trkpt>
      <trkpt lat="45.93282" lon="6.25474">
        <ele>1553.63</ele>
        <time>2015-11-08T11:34:16Z</time>
      </trkpt>
      <trkpt lat="45.93281" lon="6.25474">
        <ele>1553.15</ele>
        <time>2015-11-08T11:34:17Z</time>
      </trkpt>
      <trkpt lat="45.9328" lon="6.25473">
        <ele>1553.15</ele>
        <time>2015-11-08T11:34:18Z</time>
      </trkpt>
      <trkpt lat="45.93279" lon="6.25473">
        <ele>1553.15</ele>
        <time>2015-11-08T11:34:19Z</time>
      </trkpt>
      <trkpt lat="45.93278" lon="6.25474">
        <ele>1553.15</ele>
        <time>2015-11-08T11:34:20Z</time>
      </trkpt>
      <trkpt lat="45.93277" lon="6.25475">
        <ele>1553.15</ele>
        <time>2015-11-08T11:34:21Z</time>
      </trkpt>
      <trkpt lat="45.93276" lon="6.25475">
        <ele>1553.15</ele>
        <time>2015-11-08T11:34:22Z</time>
      </trkpt>
      <trkpt lat="45.93275" lon="6.25475">
        <ele>1552.67</ele>
        <time>2015-11-08T11:34:23Z</time>
      </trkpt>
      <trkpt lat="45.93254" lon="6.25477">
        <ele>1551.22</ele>
        <time>2015-11-08T11:34:41Z</time>
      </trkpt>
      <trkpt lat="45.93243" lon="6.25472">
        <ele>1550.74</ele>
        <time>2015-11-08T11:34:51Z</time>
      </trkpt>
      <trkpt lat="45.93242" lon="6.25472">
        <ele>1550.74</ele>
        <time>2015-11-08T11:34:52Z</time>
      </trkpt>
      <trkpt lat="45.93238" lon="6.25472">
        <ele>1549.78</ele>
        <time>2015-11-08T11:34:56Z</time>
      </trkpt>
      <trkpt lat="45.93237" lon="6.25472">
        <ele>1549.78</ele>
        <time>2015-11-08T11:34:57Z</time>
      </trkpt>
      <trkpt lat="45.93236" lon="6.25473">
        <ele>1549.78</ele>
        <time>2015-11-08T11:34:58Z</time>
      </trkpt>
      <trkpt lat="45.93235" lon="6.25473">
        <ele>1549.78</ele>
        <time>2015-11-08T11:34:59Z</time>
      </trkpt>
      <trkpt lat="45.93219" lon="6.25475">
        <ele>1548.34</ele>
        <time>2015-11-08T11:35:15Z</time>
      </trkpt>
      <trkpt lat="45.93207" lon="6.25477">
        <ele>1548.34</ele>
        <time>2015-11-08T11:35:30Z</time>
      </trkpt>
      <trkpt lat="45.932" lon="6.25481">
        <ele>1546.9</ele>
        <time>2015-11-08T11:35:38Z</time>
      </trkpt>
      <trkpt lat="45.93198" lon="6.25486">
        <ele>1545.46</ele>
        <time>2015-11-08T11:35:49Z</time>
      </trkpt>
      <trkpt lat="45.93199" lon="6.25486">
        <ele>1544.98</ele>
        <time>2015-11-08T11:36:04Z</time>
      </trkpt>
      <trkpt lat="45.93199" lon="6.25488">
        <ele>1544.98</ele>
        <time>2015-11-08T11:36:26Z</time>
      </trkpt>
      <trkpt lat="45.93198" lon="6.2548">
        <ele>1544.5</ele>
        <time>2015-11-08T11:36:51Z</time>
      </trkpt>
      <trkpt lat="45.93202" lon="6.25481">
        <ele>1544.5</ele>
        <time>2015-11-08T11:37:15Z</time>
      </trkpt>
      <trkpt lat="45.93199" lon="6.2548">
        <ele>1544.5</ele>
        <time>2015-11-08T11:37:41Z</time>
      </trkpt>
      <trkpt lat="45.93203" lon="6.25483">
        <ele>1544.5</ele>
        <time>2015-11-08T11:38:02Z</time>
      </trkpt>
      <trkpt lat="45.93206" lon="6.25484">
        <ele>1544.01</ele>
        <time>2015-11-08T11:38:31Z</time>
      </trkpt>
      <trkpt lat="45.93206" lon="6.25487">
        <ele>1544.01</ele>
        <time>2015-11-08T11:39:03Z</time>
      </trkpt>
      <trkpt lat="45.93204" lon="6.25489">
        <ele>1544.01</ele>
        <time>2015-11-08T11:39:33Z</time>
      </trkpt>
      <trkpt lat="45.93204" lon="6.25486">
        <ele>1543.53</ele>
        <time>2015-11-08T11:40:02Z</time>
      </trkpt>
      <trkpt lat="45.93206" lon="6.25487">
        <ele>1543.53</ele>
        <time>2015-11-08T11:40:40Z</time>
      </trkpt>
      <trkpt lat="45.93206" lon="6.25493">
        <ele>1543.53</ele>
        <time>2015-11-08T11:41:09Z</time>
      </trkpt>
      <trkpt lat="45.93202" lon="6.25492">
        <ele>1543.53</ele>
        <time>2015-11-08T11:41:41Z</time>
      </trkpt>
      <trkpt lat="45.93195" lon="6.25492">
        <ele>1543.53</ele>
        <time>2015-11-08T11:42:06Z</time>
      </trkpt>
      <trkpt lat="45.93197" lon="6.25491">
        <ele>1543.53</ele>
        <time>2015-11-08T11:42:34Z</time>
      </trkpt>
      <trkpt lat="45.93203" lon="6.25497">
        <ele>1543.53</ele>
        <time>2015-11-08T11:43:08Z</time>
      </trkpt>
      <trkpt lat="45.93202" lon="6.25494">
        <ele>1543.53</ele>
        <time>2015-11-08T11:43:41Z</time>
      </trkpt>
      <trkpt lat="45.93206" lon="6.25495">
        <ele>1543.53</ele>
        <time>2015-11-08T11:44:11Z</time>
      </trkpt>
      <trkpt lat="45.93207" lon="6.25499">
        <ele>1543.53</ele>
        <time>2015-11-08T11:44:39Z</time>
      </trkpt>
      <trkpt lat="45.93207" lon="6.25496">
        <ele>1543.53</ele>
        <time>2015-11-08T11:45:07Z</time>
      </trkpt>
      <trkpt lat="45.93206" lon="6.25496">
        <ele>1544.01</ele>
        <time>2015-11-08T11:45:41Z</time>
      </trkpt>
      <trkpt lat="45.9321" lon="6.25493">
        <ele>1544.5</ele>
        <time>2015-11-08T11:46:11Z</time>
      </trkpt>
      <trkpt lat="45.93212" lon="6.25495">
        <ele>1544.5</ele>
        <time>2015-11-08T11:46:52Z</time>
      </trkpt>
      <trkpt lat="45.93206" lon="6.25498">
        <ele>1544.5</ele>
        <time>2015-11-08T11:47:23Z</time>
      </trkpt>
      <trkpt lat="45.93202" lon="6.25497">
        <ele>1544.5</ele>
        <time>2015-11-08T11:47:50Z</time>
      </trkpt>
      <trkpt lat="45.93201" lon="6.25494">
        <ele>1544.98</ele>
        <time>2015-11-08T11:48:21Z</time>
      </trkpt>
      <trkpt lat="45.93207" lon="6.25492">
        <ele>1544.98</ele>
        <time>2015-11-08T11:48:47Z</time>
      </trkpt>
      <trkpt lat="45.93203" lon="6.25496">
        <ele>1544.98</ele>
        <time>2015-11-08T11:49:23Z</time>
      </trkpt>
      <trkpt lat="45.93207" lon="6.25493">
        <ele>1544.98</ele>
        <time>2015-11-08T11:49:53Z</time>
      </trkpt>
      <trkpt lat="45.93208" lon="6.2549">
        <ele>1544.98</ele>
        <time>2015-11-08T11:50:19Z</time>
      </trkpt>
      <trkpt lat="45.93198" lon="6.25489">
        <ele>1544.98</ele>
        <time>2015-11-08T11:50:42Z</time>
      </trkpt>
      <trkpt lat="45.93199" lon="6.25491">
        <ele>1544.98</ele>
        <time>2015-11-08T11:51:13Z</time>
      </trkpt>
      <trkpt lat="45.93197" lon="6.25487">
        <ele>1544.5</ele>
        <time>2015-11-08T11:51:39Z</time>
      </trkpt>
      <trkpt lat="45.932" lon="6.25484">
        <ele>1544.5</ele>
        <time>2015-11-08T11:52:07Z</time>
      </trkpt>
      <trkpt lat="45.93201" lon="6.25488">
        <ele>1544.01</ele>
        <time>2015-11-08T11:52:41Z</time>
      </trkpt>
      <trkpt lat="45.93197" lon="6.25486">
        <ele>1544.01</ele>
        <time>2015-11-08T11:53:14Z</time>
      </trkpt>
      <trkpt lat="45.93197" lon="6.25486">
        <ele>1543.53</ele>
        <time>2015-11-08T11:53:37Z</time>
      </trkpt>
      <trkpt lat="45.93199" lon="6.25487">
        <ele>1543.53</ele>
        <time>2015-11-08T11:54:10Z</time>
      </trkpt>
      <trkpt lat="45.93204" lon="6.25482">
        <ele>1543.05</ele>
        <time>2015-11-08T11:54:48Z</time>
      </trkpt>
      <trkpt lat="45.93199" lon="6.25481">
        <ele>1543.05</ele>
        <time>2015-11-08T11:55:14Z</time>
      </trkpt>
      <trkpt lat="45.93198" lon="6.25486">
        <ele>1542.57</ele>
        <time>2015-11-08T11:55:40Z</time>
      </trkpt>
      <trkpt lat="45.93197" lon="6.25485">
        <ele>1542.57</ele>
        <time>2015-11-08T11:56:02Z</time>
      </trkpt>
      <trkpt lat="45.93196" lon="6.25485">
        <ele>1542.57</ele>
        <time>2015-11-08T11:56:21Z</time>
      </trkpt>
      <trkpt lat="45.93196" lon="6.25486">
        <ele>1542.09</ele>
        <time>2015-11-08T11:56:41Z</time>
      </trkpt>
      <trkpt lat="45.93195" lon="6.25487">
        <ele>1542.09</ele>
        <time>2015-11-08T11:57:03Z</time>
      </trkpt>
      <trkpt lat="45.93195" lon="6.25487">
        <ele>1542.09</ele>
        <time>2015-11-08T11:57:28Z</time>
      </trkpt>
      <trkpt lat="45.93198" lon="6.25488">
        <ele>1541.61</ele>
        <time>2015-11-08T11:57:49Z</time>
      </trkpt>
      <trkpt lat="45.93196" lon="6.2549">
        <ele>1541.61</ele>
        <time>2015-11-08T11:58:12Z</time>
      </trkpt>
      <trkpt lat="45.93195" lon="6.25486">
        <ele>1541.61</ele>
        <time>2015-11-08T11:58:38Z</time>
      </trkpt>
      <trkpt lat="45.93196" lon="6.2549">
        <ele>1541.61</ele>
        <time>2015-11-08T11:59:04Z</time>
      </trkpt>
      <trkpt lat="45.93194" lon="6.25488">
        <ele>1541.61</ele>
        <time>2015-11-08T11:59:38Z</time>
      </trkpt>
      <trkpt lat="45.93197" lon="6.25482">
        <ele>1541.61</ele>
        <time>2015-11-08T12:00:03Z</time>
      </trkpt>
      <trkpt lat="45.93196" lon="6.25484">
        <ele>1541.13</ele>
        <time>2015-11-08T12:00:25Z</time>
      </trkpt>
      <trkpt lat="45.93196" lon="6.25485">
        <ele>1541.13</ele>
        <time>2015-11-08T12:00:48Z</time>
      </trkpt>
      <trkpt lat="45.93196" lon="6.25485">
        <ele>1541.13</ele>
        <time>2015-11-08T12:01:18Z</time>
      </trkpt>
      <trkpt lat="45.93193" lon="6.25486">
        <ele>1541.13</ele>
        <time>2015-11-08T12:01:50Z</time>
      </trkpt>
      <trkpt lat="45.93199" lon="6.25485">
        <ele>1540.65</ele>
        <time>2015-11-08T12:02:19Z</time>
      </trkpt>
      <trkpt lat="45.93197" lon="6.25486">
        <ele>1540.65</ele>
        <time>2015-11-08T12:02:50Z</time>
      </trkpt>
      <trkpt lat="45.93197" lon="6.2548">
        <ele>1540.65</ele>
        <time>2015-11-08T12:03:18Z</time>
      </trkpt>
      <trkpt lat="45.93196" lon="6.2549">
        <ele>1540.65</ele>
        <time>2015-11-08T12:03:45Z</time>
      </trkpt>
      <trkpt lat="45.93196" lon="6.25489">
        <ele>1540.65</ele>
        <time>2015-11-08T12:04:14Z</time>
      </trkpt>
      <trkpt lat="45.93195" lon="6.25489">
        <ele>1540.65</ele>
        <time>2015-11-08T12:04:38Z</time>
      </trkpt>
      <trkpt lat="45.93196" lon="6.25481">
        <ele>1540.65</ele>
        <time>2015-11-08T12:05:08Z</time>
      </trkpt>
      <trkpt lat="45.93196" lon="6.25489">
        <ele>1540.17</ele>
        <time>2015-11-08T12:05:38Z</time>
      </trkpt>
      <trkpt lat="45.93196" lon="6.25488">
        <ele>1540.17</ele>
        <time>2015-11-08T12:06:09Z</time>
      </trkpt>
      <trkpt lat="45.93194" lon="6.25488">
        <ele>1540.17</ele>
        <time>2015-11-08T12:06:44Z</time>
      </trkpt>
      <trkpt lat="45.93194" lon="6.25489">
        <ele>1540.17</ele>
        <time>2015-11-08T12:07:12Z</time>
      </trkpt>
      <trkpt lat="45.93197" lon="6.25487">
        <ele>1539.69</ele>
        <time>2015-11-08T12:07:46Z</time>
      </trkpt>
      <trkpt lat="45.93198" lon="6.25484">
        <ele>1539.69</ele>
        <time>2015-11-08T12:08:14Z</time>
      </trkpt>
      <trkpt lat="45.93196" lon="6.25488">
        <ele>1539.69</ele>
        <time>2015-11-08T12:08:54Z</time>
      </trkpt>
      <trkpt lat="45.93196" lon="6.25485">
        <ele>1539.21</ele>
        <time>2015-11-08T12:09:31Z</time>
      </trkpt>
      <trkpt lat="45.93197" lon="6.25485">
        <ele>1539.21</ele>
        <time>2015-11-08T12:10:01Z</time>
      </trkpt>
      <trkpt lat="45.93194" lon="6.25489">
        <ele>1538.73</ele>
        <time>2015-11-08T12:10:33Z</time>
      </trkpt>
      <trkpt lat="45.93193" lon="6.25482">
        <ele>1538.73</ele>
        <time>2015-11-08T12:11:07Z</time>
      </trkpt>
      <trkpt lat="45.93197" lon="6.25488">
        <ele>1538.73</ele>
        <time>2015-11-08T12:11:40Z</time>
      </trkpt>
      <trkpt lat="45.93195" lon="6.2549">
        <ele>1538.73</ele>
        <time>2015-11-08T12:12:12Z</time>
      </trkpt>
      <trkpt lat="45.93195" lon="6.25485">
        <ele>1538.25</ele>
        <time>2015-11-08T12:12:49Z</time>
      </trkpt>
      <trkpt lat="45.93195" lon="6.25487">
        <ele>1538.25</ele>
        <time>2015-11-08T12:13:16Z</time>
      </trkpt>
      <trkpt lat="45.93193" lon="6.25491">
        <ele>1538.25</ele>
        <time>2015-11-08T12:13:43Z</time>
      </trkpt>
      <trkpt lat="45.93197" lon="6.2549">
        <ele>1538.25</ele>
        <time>2015-11-08T12:14:12Z</time>
      </trkpt>
      <trkpt lat="45.93196" lon="6.25488">
        <ele>1539.21</ele>
        <time>2015-11-08T12:14:40Z</time>
      </trkpt>
      <trkpt lat="45.93198" lon="6.25487">
        <ele>1539.21</ele>
        <time>2015-11-08T12:15:12Z</time>
      </trkpt>
      <trkpt lat="45.93195" lon="6.25486">
        <ele>1539.21</ele>
        <time>2015-11-08T12:15:38Z</time>
      </trkpt>
      <trkpt lat="45.93198" lon="6.25485">
        <ele>1539.21</ele>
        <time>2015-11-08T12:16:12Z</time>
      </trkpt>
      <trkpt lat="45.93197" lon="6.25486">
        <ele>1539.21</ele>
        <time>2015-11-08T12:16:38Z</time>
      </trkpt>
      <trkpt lat="45.93194" lon="6.25487">
        <ele>1539.21</ele>
        <time>2015-11-08T12:17:02Z</time>
      </trkpt>
      <trkpt lat="45.93199" lon="6.25485">
        <ele>1539.21</ele>
        <time>2015-11-08T12:17:32Z</time>
      </trkpt>
      <trkpt lat="45.93198" lon="6.25482">
        <ele>1539.21</ele>
        <time>2015-11-08T12:18:01Z</time>
      </trkpt>
      <trkpt lat="45.932" lon="6.25486">
        <ele>1538.73</ele>
        <time>2015-11-08T12:18:27Z</time>
      </trkpt>
      <trkpt lat="45.93196" lon="6.25483">
        <ele>1538.73</ele>
        <time>2015-11-08T12:18:58Z</time>
      </trkpt>
      <trkpt lat="45.93194" lon="6.25486">
        <ele>1538.73</ele>
        <time>2015-11-08T12:19:32Z</time>
      </trkpt>
      <trkpt lat="45.93197" lon="6.25491">
        <ele>1538.73</ele>
        <time>2015-11-08T12:20:04Z</time>
      </trkpt>
      <trkpt lat="45.93195" lon="6.2549">
        <ele>1538.73</ele>
        <time>2015-11-08T12:20:28Z</time>
      </trkpt>
      <trkpt lat="45.93194" lon="6.25487">
        <ele>1539.21</ele>
        <time>2015-11-08T12:20:41Z</time>
      </trkpt>
      <trkpt lat="45.93195" lon="6.25485">
        <ele>1538.73</ele>
        <time>2015-11-08T12:21:08Z</time>
      </trkpt>
      <trkpt lat="45.93198" lon="6.25484">
        <ele>1538.73</ele>
        <time>2015-11-08T12:21:36Z</time>
      </trkpt>
      <trkpt lat="45.93195" lon="6.25482">
        <ele>1537.29</ele>
        <time>2015-11-08T12:22:05Z</time>
      </trkpt>
      <trkpt lat="45.93193" lon="6.25482">
        <ele>1537.29</ele>
        <time>2015-11-08T12:22:32Z</time>
      </trkpt>
      <trkpt lat="45.93196" lon="6.25478">
        <ele>1537.29</ele>
        <time>2015-11-08T12:23:06Z</time>
      </trkpt>
      <trkpt lat="45.93194" lon="6.25482">
        <ele>1537.29</ele>
        <time>2015-11-08T12:23:34Z</time>
      </trkpt>
      <trkpt lat="45.93194" lon="6.25479">
        <ele>1536.8</ele>
        <time>2015-11-08T12:24:03Z</time>
      </trkpt>
      <trkpt lat="45.93197" lon="6.25477">
        <ele>1536.8</ele>
        <time>2015-11-08T12:24:35Z</time>
      </trkpt>
      <trkpt lat="45.93198" lon="6.25477">
        <ele>1536.8</ele>
        <time>2015-11-08T12:25:09Z</time>
      </trkpt>
      <trkpt lat="45.93194" lon="6.2548">
        <ele>1536.32</ele>
        <time>2015-11-08T12:25:39Z</time>
      </trkpt>
      <trkpt lat="45.93196" lon="6.25478">
        <ele>1536.32</ele>
        <time>2015-11-08T12:26:08Z</time>
      </trkpt>
      <trkpt lat="45.93197" lon="6.2548">
        <ele>1536.32</ele>
        <time>2015-11-08T12:26:35Z</time>
      </trkpt>
      <trkpt lat="45.93194" lon="6.25484">
        <ele>1537.29</ele>
        <time>2015-11-08T12:27:03Z</time>
      </trkpt>
      <trkpt lat="45.93196" lon="6.25479">
        <ele>1537.29</ele>
        <time>2015-11-08T12:27:32Z</time>
      </trkpt>
      <trkpt lat="45.93195" lon="6.25483">
        <ele>1538.25</ele>
        <time>2015-11-08T12:27:44Z</time>
      </trkpt>
      <trkpt lat="45.93195" lon="6.25483">
        <ele>1538.25</ele>
        <time>2015-11-08T12:28:00Z</time>
      </trkpt>
      <trkpt lat="45.93194" lon="6.25481">
        <ele>1538.25</ele>
        <time>2015-11-08T12:28:13Z</time>
      </trkpt>
      <trkpt lat="45.93195" lon="6.2548">
        <ele>1538.25</ele>
        <time>2015-11-08T12:28:41Z</time>
      </trkpt>
      <trkpt lat="45.93193" lon="6.25479">
        <ele>1538.25</ele>
        <time>2015-11-08T12:29:08Z</time>
      </trkpt>
      <trkpt lat="45.93192" lon="6.2548">
        <ele>1538.73</ele>
        <time>2015-11-08T12:29:20Z</time>
      </trkpt>
      <trkpt lat="45.93191" lon="6.25482">
        <ele>1538.25</ele>
        <time>2015-11-08T12:29:51Z</time>
      </trkpt>
      <trkpt lat="45.93194" lon="6.25476">
        <ele>1538.25</ele>
        <time>2015-11-08T12:30:08Z</time>
      </trkpt>
      <trkpt lat="45.93189" lon="6.25477">
        <ele>1539.21</ele>
        <time>2015-11-08T12:30:20Z</time>
      </trkpt>
      <trkpt lat="45.9319" lon="6.25479">
        <ele>1539.21</ele>
        <time>2015-11-08T12:30:46Z</time>
      </trkpt>
      <trkpt lat="45.93191" lon="6.25479">
        <ele>1539.69</ele>
        <time>2015-11-08T12:31:15Z</time>
      </trkpt>
      <trkpt lat="45.93188" lon="6.25477">
        <ele>1539.69</ele>
        <time>2015-11-08T12:31:35Z</time>
      </trkpt>
      <trkpt lat="45.93188" lon="6.25475">
        <ele>1539.69</ele>
        <time>2015-11-08T12:31:52Z</time>
      </trkpt>
      <trkpt lat="45.93189" lon="6.25474">
        <ele>1539.69</ele>
        <time>2015-11-08T12:32:08Z</time>
      </trkpt>
      <trkpt lat="45.93184" lon="6.25472">
        <ele>1539.21</ele>
        <time>2015-11-08T12:32:22Z</time>
      </trkpt>
      <trkpt lat="45.93182" lon="6.25471">
        <ele>1539.21</ele>
        <time>2015-11-08T12:32:40Z</time>
      </trkpt>
      <trkpt lat="45.93178" lon="6.25473">
        <ele>1539.21</ele>
        <time>2015-11-08T12:32:51Z</time>
      </trkpt>
      <trkpt lat="45.93177" lon="6.25473">
        <ele>1539.21</ele>
        <time>2015-11-08T12:32:52Z</time>
      </trkpt>
      <trkpt lat="45.93176" lon="6.25474">
        <ele>1539.21</ele>
        <time>2015-11-08T12:32:53Z</time>
      </trkpt>
      <trkpt lat="45.93175" lon="6.25474">
        <ele>1539.21</ele>
        <time>2015-11-08T12:32:54Z</time>
      </trkpt>
      <trkpt lat="45.93174" lon="6.25475">
        <ele>1538.25</ele>
        <time>2015-11-08T12:32:55Z</time>
      </trkpt>
      <trkpt lat="45.93166" lon="6.25478">
        <ele>1537.77</ele>
        <time>2015-11-08T12:33:05Z</time>
      </trkpt>
      <trkpt lat="45.93156" lon="6.25478">
        <ele>1537.29</ele>
        <time>2015-11-08T12:33:17Z</time>
      </trkpt>
      <trkpt lat="45.93141" lon="6.25481">
        <ele>1536.32</ele>
        <time>2015-11-08T12:33:33Z</time>
      </trkpt>
      <trkpt lat="45.9313" lon="6.25481">
        <ele>1536.32</ele>
        <time>2015-11-08T12:33:44Z</time>
      </trkpt>
      <trkpt lat="45.93128" lon="6.25481">
        <ele>1535.84</ele>
        <time>2015-11-08T12:33:45Z</time>
      </trkpt>
      <trkpt lat="45.93127" lon="6.2548">
        <ele>1535.84</ele>
        <time>2015-11-08T12:33:46Z</time>
      </trkpt>
      <trkpt lat="45.93126" lon="6.2548">
        <ele>1535.84</ele>
        <time>2015-11-08T12:33:47Z</time>
      </trkpt>
      <trkpt lat="45.93125" lon="6.2548">
        <ele>1535.36</ele>
        <time>2015-11-08T12:33:48Z</time>
      </trkpt>
      <trkpt lat="45.93108" lon="6.25481">
        <ele>1534.88</ele>
        <time>2015-11-08T12:34:04Z</time>
      </trkpt>
      <trkpt lat="45.93092" lon="6.25485">
        <ele>1534.88</ele>
        <time>2015-11-08T12:34:20Z</time>
      </trkpt>
      <trkpt lat="45.93091" lon="6.25484">
        <ele>1534.88</ele>
        <time>2015-11-08T12:34:21Z</time>
      </trkpt>
      <trkpt lat="45.93089" lon="6.25485">
        <ele>1534.88</ele>
        <time>2015-11-08T12:34:22Z</time>
      </trkpt>
      <trkpt lat="45.93081" lon="6.25485">
        <ele>1534.88</ele>
        <time>2015-11-08T12:34:30Z</time>
      </trkpt>
      <trkpt lat="45.9308" lon="6.25485">
        <ele>1534.88</ele>
        <time>2015-11-08T12:34:31Z</time>
      </trkpt>
      <trkpt lat="45.93066" lon="6.25482">
        <ele>1534.88</ele>
        <time>2015-11-08T12:34:47Z</time>
      </trkpt>
      <trkpt lat="45.93059" lon="6.2548">
        <ele>1534.88</ele>
        <time>2015-11-08T12:34:58Z</time>
      </trkpt>
      <trkpt lat="45.93058" lon="6.25482">
        <ele>1534.88</ele>
        <time>2015-11-08T12:34:59Z</time>
      </trkpt>
      <trkpt lat="45.93056" lon="6.25487">
        <ele>1534.88</ele>
        <time>2015-11-08T12:35:04Z</time>
      </trkpt>
      <trkpt lat="45.93054" lon="6.25488">
        <ele>1534.88</ele>
        <time>2015-11-08T12:35:05Z</time>
      </trkpt>
      <trkpt lat="45.9305" lon="6.25485">
        <ele>1535.84</ele>
        <time>2015-11-08T12:35:11Z</time>
      </trkpt>
      <trkpt lat="45.93039" lon="6.25479">
        <ele>1538.25</ele>
        <time>2015-11-08T12:35:25Z</time>
      </trkpt>
      <trkpt lat="45.93025" lon="6.25473">
        <ele>1540.65</ele>
        <time>2015-11-08T12:35:41Z</time>
      </trkpt>
      <trkpt lat="45.93017" lon="6.25467">
        <ele>1542.09</ele>
        <time>2015-11-08T12:35:54Z</time>
      </trkpt>
      <trkpt lat="45.93006" lon="6.25466">
        <ele>1544.5</ele>
        <time>2015-11-08T12:36:08Z</time>
      </trkpt>
      <trkpt lat="45.92997" lon="6.25458">
        <ele>1545.46</ele>
        <time>2015-11-08T12:36:22Z</time>
      </trkpt>
      <trkpt lat="45.92984" lon="6.25454">
        <ele>1547.86</ele>
        <time>2015-11-08T12:36:36Z</time>
      </trkpt>
      <trkpt lat="45.92975" lon="6.25448">
        <ele>1548.82</ele>
        <time>2015-11-08T12:36:50Z</time>
      </trkpt>
      <trkpt lat="45.92972" lon="6.25445">
        <ele>1548.82</ele>
        <time>2015-11-08T12:36:54Z</time>
      </trkpt>
      <trkpt lat="45.92961" lon="6.25442">
        <ele>1551.22</ele>
        <time>2015-11-08T12:37:06Z</time>
      </trkpt>
      <trkpt lat="45.92959" lon="6.2544">
        <ele>1551.22</ele>
        <time>2015-11-08T12:37:08Z</time>
      </trkpt>
      <trkpt lat="45.92951" lon="6.25432">
        <ele>1553.15</ele>
        <time>2015-11-08T12:37:21Z</time>
      </trkpt>
      <trkpt lat="45.92944" lon="6.25423">
        <ele>1555.07</ele>
        <time>2015-11-08T12:37:36Z</time>
      </trkpt>
      <trkpt lat="45.92936" lon="6.25417">
        <ele>1557.95</ele>
        <time>2015-11-08T12:37:51Z</time>
      </trkpt>
      <trkpt lat="45.92928" lon="6.25415">
        <ele>1558.43</ele>
        <time>2015-11-08T12:38:00Z</time>
      </trkpt>
      <trkpt lat="45.92927" lon="6.25415">
        <ele>1558.43</ele>
        <time>2015-11-08T12:38:01Z</time>
      </trkpt>
      <trkpt lat="45.92919" lon="6.2541">
        <ele>1558.92</ele>
        <time>2015-11-08T12:38:12Z</time>
      </trkpt>
      <trkpt lat="45.92908" lon="6.25403">
        <ele>1559.88</ele>
        <time>2015-11-08T12:38:23Z</time>
      </trkpt>
      <trkpt lat="45.92895" lon="6.25392">
        <ele>1559.88</ele>
        <time>2015-11-08T12:38:36Z</time>
      </trkpt>
      <trkpt lat="45.92886" lon="6.25386">
        <ele>1560.84</ele>
        <time>2015-11-08T12:38:48Z</time>
      </trkpt>
      <trkpt lat="45.92884" lon="6.25385">
        <ele>1561.8</ele>
        <time>2015-11-08T12:38:49Z</time>
      </trkpt>
      <trkpt lat="45.92883" lon="6.25385">
        <ele>1561.32</ele>
        <time>2015-11-08T12:38:50Z</time>
      </trkpt>
      <trkpt lat="45.92882" lon="6.25385">
        <ele>1561.32</ele>
        <time>2015-11-08T12:38:51Z</time>
      </trkpt>
      <trkpt lat="45.92872" lon="6.25382">
        <ele>1561.8</ele>
        <time>2015-11-08T12:39:01Z</time>
      </trkpt>
      <trkpt lat="45.92872" lon="6.2538">
        <ele>1561.8</ele>
        <time>2015-11-08T12:39:02Z</time>
      </trkpt>
      <trkpt lat="45.9286" lon="6.25375">
        <ele>1562.76</ele>
        <time>2015-11-08T12:39:14Z</time>
      </trkpt>
      <trkpt lat="45.92854" lon="6.25364">
        <ele>1565.16</ele>
        <time>2015-11-08T12:39:26Z</time>
      </trkpt>
      <trkpt lat="45.92853" lon="6.25362">
        <ele>1565.16</ele>
        <time>2015-11-08T12:39:28Z</time>
      </trkpt>
      <trkpt lat="45.92842" lon="6.25361">
        <ele>1566.12</ele>
        <time>2015-11-08T12:39:42Z</time>
      </trkpt>
      <trkpt lat="45.92836" lon="6.2536">
        <ele>1564.68</ele>
        <time>2015-11-08T12:39:47Z</time>
      </trkpt>
      <trkpt lat="45.92835" lon="6.2536">
        <ele>1564.68</ele>
        <time>2015-11-08T12:39:48Z</time>
      </trkpt>
      <trkpt lat="45.92833" lon="6.25358">
        <ele>1564.2</ele>
        <time>2015-11-08T12:39:49Z</time>
      </trkpt>
      <trkpt lat="45.92832" lon="6.25357">
        <ele>1564.2</ele>
        <time>2015-11-08T12:39:50Z</time>
      </trkpt>
      <trkpt lat="45.92827" lon="6.25355">
        <ele>1564.2</ele>
        <time>2015-11-08T12:39:54Z</time>
      </trkpt>
      <trkpt lat="45.92826" lon="6.25354">
        <ele>1564.2</ele>
        <time>2015-11-08T12:39:55Z</time>
      </trkpt>
      <trkpt lat="45.92824" lon="6.25353">
        <ele>1564.2</ele>
        <time>2015-11-08T12:39:56Z</time>
      </trkpt>
      <trkpt lat="45.92823" lon="6.25352">
        <ele>1564.2</ele>
        <time>2015-11-08T12:39:57Z</time>
      </trkpt>
      <trkpt lat="45.92822" lon="6.2535">
        <ele>1564.2</ele>
        <time>2015-11-08T12:39:58Z</time>
      </trkpt>
      <trkpt lat="45.92821" lon="6.25349">
        <ele>1564.2</ele>
        <time>2015-11-08T12:39:59Z</time>
      </trkpt>
      <trkpt lat="45.9282" lon="6.25348">
        <ele>1564.2</ele>
        <time>2015-11-08T12:40:00Z</time>
      </trkpt>
      <trkpt lat="45.92819" lon="6.25347">
        <ele>1564.2</ele>
        <time>2015-11-08T12:40:01Z</time>
      </trkpt>
      <trkpt lat="45.92818" lon="6.25346">
        <ele>1564.2</ele>
        <time>2015-11-08T12:40:02Z</time>
      </trkpt>
      <trkpt lat="45.92817" lon="6.25345">
        <ele>1564.2</ele>
        <time>2015-11-08T12:40:03Z</time>
      </trkpt>
      <trkpt lat="45.92816" lon="6.25344">
        <ele>1564.2</ele>
        <time>2015-11-08T12:40:04Z</time>
      </trkpt>
      <trkpt lat="45.92815" lon="6.25343">
        <ele>1564.2</ele>
        <time>2015-11-08T12:40:05Z</time>
      </trkpt>
      <trkpt lat="45.92811" lon="6.2534">
        <ele>1564.2</ele>
        <time>2015-11-08T12:40:09Z</time>
      </trkpt>
      <trkpt lat="45.92808" lon="6.25337">
        <ele>1564.2</ele>
        <time>2015-11-08T12:40:12Z</time>
      </trkpt>
      <trkpt lat="45.92807" lon="6.25336">
        <ele>1564.2</ele>
        <time>2015-11-08T12:40:13Z</time>
      </trkpt>
      <trkpt lat="45.92804" lon="6.25335">
        <ele>1564.2</ele>
        <time>2015-11-08T12:40:15Z</time>
      </trkpt>
      <trkpt lat="45.92785" lon="6.25329">
        <ele>1563.24</ele>
        <time>2015-11-08T12:40:30Z</time>
      </trkpt>
      <trkpt lat="45.92767" lon="6.25324">
        <ele>1565.64</ele>
        <time>2015-11-08T12:40:46Z</time>
      </trkpt>
      <trkpt lat="45.92751" lon="6.25317">
        <ele>1567.09</ele>
        <time>2015-11-08T12:41:01Z</time>
      </trkpt>
      <trkpt lat="45.92743" lon="6.25293">
        <ele>1565.16</ele>
        <time>2015-11-08T12:41:17Z</time>
      </trkpt>
      <trkpt lat="45.92744" lon="6.25267">
        <ele>1563.24</ele>
        <time>2015-11-08T12:41:33Z</time>
      </trkpt>
      <trkpt lat="45.92749" lon="6.25255">
        <ele>1562.76</ele>
        <time>2015-11-08T12:41:41Z</time>
      </trkpt>
      <trkpt lat="45.92763" lon="6.25234">
        <ele>1564.68</ele>
        <time>2015-11-08T12:41:57Z</time>
      </trkpt>
      <trkpt lat="45.92778" lon="6.25224">
        <ele>1565.64</ele>
        <time>2015-11-08T12:42:12Z</time>
      </trkpt>
      <trkpt lat="45.92793" lon="6.25211">
        <ele>1566.61</ele>
        <time>2015-11-08T12:42:27Z</time>
      </trkpt>
      <trkpt lat="45.92805" lon="6.25195">
        <ele>1566.61</ele>
        <time>2015-11-08T12:42:43Z</time>
      </trkpt>
      <trkpt lat="45.92807" lon="6.25193">
        <ele>1566.61</ele>
        <time>2015-11-08T12:42:48Z</time>
      </trkpt>
      <trkpt lat="45.92816" lon="6.2518">
        <ele>1565.16</ele>
        <time>2015-11-08T12:42:59Z</time>
      </trkpt>
      <trkpt lat="45.92818" lon="6.25177">
        <ele>1565.16</ele>
        <time>2015-11-08T12:43:10Z</time>
      </trkpt>
      <trkpt lat="45.92826" lon="6.25168">
        <ele>1565.16</ele>
        <time>2015-11-08T12:43:27Z</time>
      </trkpt>
      <trkpt lat="45.92845" lon="6.2516">
        <ele>1568.05</ele>
        <time>2015-11-08T12:43:45Z</time>
      </trkpt>
      <trkpt lat="45.9285" lon="6.25155">
        <ele>1569.01</ele>
        <time>2015-11-08T12:43:51Z</time>
      </trkpt>
      <trkpt lat="45.92851" lon="6.25154">
        <ele>1569.01</ele>
        <time>2015-11-08T12:43:52Z</time>
      </trkpt>
      <trkpt lat="45.92851" lon="6.25153">
        <ele>1569.01</ele>
        <time>2015-11-08T12:43:53Z</time>
      </trkpt>
      <trkpt lat="45.92852" lon="6.25138">
        <ele>1567.57</ele>
        <time>2015-11-08T12:44:01Z</time>
      </trkpt>
      <trkpt lat="45.9286" lon="6.25113">
        <ele>1567.09</ele>
        <time>2015-11-08T12:44:16Z</time>
      </trkpt>
      <trkpt lat="45.92871" lon="6.25091">
        <ele>1569.01</ele>
        <time>2015-11-08T12:44:32Z</time>
      </trkpt>
      <trkpt lat="45.92876" lon="6.25075">
        <ele>1569.49</ele>
        <time>2015-11-08T12:44:42Z</time>
      </trkpt>
      <trkpt lat="45.92876" lon="6.25073">
        <ele>1569.49</ele>
        <time>2015-11-08T12:44:43Z</time>
      </trkpt>
      <trkpt lat="45.92877" lon="6.25072">
        <ele>1569.49</ele>
        <time>2015-11-08T12:44:44Z</time>
      </trkpt>
      <trkpt lat="45.92878" lon="6.25071">
        <ele>1569.49</ele>
        <time>2015-11-08T12:44:45Z</time>
      </trkpt>
      <trkpt lat="45.92889" lon="6.25056">
        <ele>1568.05</ele>
        <time>2015-11-08T12:45:00Z</time>
      </trkpt>
      <trkpt lat="45.92895" lon="6.25048">
        <ele>1565.64</ele>
        <time>2015-11-08T12:45:12Z</time>
      </trkpt>
      <trkpt lat="45.92902" lon="6.25039">
        <ele>1563.24</ele>
        <time>2015-11-08T12:45:24Z</time>
      </trkpt>
      <trkpt lat="45.92906" lon="6.25031">
        <ele>1561.32</ele>
        <time>2015-11-08T12:45:38Z</time>
      </trkpt>
      <trkpt lat="45.9291" lon="6.25025">
        <ele>1558.43</ele>
        <time>2015-11-08T12:45:51Z</time>
      </trkpt>
      <trkpt lat="45.92916" lon="6.25023">
        <ele>1556.99</ele>
        <time>2015-11-08T12:46:03Z</time>
      </trkpt>
      <trkpt lat="45.92916" lon="6.2502">
        <ele>1555.55</ele>
        <time>2015-11-08T12:46:14Z</time>
      </trkpt>
      <trkpt lat="45.92915" lon="6.25015">
        <ele>1553.63</ele>
        <time>2015-11-08T12:46:26Z</time>
      </trkpt>
      <trkpt lat="45.92919" lon="6.25012">
        <ele>1551.22</ele>
        <time>2015-11-08T12:46:42Z</time>
      </trkpt>
      <trkpt lat="45.9292" lon="6.25011">
        <ele>1550.74</ele>
        <time>2015-11-08T12:46:57Z</time>
      </trkpt>
      <trkpt lat="45.92923" lon="6.25006">
        <ele>1548.34</ele>
        <time>2015-11-08T12:47:09Z</time>
      </trkpt>
      <trkpt lat="45.92927" lon="6.25002">
        <ele>1546.42</ele>
        <time>2015-11-08T12:47:20Z</time>
      </trkpt>
      <trkpt lat="45.92931" lon="6.24998">
        <ele>1544.5</ele>
        <time>2015-11-08T12:47:32Z</time>
      </trkpt>
      <trkpt lat="45.92934" lon="6.24997">
        <ele>1542.09</ele>
        <time>2015-11-08T12:47:44Z</time>
      </trkpt>
      <trkpt lat="45.9294" lon="6.24995">
        <ele>1540.17</ele>
        <time>2015-11-08T12:47:57Z</time>
      </trkpt>
      <trkpt lat="45.92943" lon="6.24995">
        <ele>1538.73</ele>
        <time>2015-11-08T12:48:09Z</time>
      </trkpt>
      <trkpt lat="45.92947" lon="6.24992">
        <ele>1536.8</ele>
        <time>2015-11-08T12:48:21Z</time>
      </trkpt>
      <trkpt lat="45.92951" lon="6.24989">
        <ele>1534.88</ele>
        <time>2015-11-08T12:48:34Z</time>
      </trkpt>
      <trkpt lat="45.92952" lon="6.24983">
        <ele>1533.44</ele>
        <time>2015-11-08T12:48:47Z</time>
      </trkpt>
      <trkpt lat="45.92953" lon="6.24979">
        <ele>1531.04</ele>
        <time>2015-11-08T12:49:02Z</time>
      </trkpt>
      <trkpt lat="45.92957" lon="6.24978">
        <ele>1529.11</ele>
        <time>2015-11-08T12:49:17Z</time>
      </trkpt>
      <trkpt lat="45.9296" lon="6.24975">
        <ele>1526.23</ele>
        <time>2015-11-08T12:49:29Z</time>
      </trkpt>
      <trkpt lat="45.92963" lon="6.2497">
        <ele>1523.83</ele>
        <time>2015-11-08T12:49:42Z</time>
      </trkpt>
      <trkpt lat="45.92964" lon="6.24958">
        <ele>1520.46</ele>
        <time>2015-11-08T12:49:54Z</time>
      </trkpt>
      <trkpt lat="45.92965" lon="6.24953">
        <ele>1519.02</ele>
        <time>2015-11-08T12:50:00Z</time>
      </trkpt>
      <trkpt lat="45.92965" lon="6.24945">
        <ele>1517.1</ele>
        <time>2015-11-08T12:50:09Z</time>
      </trkpt>
      <trkpt lat="45.92964" lon="6.24934">
        <ele>1514.21</ele>
        <time>2015-11-08T12:50:21Z</time>
      </trkpt>
      <trkpt lat="45.9297" lon="6.24919">
        <ele>1511.81</ele>
        <time>2015-11-08T12:50:37Z</time>
      </trkpt>
      <trkpt lat="45.9297" lon="6.2491">
        <ele>1508.93</ele>
        <time>2015-11-08T12:50:49Z</time>
      </trkpt>
      <trkpt lat="45.92972" lon="6.24898">
        <ele>1506.52</ele>
        <time>2015-11-08T12:51:02Z</time>
      </trkpt>
      <trkpt lat="45.92984" lon="6.24889">
        <ele>1504.6</ele>
        <time>2015-11-08T12:51:13Z</time>
      </trkpt>
      <trkpt lat="45.92987" lon="6.2488">
        <ele>1504.6</ele>
        <time>2015-11-08T12:51:29Z</time>
      </trkpt>
      <trkpt lat="45.92988" lon="6.2488">
        <ele>1504.12</ele>
        <time>2015-11-08T12:51:33Z</time>
      </trkpt>
      <trkpt lat="45.92993" lon="6.2488">
        <ele>1503.64</ele>
        <time>2015-11-08T12:51:47Z</time>
      </trkpt>
      <trkpt lat="45.93003" lon="6.24875">
        <ele>1501.72</ele>
        <time>2015-11-08T12:52:03Z</time>
      </trkpt>
      <trkpt lat="45.93019" lon="6.24867">
        <ele>1499.79</ele>
        <time>2015-11-08T12:52:20Z</time>
      </trkpt>
      <trkpt lat="45.93024" lon="6.24864">
        <ele>1497.87</ele>
        <time>2015-11-08T12:52:24Z</time>
      </trkpt>
      <trkpt lat="45.93024" lon="6.24861">
        <ele>1497.39</ele>
        <time>2015-11-08T12:52:26Z</time>
      </trkpt>
      <trkpt lat="45.93023" lon="6.24856">
        <ele>1496.43</ele>
        <time>2015-11-08T12:52:30Z</time>
      </trkpt>
      <trkpt lat="45.93016" lon="6.2485">
        <ele>1492.58</ele>
        <time>2015-11-08T12:52:41Z</time>
      </trkpt>
      <trkpt lat="45.93005" lon="6.24845">
        <ele>1489.22</ele>
        <time>2015-11-08T12:52:54Z</time>
      </trkpt>
      <trkpt lat="45.92997" lon="6.2484">
        <ele>1486.82</ele>
        <time>2015-11-08T12:53:06Z</time>
      </trkpt>
      <trkpt lat="45.92985" lon="6.2484">
        <ele>1484.41</ele>
        <time>2015-11-08T12:53:21Z</time>
      </trkpt>
      <trkpt lat="45.92983" lon="6.24836">
        <ele>1483.93</ele>
        <time>2015-11-08T12:53:26Z</time>
      </trkpt>
      <trkpt lat="45.92986" lon="6.24834">
        <ele>1482.49</ele>
        <time>2015-11-08T12:53:33Z</time>
      </trkpt>
      <trkpt lat="45.93" lon="6.24834">
        <ele>1479.61</ele>
        <time>2015-11-08T12:53:50Z</time>
      </trkpt>
      <trkpt lat="45.93004" lon="6.24833">
        <ele>1478.65</ele>
        <time>2015-11-08T12:53:56Z</time>
      </trkpt>
      <trkpt lat="45.93019" lon="6.24825">
        <ele>1475.76</ele>
        <time>2015-11-08T12:54:12Z</time>
      </trkpt>
      <trkpt lat="45.93028" lon="6.24819">
        <ele>1473.36</ele>
        <time>2015-11-08T12:54:23Z</time>
      </trkpt>
      <trkpt lat="45.93029" lon="6.24815">
        <ele>1473.36</ele>
        <time>2015-11-08T12:54:26Z</time>
      </trkpt>
      <trkpt lat="45.93029" lon="6.24811">
        <ele>1472.4</ele>
        <time>2015-11-08T12:54:29Z</time>
      </trkpt>
      <trkpt lat="45.93026" lon="6.24809">
        <ele>1471.92</ele>
        <time>2015-11-08T12:54:34Z</time>
      </trkpt>
      <trkpt lat="45.93014" lon="6.2481">
        <ele>1468.07</ele>
        <time>2015-11-08T12:54:49Z</time>
      </trkpt>
      <trkpt lat="45.92998" lon="6.24805">
        <ele>1465.67</ele>
        <time>2015-11-08T12:55:05Z</time>
      </trkpt>
      <trkpt lat="45.92986" lon="6.24798">
        <ele>1462.3</ele>
        <time>2015-11-08T12:55:17Z</time>
      </trkpt>
      <trkpt lat="45.92974" lon="6.24794">
        <ele>1458.94</ele>
        <time>2015-11-08T12:55:30Z</time>
      </trkpt>
      <trkpt lat="45.92967" lon="6.24792">
        <ele>1457.5</ele>
        <time>2015-11-08T12:55:39Z</time>
      </trkpt>
      <trkpt lat="45.92963" lon="6.24794">
        <ele>1457.02</ele>
        <time>2015-11-08T12:55:54Z</time>
      </trkpt>
      <trkpt lat="45.9296" lon="6.24795">
        <ele>1457.02</ele>
        <time>2015-11-08T12:56:08Z</time>
      </trkpt>
      <trkpt lat="45.9296" lon="6.24795">
        <ele>1457.02</ele>
        <time>2015-11-08T12:56:09Z</time>
      </trkpt>
      <trkpt lat="45.92953" lon="6.24799">
        <ele>1454.61</ele>
        <time>2015-11-08T12:56:19Z</time>
      </trkpt>
      <trkpt lat="45.92947" lon="6.24796">
        <ele>1453.65</ele>
        <time>2015-11-08T12:56:31Z</time>
      </trkpt>
      <trkpt lat="45.92949" lon="6.248">
        <ele>1454.13</ele>
        <time>2015-11-08T12:56:43Z</time>
      </trkpt>
      <trkpt lat="45.92949" lon="6.24795">
        <ele>1454.13</ele>
        <time>2015-11-08T12:56:56Z</time>
      </trkpt>
      <trkpt lat="45.92954" lon="6.24783">
        <ele>1451.25</ele>
        <time>2015-11-08T12:57:10Z</time>
      </trkpt>
      <trkpt lat="45.9296" lon="6.24774">
        <ele>1448.36</ele>
        <time>2015-11-08T12:57:22Z</time>
      </trkpt>
      <trkpt lat="45.92966" lon="6.2477">
        <ele>1445.96</ele>
        <time>2015-11-08T12:57:33Z</time>
      </trkpt>
      <trkpt lat="45.92971" lon="6.2477">
        <ele>1445</ele>
        <time>2015-11-08T12:57:44Z</time>
      </trkpt>
      <trkpt lat="45.92975" lon="6.24763">
        <ele>1442.11</ele>
        <time>2015-11-08T12:57:56Z</time>
      </trkpt>
      <trkpt lat="45.92972" lon="6.24755">
        <ele>1439.23</ele>
        <time>2015-11-08T12:58:06Z</time>
      </trkpt>
      <trkpt lat="45.92969" lon="6.2475">
        <ele>1437.79</ele>
        <time>2015-11-08T12:58:21Z</time>
      </trkpt>
      <trkpt lat="45.92963" lon="6.24746">
        <ele>1435.87</ele>
        <time>2015-11-08T12:58:32Z</time>
      </trkpt>
      <trkpt lat="45.92959" lon="6.24742">
        <ele>1432.98</ele>
        <time>2015-11-08T12:58:44Z</time>
      </trkpt>
      <trkpt lat="45.92953" lon="6.2474">
        <ele>1430.58</ele>
        <time>2015-11-08T12:58:55Z</time>
      </trkpt>
      <trkpt lat="45.92948" lon="6.24735">
        <ele>1428.66</ele>
        <time>2015-11-08T12:59:08Z</time>
      </trkpt>
      <trkpt lat="45.92948" lon="6.2473">
        <ele>1426.25</ele>
        <time>2015-11-08T12:59:21Z</time>
      </trkpt>
      <trkpt lat="45.92948" lon="6.24728">
        <ele>1425.77</ele>
        <time>2015-11-08T12:59:37Z</time>
      </trkpt>
      <trkpt lat="45.9295" lon="6.24721">
        <ele>1422.89</ele>
        <time>2015-11-08T12:59:52Z</time>
      </trkpt>
      <trkpt lat="45.92945" lon="6.24715">
        <ele>1420</ele>
        <time>2015-11-08T13:00:04Z</time>
      </trkpt>
      <trkpt lat="45.92943" lon="6.24708">
        <ele>1418.56</ele>
        <time>2015-11-08T13:00:15Z</time>
      </trkpt>
      <trkpt lat="45.92945" lon="6.24703">
        <ele>1416.16</ele>
        <time>2015-11-08T13:00:28Z</time>
      </trkpt>
      <trkpt lat="45.92944" lon="6.24698">
        <ele>1413.76</ele>
        <time>2015-11-08T13:00:43Z</time>
      </trkpt>
      <trkpt lat="45.92936" lon="6.24693">
        <ele>1411.83</ele>
        <time>2015-11-08T13:00:55Z</time>
      </trkpt>
      <trkpt lat="45.92935" lon="6.24688">
        <ele>1409.91</ele>
        <time>2015-11-08T13:01:06Z</time>
      </trkpt>
      <trkpt lat="45.92936" lon="6.24685">
        <ele>1409.43</ele>
        <time>2015-11-08T13:01:10Z</time>
      </trkpt>
      <trkpt lat="45.92936" lon="6.24679">
        <ele>1407.51</ele>
        <time>2015-11-08T13:01:21Z</time>
      </trkpt>
      <trkpt lat="45.92936" lon="6.24676">
        <ele>1406.55</ele>
        <time>2015-11-08T13:01:26Z</time>
      </trkpt>
      <trkpt lat="45.92937" lon="6.2467">
        <ele>1404.14</ele>
        <time>2015-11-08T13:01:39Z</time>
      </trkpt>
      <trkpt lat="45.92935" lon="6.2467">
        <ele>1401.26</ele>
        <time>2015-11-08T13:01:53Z</time>
      </trkpt>
      <trkpt lat="45.92928" lon="6.24669">
        <ele>1399.34</ele>
        <time>2015-11-08T13:02:07Z</time>
      </trkpt>
      <trkpt lat="45.92924" lon="6.2467">
        <ele>1396.45</ele>
        <time>2015-11-08T13:02:18Z</time>
      </trkpt>
      <trkpt lat="45.9292" lon="6.24676">
        <ele>1394.53</ele>
        <time>2015-11-08T13:02:29Z</time>
      </trkpt>
      <trkpt lat="45.92915" lon="6.24676">
        <ele>1391.65</ele>
        <time>2015-11-08T13:02:38Z</time>
      </trkpt>
      <trkpt lat="45.92911" lon="6.2467">
        <ele>1390.68</ele>
        <time>2015-11-08T13:02:48Z</time>
      </trkpt>
      <trkpt lat="45.92912" lon="6.24658">
        <ele>1388.28</ele>
        <time>2015-11-08T13:03:00Z</time>
      </trkpt>
      <trkpt lat="45.92914" lon="6.24651">
        <ele>1387.32</ele>
        <time>2015-11-08T13:03:08Z</time>
      </trkpt>
      <trkpt lat="45.92923" lon="6.2464">
        <ele>1383.96</ele>
        <time>2015-11-08T13:03:24Z</time>
      </trkpt>
      <trkpt lat="45.92932" lon="6.24632">
        <ele>1380.59</ele>
        <time>2015-11-08T13:03:37Z</time>
      </trkpt>
      <trkpt lat="45.92937" lon="6.24626">
        <ele>1378.67</ele>
        <time>2015-11-08T13:03:49Z</time>
      </trkpt>
      <trkpt lat="45.92942" lon="6.24623">
        <ele>1375.3</ele>
        <time>2015-11-08T13:03:58Z</time>
      </trkpt>
      <trkpt lat="45.92943" lon="6.24615">
        <ele>1372.42</ele>
        <time>2015-11-08T13:04:12Z</time>
      </trkpt>
      <trkpt lat="45.92935" lon="6.2461">
        <ele>1370.02</ele>
        <time>2015-11-08T13:04:27Z</time>
      </trkpt>
      <trkpt lat="45.92929" lon="6.24607">
        <ele>1368.57</ele>
        <time>2015-11-08T13:04:41Z</time>
      </trkpt>
      <trkpt lat="45.92936" lon="6.24606">
        <ele>1366.65</ele>
        <time>2015-11-08T13:04:55Z</time>
      </trkpt>
      <trkpt lat="45.92933" lon="6.24603">
        <ele>1363.77</ele>
        <time>2015-11-08T13:05:11Z</time>
      </trkpt>
      <trkpt lat="45.92926" lon="6.24602">
        <ele>1360.88</ele>
        <time>2015-11-08T13:05:24Z</time>
      </trkpt>
      <trkpt lat="45.92918" lon="6.24609">
        <ele>1359.44</ele>
        <time>2015-11-08T13:05:38Z</time>
      </trkpt>
      <trkpt lat="45.92914" lon="6.24609">
        <ele>1356.56</ele>
        <time>2015-11-08T13:05:52Z</time>
      </trkpt>
      <trkpt lat="45.92911" lon="6.24603">
        <ele>1353.67</ele>
        <time>2015-11-08T13:06:08Z</time>
      </trkpt>
      <trkpt lat="45.92911" lon="6.24596">
        <ele>1351.75</ele>
        <time>2015-11-08T13:06:23Z</time>
      </trkpt>
      <trkpt lat="45.92907" lon="6.24593">
        <ele>1349.35</ele>
        <time>2015-11-08T13:06:36Z</time>
      </trkpt>
      <trkpt lat="45.92906" lon="6.24592">
        <ele>1348.87</ele>
        <time>2015-11-08T13:06:40Z</time>
      </trkpt>
      <trkpt lat="45.92907" lon="6.24585">
        <ele>1345.98</ele>
        <time>2015-11-08T13:06:54Z</time>
      </trkpt>
      <trkpt lat="45.92908" lon="6.24578">
        <ele>1342.62</ele>
        <time>2015-11-08T13:07:04Z</time>
      </trkpt>
      <trkpt lat="45.92912" lon="6.24564">
        <ele>1339.73</ele>
        <time>2015-11-08T13:07:19Z</time>
      </trkpt>
      <trkpt lat="45.92916" lon="6.24558">
        <ele>1338.29</ele>
        <time>2015-11-08T13:07:34Z</time>
      </trkpt>
      <trkpt lat="45.92918" lon="6.24554">
        <ele>1336.85</ele>
        <time>2015-11-08T13:07:46Z</time>
      </trkpt>
      <trkpt lat="45.92915" lon="6.2455">
        <ele>1334.45</ele>
        <time>2015-11-08T13:07:58Z</time>
      </trkpt>
      <trkpt lat="45.92912" lon="6.2455">
        <ele>1331.08</ele>
        <time>2015-11-08T13:08:15Z</time>
      </trkpt>
      <trkpt lat="45.92908" lon="6.2454">
        <ele>1327.72</ele>
        <time>2015-11-08T13:08:27Z</time>
      </trkpt>
      <trkpt lat="45.9291" lon="6.24531">
        <ele>1324.35</ele>
        <time>2015-11-08T13:08:38Z</time>
      </trkpt>
      <trkpt lat="45.92914" lon="6.24526">
        <ele>1321.95</ele>
        <time>2015-11-08T13:08:48Z</time>
      </trkpt>
      <trkpt lat="45.92917" lon="6.24522">
        <ele>1320.51</ele>
        <time>2015-11-08T13:08:56Z</time>
      </trkpt>
      <trkpt lat="45.92927" lon="6.24511">
        <ele>1317.14</ele>
        <time>2015-11-08T13:09:09Z</time>
      </trkpt>
      <trkpt lat="45.92928" lon="6.24507">
        <ele>1313.78</ele>
        <time>2015-11-08T13:09:20Z</time>
      </trkpt>
      <trkpt lat="45.92924" lon="6.245">
        <ele>1310.9</ele>
        <time>2015-11-08T13:09:33Z</time>
      </trkpt>
      <trkpt lat="45.92917" lon="6.24501">
        <ele>1307.53</ele>
        <time>2015-11-08T13:09:46Z</time>
      </trkpt>
      <trkpt lat="45.92908" lon="6.24494">
        <ele>1304.17</ele>
        <time>2015-11-08T13:09:59Z</time>
      </trkpt>
      <trkpt lat="45.92909" lon="6.24481">
        <ele>1300.32</ele>
        <time>2015-11-08T13:10:12Z</time>
      </trkpt>
      <trkpt lat="45.92912" lon="6.24473">
        <ele>1295.99</ele>
        <time>2015-11-08T13:10:24Z</time>
      </trkpt>
      <trkpt lat="45.92917" lon="6.24467">
        <ele>1294.55</ele>
        <time>2015-11-08T13:10:36Z</time>
      </trkpt>
      <trkpt lat="45.92922" lon="6.24461">
        <ele>1291.19</ele>
        <time>2015-11-08T13:10:51Z</time>
      </trkpt>
      <trkpt lat="45.92929" lon="6.24456">
        <ele>1288.3</ele>
        <time>2015-11-08T13:11:03Z</time>
      </trkpt>
      <trkpt lat="45.92937" lon="6.24452">
        <ele>1284.94</ele>
        <time>2015-11-08T13:11:16Z</time>
      </trkpt>
      <trkpt lat="45.9294" lon="6.24448">
        <ele>1281.57</ele>
        <time>2015-11-08T13:11:29Z</time>
      </trkpt>
      <trkpt lat="45.92941" lon="6.2444">
        <ele>1278.69</ele>
        <time>2015-11-08T13:11:42Z</time>
      </trkpt>
      <trkpt lat="45.9294" lon="6.24432">
        <ele>1276.29</ele>
        <time>2015-11-08T13:11:56Z</time>
      </trkpt>
      <trkpt lat="45.92936" lon="6.24425">
        <ele>1273.4</ele>
        <time>2015-11-08T13:12:09Z</time>
      </trkpt>
      <trkpt lat="45.92932" lon="6.24421">
        <ele>1270.52</ele>
        <time>2015-11-08T13:12:22Z</time>
      </trkpt>
      <trkpt lat="45.9293" lon="6.24414">
        <ele>1267.64</ele>
        <time>2015-11-08T13:12:35Z</time>
      </trkpt>
      <trkpt lat="45.92926" lon="6.24409">
        <ele>1265.23</ele>
        <time>2015-11-08T13:12:46Z</time>
      </trkpt>
      <trkpt lat="45.9292" lon="6.24399">
        <ele>1262.35</ele>
        <time>2015-11-08T13:13:00Z</time>
      </trkpt>
      <trkpt lat="45.92909" lon="6.24394">
        <ele>1258.98</ele>
        <time>2015-11-08T13:13:12Z</time>
      </trkpt>
      <trkpt lat="45.92904" lon="6.24381">
        <ele>1256.58</ele>
        <time>2015-11-08T13:13:25Z</time>
      </trkpt>
      <trkpt lat="45.92907" lon="6.24369">
        <ele>1253.22</ele>
        <time>2015-11-08T13:13:37Z</time>
      </trkpt>
      <trkpt lat="45.92914" lon="6.24366">
        <ele>1250.33</ele>
        <time>2015-11-08T13:13:49Z</time>
      </trkpt>
      <trkpt lat="45.92921" lon="6.24354">
        <ele>1247.93</ele>
        <time>2015-11-08T13:14:03Z</time>
      </trkpt>
      <trkpt lat="45.92919" lon="6.2435">
        <ele>1244.56</ele>
        <time>2015-11-08T13:14:13Z</time>
      </trkpt>
      <trkpt lat="45.92916" lon="6.24343">
        <ele>1241.68</ele>
        <time>2015-11-08T13:14:24Z</time>
      </trkpt>
      <trkpt lat="45.92917" lon="6.24337">
        <ele>1238.8</ele>
        <time>2015-11-08T13:14:35Z</time>
      </trkpt>
      <trkpt lat="45.92917" lon="6.24337">
        <ele>1238.8</ele>
        <time>2015-11-08T13:14:36Z</time>
      </trkpt>
      <trkpt lat="45.9292" lon="6.24324">
        <ele>1236.87</ele>
        <time>2015-11-08T13:14:47Z</time>
      </trkpt>
      <trkpt lat="45.92922" lon="6.24319">
        <ele>1233.99</ele>
        <time>2015-11-08T13:14:59Z</time>
      </trkpt>
      <trkpt lat="45.92921" lon="6.24318">
        <ele>1233.99</ele>
        <time>2015-11-08T13:15:00Z</time>
      </trkpt>
      <trkpt lat="45.92923" lon="6.24309">
        <ele>1231.11</ele>
        <time>2015-11-08T13:15:11Z</time>
      </trkpt>
      <trkpt lat="45.92921" lon="6.243">
        <ele>1228.22</ele>
        <time>2015-11-08T13:15:21Z</time>
      </trkpt>
      <trkpt lat="45.9292" lon="6.24295">
        <ele>1225.34</ele>
        <time>2015-11-08T13:15:33Z</time>
      </trkpt>
      <trkpt lat="45.92921" lon="6.24287">
        <ele>1221.97</ele>
        <time>2015-11-08T13:15:48Z</time>
      </trkpt>
      <trkpt lat="45.92925" lon="6.24281">
        <ele>1219.09</ele>
        <time>2015-11-08T13:16:02Z</time>
      </trkpt>
      <trkpt lat="45.92926" lon="6.24269">
        <ele>1216.21</ele>
        <time>2015-11-08T13:16:16Z</time>
      </trkpt>
      <trkpt lat="45.92935" lon="6.24261">
        <ele>1213.8</ele>
        <time>2015-11-08T13:16:29Z</time>
      </trkpt>
      <trkpt lat="45.92936" lon="6.24258">
        <ele>1210.92</ele>
        <time>2015-11-08T13:16:42Z</time>
      </trkpt>
      <trkpt lat="45.92938" lon="6.24252">
        <ele>1208.03</ele>
        <time>2015-11-08T13:16:53Z</time>
      </trkpt>
      <trkpt lat="45.92942" lon="6.24243">
        <ele>1205.63</ele>
        <time>2015-11-08T13:17:06Z</time>
      </trkpt>
      <trkpt lat="45.92946" lon="6.24234">
        <ele>1201.79</ele>
        <time>2015-11-08T13:17:20Z</time>
      </trkpt>
      <trkpt lat="45.92948" lon="6.24224">
        <ele>1198.9</ele>
        <time>2015-11-08T13:17:31Z</time>
      </trkpt>
      <trkpt lat="45.92948" lon="6.24216">
        <ele>1196.5</ele>
        <time>2015-11-08T13:17:43Z</time>
      </trkpt>
      <trkpt lat="45.92942" lon="6.24213">
        <ele>1192.65</ele>
        <time>2015-11-08T13:17:57Z</time>
      </trkpt>
      <trkpt lat="45.92944" lon="6.24205">
        <ele>1190.25</ele>
        <time>2015-11-08T13:18:09Z</time>
      </trkpt>
      <trkpt lat="45.9295" lon="6.24197">
        <ele>1187.37</ele>
        <time>2015-11-08T13:18:21Z</time>
      </trkpt>
      <trkpt lat="45.92947" lon="6.24194">
        <ele>1184.96</ele>
        <time>2015-11-08T13:18:32Z</time>
      </trkpt>
      <trkpt lat="45.92944" lon="6.24191">
        <ele>1183.52</ele>
        <time>2015-11-08T13:18:36Z</time>
      </trkpt>
      <trkpt lat="45.92946" lon="6.24183">
        <ele>1181.12</ele>
        <time>2015-11-08T13:18:48Z</time>
      </trkpt>
      <trkpt lat="45.92949" lon="6.24176">
        <ele>1178.23</ele>
        <time>2015-11-08T13:19:01Z</time>
      </trkpt>
      <trkpt lat="45.92953" lon="6.24167">
        <ele>1175.35</ele>
        <time>2015-11-08T13:19:13Z</time>
      </trkpt>
      <trkpt lat="45.92958" lon="6.2416">
        <ele>1171.98</ele>
        <time>2015-11-08T13:19:24Z</time>
      </trkpt>
      <trkpt lat="45.92964" lon="6.24153">
        <ele>1170.06</ele>
        <time>2015-11-08T13:19:36Z</time>
      </trkpt>
      <trkpt lat="45.92967" lon="6.2414">
        <ele>1167.18</ele>
        <time>2015-11-08T13:19:50Z</time>
      </trkpt>
      <trkpt lat="45.9297" lon="6.24132">
        <ele>1165.74</ele>
        <time>2015-11-08T13:20:04Z</time>
      </trkpt>
      <trkpt lat="45.92969" lon="6.24132">
        <ele>1163.81</ele>
        <time>2015-11-08T13:20:12Z</time>
      </trkpt>
      <trkpt lat="45.92957" lon="6.24136">
        <ele>1161.89</ele>
        <time>2015-11-08T13:20:24Z</time>
      </trkpt>
      <trkpt lat="45.9295" lon="6.24139">
        <ele>1161.41</ele>
        <time>2015-11-08T13:20:31Z</time>
      </trkpt>
      <trkpt lat="45.92946" lon="6.2414">
        <ele>1160.45</ele>
        <time>2015-11-08T13:20:35Z</time>
      </trkpt>
      <trkpt lat="45.9294" lon="6.24146">
        <ele>1160.45</ele>
        <time>2015-11-08T13:20:48Z</time>
      </trkpt>
      <trkpt lat="45.92934" lon="6.24146">
        <ele>1157.56</ele>
        <time>2015-11-08T13:21:03Z</time>
      </trkpt>
      <trkpt lat="45.92929" lon="6.24147">
        <ele>1155.16</ele>
        <time>2015-11-08T13:21:14Z</time>
      </trkpt>
      <trkpt lat="45.92928" lon="6.24144">
        <ele>1152.76</ele>
        <time>2015-11-08T13:21:25Z</time>
      </trkpt>
      <trkpt lat="45.92931" lon="6.24138">
        <ele>1149.39</ele>
        <time>2015-11-08T13:21:35Z</time>
      </trkpt>
      <trkpt lat="45.92932" lon="6.24136">
        <ele>1149.39</ele>
        <time>2015-11-08T13:21:37Z</time>
      </trkpt>
      <trkpt lat="45.92936" lon="6.2413">
        <ele>1147.95</ele>
        <time>2015-11-08T13:21:45Z</time>
      </trkpt>
      <trkpt lat="45.92943" lon="6.24127">
        <ele>1146.99</ele>
        <time>2015-11-08T13:21:59Z</time>
      </trkpt>
      <trkpt lat="45.92944" lon="6.24125">
        <ele>1146.03</ele>
        <time>2015-11-08T13:22:15Z</time>
      </trkpt>
      <trkpt lat="45.92946" lon="6.24121">
        <ele>1146.03</ele>
        <time>2015-11-08T13:22:30Z</time>
      </trkpt>
      <trkpt lat="45.92946" lon="6.24126">
        <ele>1146.03</ele>
        <time>2015-11-08T13:22:49Z</time>
      </trkpt>
      <trkpt lat="45.92947" lon="6.24123">
        <ele>1145.07</ele>
        <time>2015-11-08T13:23:05Z</time>
      </trkpt>
      <trkpt lat="45.92947" lon="6.24121">
        <ele>1145.07</ele>
        <time>2015-11-08T13:23:29Z</time>
      </trkpt>
      <trkpt lat="45.92945" lon="6.24124">
        <ele>1145.07</ele>
        <time>2015-11-08T13:23:44Z</time>
      </trkpt>
      <trkpt lat="45.92945" lon="6.24116">
        <ele>1144.59</ele>
        <time>2015-11-08T13:24:03Z</time>
      </trkpt>
      <trkpt lat="45.92946" lon="6.24121">
        <ele>1144.59</ele>
        <time>2015-11-08T13:24:32Z</time>
      </trkpt>
      <trkpt lat="45.92946" lon="6.24121">
        <ele>1144.11</ele>
        <time>2015-11-08T13:24:58Z</time>
      </trkpt>
      <trkpt lat="45.92948" lon="6.24118">
        <ele>1144.11</ele>
        <time>2015-11-08T13:25:10Z</time>
      </trkpt>
      <trkpt lat="45.92956" lon="6.2411">
        <ele>1142.18</ele>
        <time>2015-11-08T13:25:22Z</time>
      </trkpt>
      <trkpt lat="45.92967" lon="6.24093">
        <ele>1139.78</ele>
        <time>2015-11-08T13:25:37Z</time>
      </trkpt>
      <trkpt lat="45.92977" lon="6.24076">
        <ele>1136.9</ele>
        <time>2015-11-08T13:25:53Z</time>
      </trkpt>
      <trkpt lat="45.92987" lon="6.24068">
        <ele>1134.01</ele>
        <time>2015-11-08T13:26:06Z</time>
      </trkpt>
      <trkpt lat="45.92996" lon="6.24071">
        <ele>1130.65</ele>
        <time>2015-11-08T13:26:18Z</time>
      </trkpt>
      <trkpt lat="45.93007" lon="6.24079">
        <ele>1127.76</ele>
        <time>2015-11-08T13:26:32Z</time>
      </trkpt>
      <trkpt lat="45.93013" lon="6.24087">
        <ele>1124.88</ele>
        <time>2015-11-08T13:26:44Z</time>
      </trkpt>
      <trkpt lat="45.9302" lon="6.24096">
        <ele>1122.96</ele>
        <time>2015-11-08T13:26:55Z</time>
      </trkpt>
      <trkpt lat="45.93034" lon="6.24106">
        <ele>1121.03</ele>
        <time>2015-11-08T13:27:10Z</time>
      </trkpt>
      <trkpt lat="45.93034" lon="6.24105">
        <ele>1121.03</ele>
        <time>2015-11-08T13:27:12Z</time>
      </trkpt>
      <trkpt lat="45.93037" lon="6.24104">
        <ele>1121.03</ele>
        <time>2015-11-08T13:27:15Z</time>
      </trkpt>
      <trkpt lat="45.9304" lon="6.24095">
        <ele>1119.59</ele>
        <time>2015-11-08T13:27:23Z</time>
      </trkpt>
      <trkpt lat="45.93044" lon="6.24083">
        <ele>1119.11</ele>
        <time>2015-11-08T13:27:31Z</time>
      </trkpt>
      <trkpt lat="45.93048" lon="6.24076">
        <ele>1118.15</ele>
        <time>2015-11-08T13:27:37Z</time>
      </trkpt>
      <trkpt lat="45.93058" lon="6.24052">
        <ele>1118.15</ele>
        <time>2015-11-08T13:27:54Z</time>
      </trkpt>
      <trkpt lat="45.93059" lon="6.24049">
        <ele>1118.15</ele>
        <time>2015-11-08T13:27:56Z</time>
      </trkpt>
      <trkpt lat="45.93063" lon="6.24038">
        <ele>1119.59</ele>
        <time>2015-11-08T13:28:04Z</time>
      </trkpt>
      <trkpt lat="45.93067" lon="6.24031">
        <ele>1120.07</ele>
        <time>2015-11-08T13:28:09Z</time>
      </trkpt>
      <trkpt lat="45.93084" lon="6.2402">
        <ele>1121.03</ele>
        <time>2015-11-08T13:28:24Z</time>
      </trkpt>
      <trkpt lat="45.93101" lon="6.24012">
        <ele>1121.03</ele>
        <time>2015-11-08T13:28:38Z</time>
      </trkpt>
      <trkpt lat="45.93109" lon="6.24006">
        <ele>1119.59</ele>
        <time>2015-11-08T13:28:45Z</time>
      </trkpt>
      <trkpt lat="45.93112" lon="6.24003">
        <ele>1118.63</ele>
        <time>2015-11-08T13:28:48Z</time>
      </trkpt>
      <trkpt lat="45.93124" lon="6.23983">
        <ele>1116.23</ele>
        <time>2015-11-08T13:29:05Z</time>
      </trkpt>
      <trkpt lat="45.93129" lon="6.23973">
        <ele>1114.79</ele>
        <time>2015-11-08T13:29:12Z</time>
      </trkpt>
      <trkpt lat="45.93132" lon="6.23968">
        <ele>1114.31</ele>
        <time>2015-11-08T13:29:18Z</time>
      </trkpt>
      <trkpt lat="45.9314" lon="6.23957">
        <ele>1113.34</ele>
        <time>2015-11-08T13:29:29Z</time>
      </trkpt>
      <trkpt lat="45.9314" lon="6.23955">
        <ele>1113.34</ele>
        <time>2015-11-08T13:29:30Z</time>
      </trkpt>
      <trkpt lat="45.93143" lon="6.23951">
        <ele>1112.86</ele>
        <time>2015-11-08T13:29:32Z</time>
      </trkpt>
      <trkpt lat="45.93162" lon="6.23937">
        <ele>1111.42</ele>
        <time>2015-11-08T13:29:48Z</time>
      </trkpt>
      <trkpt lat="45.93171" lon="6.23932">
        <ele>1109.5</ele>
        <time>2015-11-08T13:29:56Z</time>
      </trkpt>
      <trkpt lat="45.93174" lon="6.23931">
        <ele>1109.5</ele>
        <time>2015-11-08T13:29:58Z</time>
      </trkpt>
      <trkpt lat="45.93188" lon="6.23921">
        <ele>1106.13</ele>
        <time>2015-11-08T13:30:11Z</time>
      </trkpt>
      <trkpt lat="45.93196" lon="6.23908">
        <ele>1103.25</ele>
        <time>2015-11-08T13:30:22Z</time>
      </trkpt>
      <trkpt lat="45.93205" lon="6.23901">
        <ele>1099.89</ele>
        <time>2015-11-08T13:30:33Z</time>
      </trkpt>
      <trkpt lat="45.93206" lon="6.239">
        <ele>1099.4</ele>
        <time>2015-11-08T13:30:35Z</time>
      </trkpt>
      <trkpt lat="45.93216" lon="6.23893">
        <ele>1097.48</ele>
        <time>2015-11-08T13:30:47Z</time>
      </trkpt>
      <trkpt lat="45.93225" lon="6.23888">
        <ele>1096.04</ele>
        <time>2015-11-08T13:30:59Z</time>
      </trkpt>
      <trkpt lat="45.93229" lon="6.23884">
        <ele>1094.6</ele>
        <time>2015-11-08T13:31:06Z</time>
      </trkpt>
      <trkpt lat="45.93238" lon="6.23867">
        <ele>1092.2</ele>
        <time>2015-11-08T13:31:21Z</time>
      </trkpt>
      <trkpt lat="45.9324" lon="6.23865">
        <ele>1091.71</ele>
        <time>2015-11-08T13:31:23Z</time>
      </trkpt>
      <trkpt lat="45.93242" lon="6.2386">
        <ele>1091.71</ele>
        <time>2015-11-08T13:31:27Z</time>
      </trkpt>
      <trkpt lat="45.93247" lon="6.23842">
        <ele>1087.87</ele>
        <time>2015-11-08T13:31:41Z</time>
      </trkpt>
      <trkpt lat="45.93248" lon="6.23825">
        <ele>1085.47</ele>
        <time>2015-11-08T13:31:54Z</time>
      </trkpt>
      <trkpt lat="45.93249" lon="6.23812">
        <ele>1082.58</ele>
        <time>2015-11-08T13:32:04Z</time>
      </trkpt>
      <trkpt lat="45.93248" lon="6.23797">
        <ele>1079.22</ele>
        <time>2015-11-08T13:32:18Z</time>
      </trkpt>
      <trkpt lat="45.93245" lon="6.23787">
        <ele>1077.29</ele>
        <time>2015-11-08T13:32:28Z</time>
      </trkpt>
      <trkpt lat="45.93245" lon="6.2378">
        <ele>1076.81</ele>
        <time>2015-11-08T13:32:45Z</time>
      </trkpt>
      <trkpt lat="45.93249" lon="6.23779">
        <ele>1076.81</ele>
        <time>2015-11-08T13:33:06Z</time>
      </trkpt>
      <trkpt lat="45.93249" lon="6.23779">
        <ele>1076.33</ele>
        <time>2015-11-08T13:33:34Z</time>
      </trkpt>
      <trkpt lat="45.93249" lon="6.23774">
        <ele>1076.33</ele>
        <time>2015-11-08T13:33:58Z</time>
      </trkpt>
      <trkpt lat="45.9325" lon="6.23771">
        <ele>1075.85</ele>
        <time>2015-11-08T13:34:15Z</time>
      </trkpt>
      <trkpt lat="45.93251" lon="6.23774">
        <ele>1075.85</ele>
        <time>2015-11-08T13:34:43Z</time>
      </trkpt>
      <trkpt lat="45.93253" lon="6.23767">
        <ele>1075.37</ele>
        <time>2015-11-08T13:35:05Z</time>
      </trkpt>
      <trkpt lat="45.93255" lon="6.23771">
        <ele>1075.37</ele>
        <time>2015-11-08T13:35:28Z</time>
      </trkpt>
      <trkpt lat="45.93256" lon="6.23774">
        <ele>1075.37</ele>
        <time>2015-11-08T13:35:56Z</time>
      </trkpt>
      <trkpt lat="45.9325" lon="6.23777">
        <ele>1074.89</ele>
        <time>2015-11-08T13:36:22Z</time>
      </trkpt>
      <trkpt lat="45.93255" lon="6.23778">
        <ele>1074.89</ele>
        <time>2015-11-08T13:36:40Z</time>
      </trkpt>
      <trkpt lat="45.93251" lon="6.23782">
        <ele>1074.89</ele>
        <time>2015-11-08T13:37:02Z</time>
      </trkpt>
      <trkpt lat="45.93252" lon="6.23777">
        <ele>1074.41</ele>
        <time>2015-11-08T13:37:19Z</time>
      </trkpt>
      <trkpt lat="45.93254" lon="6.23768">
        <ele>1073.93</ele>
        <time>2015-11-08T13:37:30Z</time>
      </trkpt>
      <trkpt lat="45.93253" lon="6.23758">
        <ele>1071.53</ele>
        <time>2015-11-08T13:37:44Z</time>
      </trkpt>
      <trkpt lat="45.93246" lon="6.23751">
        <ele>1069.12</ele>
        <time>2015-11-08T13:37:57Z</time>
      </trkpt>
      <trkpt lat="45.93237" lon="6.23746">
        <ele>1068.16</ele>
        <time>2015-11-08T13:38:08Z</time>
      </trkpt>
      <trkpt lat="45.93228" lon="6.23735">
        <ele>1067.68</ele>
        <time>2015-11-08T13:38:17Z</time>
      </trkpt>
      <trkpt lat="45.93226" lon="6.23712">
        <ele>1069.12</ele>
        <time>2015-11-08T13:38:31Z</time>
      </trkpt>
      <trkpt lat="45.93229" lon="6.23688">
        <ele>1069.6</ele>
        <time>2015-11-08T13:38:47Z</time>
      </trkpt>
      <trkpt lat="45.93234" lon="6.23676">
        <ele>1069.6</ele>
        <time>2015-11-08T13:38:55Z</time>
      </trkpt>
      <trkpt lat="45.93239" lon="6.23657">
        <ele>1069.12</ele>
        <time>2015-11-08T13:39:08Z</time>
      </trkpt>
      <trkpt lat="45.93243" lon="6.23639">
        <ele>1069.12</ele>
        <time>2015-11-08T13:39:20Z</time>
      </trkpt>
      <trkpt lat="45.93243" lon="6.2363">
        <ele>1069.12</ele>
        <time>2015-11-08T13:39:26Z</time>
      </trkpt>
      <trkpt lat="45.93243" lon="6.23627">
        <ele>1069.12</ele>
        <time>2015-11-08T13:39:28Z</time>
      </trkpt>
      <trkpt lat="45.93245" lon="6.2361">
        <ele>1071.05</ele>
        <time>2015-11-08T13:39:41Z</time>
      </trkpt>
      <trkpt lat="45.93241" lon="6.23582">
        <ele>1072.97</ele>
        <time>2015-11-08T13:39:57Z</time>
      </trkpt>
      <trkpt lat="45.9324" lon="6.23567">
        <ele>1074.41</ele>
        <time>2015-11-08T13:40:09Z</time>
      </trkpt>
      <trkpt lat="45.9324" lon="6.23546">
        <ele>1076.81</ele>
        <time>2015-11-08T13:40:23Z</time>
      </trkpt>
      <trkpt lat="45.93238" lon="6.23539">
        <ele>1077.29</ele>
        <time>2015-11-08T13:40:28Z</time>
      </trkpt>
      <trkpt lat="45.93235" lon="6.23516">
        <ele>1079.22</ele>
        <time>2015-11-08T13:40:42Z</time>
      </trkpt>
      <trkpt lat="45.93235" lon="6.23508">
        <ele>1079.7</ele>
        <time>2015-11-08T13:40:49Z</time>
      </trkpt>
      <trkpt lat="45.93233" lon="6.23486">
        <ele>1082.58</ele>
        <time>2015-11-08T13:41:05Z</time>
      </trkpt>
      <trkpt lat="45.93231" lon="6.23466">
        <ele>1084.99</ele>
        <time>2015-11-08T13:41:20Z</time>
      </trkpt>
      <trkpt lat="45.9323" lon="6.23446">
        <ele>1086.43</ele>
        <time>2015-11-08T13:41:33Z</time>
      </trkpt>
      <trkpt lat="45.93232" lon="6.23429">
        <ele>1088.35</ele>
        <time>2015-11-08T13:41:47Z</time>
      </trkpt>
      <trkpt lat="45.93236" lon="6.23413">
        <ele>1090.75</ele>
        <time>2015-11-08T13:41:59Z</time>
      </trkpt>
      <trkpt lat="45.93237" lon="6.2341">
        <ele>1090.75</ele>
        <time>2015-11-08T13:42:01Z</time>
      </trkpt>
      <trkpt lat="45.93245" lon="6.23392">
        <ele>1091.71</ele>
        <time>2015-11-08T13:42:16Z</time>
      </trkpt>
      <trkpt lat="45.93249" lon="6.23385">
        <ele>1091.71</ele>
        <time>2015-11-08T13:42:22Z</time>
      </trkpt>
      <trkpt lat="45.93258" lon="6.23372">
        <ele>1090.27</ele>
        <time>2015-11-08T13:42:33Z</time>
      </trkpt>
      <trkpt lat="45.93269" lon="6.23355">
        <ele>1087.87</ele>
        <time>2015-11-08T13:42:48Z</time>
      </trkpt>
      <trkpt lat="45.93271" lon="6.23349">
        <ele>1087.87</ele>
        <time>2015-11-08T13:42:52Z</time>
      </trkpt>
      <trkpt lat="45.93284" lon="6.23334">
        <ele>1084.5</ele>
        <time>2015-11-08T13:43:07Z</time>
      </trkpt>
      <trkpt lat="45.93289" lon="6.23329">
        <ele>1082.1</ele>
        <time>2015-11-08T13:43:19Z</time>
      </trkpt>
      <trkpt lat="45.93297" lon="6.23328">
        <ele>1080.18</ele>
        <time>2015-11-08T13:43:29Z</time>
      </trkpt>
      <trkpt lat="45.93307" lon="6.23331">
        <ele>1078.74</ele>
        <time>2015-11-08T13:43:36Z</time>
      </trkpt>
      <trkpt lat="45.93332" lon="6.23342">
        <ele>1077.78</ele>
        <time>2015-11-08T13:43:56Z</time>
      </trkpt>
      <trkpt lat="45.9335" lon="6.23359">
        <ele>1074.89</ele>
        <time>2015-11-08T13:44:13Z</time>
      </trkpt>
      <trkpt lat="45.93367" lon="6.23371">
        <ele>1072.97</ele>
        <time>2015-11-08T13:44:30Z</time>
      </trkpt>
      <trkpt lat="45.93373" lon="6.23375">
        <ele>1072.01</ele>
        <time>2015-11-08T13:44:36Z</time>
      </trkpt>
      <trkpt lat="45.93378" lon="6.23375">
        <ele>1071.05</ele>
        <time>2015-11-08T13:44:40Z</time>
      </trkpt>
      <trkpt lat="45.93395" lon="6.23376">
        <ele>1068.64</ele>
        <time>2015-11-08T13:44:58Z</time>
      </trkpt>
      <trkpt lat="45.93398" lon="6.23381">
        <ele>1067.2</ele>
        <time>2015-11-08T13:45:05Z</time>
      </trkpt>
      <trkpt lat="45.93404" lon="6.23385">
        <ele>1065.76</ele>
        <time>2015-11-08T13:45:11Z</time>
      </trkpt>
      <trkpt lat="45.93408" lon="6.23385">
        <ele>1065.76</ele>
        <time>2015-11-08T13:45:15Z</time>
      </trkpt>
      <trkpt lat="45.93424" lon="6.23365">
        <ele>1062.87</ele>
        <time>2015-11-08T13:45:32Z</time>
      </trkpt>
      <trkpt lat="45.93444" lon="6.23357">
        <ele>1062.87</ele>
        <time>2015-11-08T13:45:50Z</time>
      </trkpt>
      <trkpt lat="45.93462" lon="6.23359">
        <ele>1062.39</ele>
        <time>2015-11-08T13:46:05Z</time>
      </trkpt>
      <trkpt lat="45.93469" lon="6.23355">
        <ele>1063.84</ele>
        <time>2015-11-08T13:46:12Z</time>
      </trkpt>
      <trkpt lat="45.93481" lon="6.23347">
        <ele>1063.84</ele>
        <time>2015-11-08T13:46:23Z</time>
      </trkpt>
      <trkpt lat="45.93504" lon="6.23342">
        <ele>1064.32</ele>
        <time>2015-11-08T13:46:42Z</time>
      </trkpt>
      <trkpt lat="45.93513" lon="6.2334">
        <ele>1064.32</ele>
        <time>2015-11-08T13:46:56Z</time>
      </trkpt>
      <trkpt lat="45.93516" lon="6.23327">
        <ele>1062.87</ele>
        <time>2015-11-08T13:47:10Z</time>
      </trkpt>
      <trkpt lat="45.93519" lon="6.2332">
        <ele>1061.91</ele>
        <time>2015-11-08T13:47:22Z</time>
      </trkpt>
      <trkpt lat="45.93519" lon="6.2332">
        <ele>1062.39</ele>
        <time>2015-11-08T13:47:36Z</time>
      </trkpt>
    </trkseg>
  </trk>
</gpx>